<?xml version="1.0" encoding="UTF-8" standalone="no" ?>
<gpx xmlns="http://www.topografix.com/GPX/1/1" xmlns:xsi="http://www.w3.org/2001/XMLSchema-instance" xsi:schemaLocation="http://www.topografix.com/GPX/1/1 http://www.topografix.com/GPX/1/1/gpx.xsd" version="1.1" creator="VisuGPX - https://www.visugpx.com">
  <metadata>
    <name>Saint palais</name>
  </metadata>
  <trk>
    <name><![CDATA[randogps17-284]]></name>
    <trkseg>
      <trkpt lat="45.643" lon="-1.08829">
        <ele>8.9</ele>
        <time>2021-03-28T15:18:59Z</time>
      </trkpt>
      <trkpt lat="45.64294" lon="-1.0883">
        <ele>8.8</ele>
        <time>2021-03-28T15:19:02Z</time>
      </trkpt>
      <trkpt lat="45.64292" lon="-1.08829">
        <ele>8.8</ele>
        <time>2021-03-28T15:19:03Z</time>
      </trkpt>
      <trkpt lat="45.64289" lon="-1.08825">
        <ele>8.8</ele>
        <time>2021-03-28T15:19:08Z</time>
      </trkpt>
      <trkpt lat="45.64288" lon="-1.08826">
        <ele>8.8</ele>
        <time>2021-03-28T15:19:13Z</time>
      </trkpt>
      <trkpt lat="45.64288" lon="-1.08825">
        <ele>8.8</ele>
        <time>2021-03-28T15:19:17Z</time>
      </trkpt>
      <trkpt lat="45.64286" lon="-1.08827">
        <ele>8.7</ele>
        <time>2021-03-28T15:19:40Z</time>
      </trkpt>
      <trkpt lat="45.64287" lon="-1.08817">
        <ele>8.7</ele>
        <time>2021-03-28T15:19:49Z</time>
      </trkpt>
      <trkpt lat="45.64284" lon="-1.08806">
        <ele>8.6</ele>
        <time>2021-03-28T15:19:54Z</time>
      </trkpt>
      <trkpt lat="45.64283" lon="-1.08802">
        <ele>8.6</ele>
        <time>2021-03-28T15:20:00Z</time>
      </trkpt>
      <trkpt lat="45.64284" lon="-1.08801">
        <ele>8.6</ele>
        <time>2021-03-28T15:20:03Z</time>
      </trkpt>
      <trkpt lat="45.64285" lon="-1.08801">
        <ele>8.6</ele>
        <time>2021-03-28T15:20:07Z</time>
      </trkpt>
      <trkpt lat="45.64284" lon="-1.08799">
        <ele>8.6</ele>
        <time>2021-03-28T15:20:09Z</time>
      </trkpt>
      <trkpt lat="45.64289" lon="-1.08792">
        <ele>8.6</ele>
        <time>2021-03-28T15:20:15Z</time>
      </trkpt>
      <trkpt lat="45.64291" lon="-1.08791">
        <ele>8.6</ele>
        <time>2021-03-28T15:20:17Z</time>
      </trkpt>
      <trkpt lat="45.64298" lon="-1.08784">
        <ele>8.6</ele>
        <time>2021-03-28T15:20:25Z</time>
      </trkpt>
      <trkpt lat="45.643" lon="-1.08783">
        <ele>8.6</ele>
        <time>2021-03-28T15:20:27Z</time>
      </trkpt>
      <trkpt lat="45.64308" lon="-1.08778">
        <ele>8.6</ele>
        <time>2021-03-28T15:20:35Z</time>
      </trkpt>
      <trkpt lat="45.64314" lon="-1.08779">
        <ele>8.5</ele>
        <time>2021-03-28T15:20:40Z</time>
      </trkpt>
      <trkpt lat="45.64315" lon="-1.08781">
        <ele>8.5</ele>
        <time>2021-03-28T15:20:43Z</time>
      </trkpt>
      <trkpt lat="45.64319" lon="-1.08781">
        <ele>8.4</ele>
        <time>2021-03-28T15:20:47Z</time>
      </trkpt>
      <trkpt lat="45.64323" lon="-1.08783">
        <ele>8.4</ele>
        <time>2021-03-28T15:20:51Z</time>
      </trkpt>
      <trkpt lat="45.64329" lon="-1.08791">
        <ele>8.2</ele>
        <time>2021-03-28T15:21:00Z</time>
      </trkpt>
      <trkpt lat="45.64332" lon="-1.08793">
        <ele>8.1</ele>
        <time>2021-03-28T15:21:01Z</time>
      </trkpt>
      <trkpt lat="45.64335" lon="-1.08798">
        <ele>8.1</ele>
        <time>2021-03-28T15:21:05Z</time>
      </trkpt>
      <trkpt lat="45.64335" lon="-1.08802">
        <ele>8</ele>
        <time>2021-03-28T15:21:09Z</time>
      </trkpt>
      <trkpt lat="45.64339" lon="-1.08807">
        <ele>7.9</ele>
        <time>2021-03-28T15:21:15Z</time>
      </trkpt>
      <trkpt lat="45.64342" lon="-1.08809">
        <ele>7.9</ele>
        <time>2021-03-28T15:21:17Z</time>
      </trkpt>
      <trkpt lat="45.64345" lon="-1.08813">
        <ele>7.9</ele>
        <time>2021-03-28T15:21:20Z</time>
      </trkpt>
      <trkpt lat="45.64352" lon="-1.08817">
        <ele>7.8</ele>
        <time>2021-03-28T15:21:26Z</time>
      </trkpt>
      <trkpt lat="45.64353" lon="-1.08822">
        <ele>7.8</ele>
        <time>2021-03-28T15:21:27Z</time>
      </trkpt>
      <trkpt lat="45.64365" lon="-1.08836">
        <ele>7.8</ele>
        <time>2021-03-28T15:21:37Z</time>
      </trkpt>
      <trkpt lat="45.64368" lon="-1.0884">
        <ele>7.7</ele>
        <time>2021-03-28T15:21:40Z</time>
      </trkpt>
      <trkpt lat="45.64372" lon="-1.0884">
        <ele>7.7</ele>
        <time>2021-03-28T15:21:42Z</time>
      </trkpt>
      <trkpt lat="45.64376" lon="-1.08842">
        <ele>7.7</ele>
        <time>2021-03-28T15:21:46Z</time>
      </trkpt>
      <trkpt lat="45.64378" lon="-1.0884">
        <ele>7.7</ele>
        <time>2021-03-28T15:21:47Z</time>
      </trkpt>
      <trkpt lat="45.64391" lon="-1.08842">
        <ele>7.7</ele>
        <time>2021-03-28T15:22:00Z</time>
      </trkpt>
      <trkpt lat="45.64398" lon="-1.08848">
        <ele>7.7</ele>
        <time>2021-03-28T15:22:05Z</time>
      </trkpt>
      <trkpt lat="45.64402" lon="-1.08852">
        <ele>7.7</ele>
        <time>2021-03-28T15:22:09Z</time>
      </trkpt>
      <trkpt lat="45.64403" lon="-1.08856">
        <ele>7.7</ele>
        <time>2021-03-28T15:22:12Z</time>
      </trkpt>
      <trkpt lat="45.6441" lon="-1.08857">
        <ele>7.8</ele>
        <time>2021-03-28T15:22:18Z</time>
      </trkpt>
      <trkpt lat="45.64409" lon="-1.08858">
        <ele>7.8</ele>
        <time>2021-03-28T15:22:23Z</time>
      </trkpt>
      <trkpt lat="45.64415" lon="-1.08865">
        <ele>7.9</ele>
        <time>2021-03-28T15:22:30Z</time>
      </trkpt>
      <trkpt lat="45.64422" lon="-1.08871">
        <ele>8.1</ele>
        <time>2021-03-28T15:22:36Z</time>
      </trkpt>
      <trkpt lat="45.64422" lon="-1.08876">
        <ele>8.1</ele>
        <time>2021-03-28T15:22:37Z</time>
      </trkpt>
      <trkpt lat="45.64422" lon="-1.08878">
        <ele>8.2</ele>
        <time>2021-03-28T15:22:38Z</time>
      </trkpt>
      <trkpt lat="45.64424" lon="-1.08882">
        <ele>8.2</ele>
        <time>2021-03-28T15:22:41Z</time>
      </trkpt>
      <trkpt lat="45.64423" lon="-1.08884">
        <ele>8.2</ele>
        <time>2021-03-28T15:22:43Z</time>
      </trkpt>
      <trkpt lat="45.64426" lon="-1.08888">
        <ele>8.1</ele>
        <time>2021-03-28T15:22:47Z</time>
      </trkpt>
      <trkpt lat="45.6443" lon="-1.08886">
        <ele>8.1</ele>
        <time>2021-03-28T15:22:49Z</time>
      </trkpt>
      <trkpt lat="45.64436" lon="-1.08881">
        <ele>8</ele>
        <time>2021-03-28T15:22:55Z</time>
      </trkpt>
      <trkpt lat="45.64446" lon="-1.08848">
        <ele>7.6</ele>
        <time>2021-03-28T15:23:14Z</time>
      </trkpt>
      <trkpt lat="45.64457" lon="-1.08852">
        <ele>7.6</ele>
        <time>2021-03-28T15:23:23Z</time>
      </trkpt>
      <trkpt lat="45.6448" lon="-1.08847">
        <ele>7.6</ele>
        <time>2021-03-28T15:23:39Z</time>
      </trkpt>
      <trkpt lat="45.64487" lon="-1.08846">
        <ele>7.6</ele>
        <time>2021-03-28T15:23:45Z</time>
      </trkpt>
      <trkpt lat="45.64492" lon="-1.08849">
        <ele>7.6</ele>
        <time>2021-03-28T15:23:50Z</time>
      </trkpt>
      <trkpt lat="45.64495" lon="-1.08849">
        <ele>7.6</ele>
        <time>2021-03-28T15:23:52Z</time>
      </trkpt>
      <trkpt lat="45.64508" lon="-1.08861">
        <ele>7.8</ele>
        <time>2021-03-28T15:24:05Z</time>
      </trkpt>
      <trkpt lat="45.64512" lon="-1.08862">
        <ele>7.8</ele>
        <time>2021-03-28T15:24:08Z</time>
      </trkpt>
      <trkpt lat="45.64523" lon="-1.08862">
        <ele>7.7</ele>
        <time>2021-03-28T15:24:16Z</time>
      </trkpt>
      <trkpt lat="45.64527" lon="-1.08865">
        <ele>7.7</ele>
        <time>2021-03-28T15:24:22Z</time>
      </trkpt>
      <trkpt lat="45.64527" lon="-1.08862">
        <ele>7.7</ele>
        <time>2021-03-28T15:24:23Z</time>
      </trkpt>
      <trkpt lat="45.64529" lon="-1.08864">
        <ele>7.7</ele>
        <time>2021-03-28T15:24:25Z</time>
      </trkpt>
      <trkpt lat="45.64535" lon="-1.08876">
        <ele>7.6</ele>
        <time>2021-03-28T15:24:31Z</time>
      </trkpt>
      <trkpt lat="45.64539" lon="-1.08893">
        <ele>7.5</ele>
        <time>2021-03-28T15:24:39Z</time>
      </trkpt>
      <trkpt lat="45.64539" lon="-1.08903">
        <ele>7.5</ele>
        <time>2021-03-28T15:24:43Z</time>
      </trkpt>
      <trkpt lat="45.64542" lon="-1.08914">
        <ele>7.5</ele>
        <time>2021-03-28T15:24:50Z</time>
      </trkpt>
      <trkpt lat="45.64543" lon="-1.08923">
        <ele>7.5</ele>
        <time>2021-03-28T15:24:55Z</time>
      </trkpt>
      <trkpt lat="45.64546" lon="-1.08928">
        <ele>7.5</ele>
        <time>2021-03-28T15:25:00Z</time>
      </trkpt>
      <trkpt lat="45.64548" lon="-1.0893">
        <ele>7.5</ele>
        <time>2021-03-28T15:25:03Z</time>
      </trkpt>
      <trkpt lat="45.6455" lon="-1.08928">
        <ele>7.5</ele>
        <time>2021-03-28T15:25:05Z</time>
      </trkpt>
      <trkpt lat="45.64556" lon="-1.08931">
        <ele>7.5</ele>
        <time>2021-03-28T15:25:10Z</time>
      </trkpt>
      <trkpt lat="45.64558" lon="-1.08936">
        <ele>7.5</ele>
        <time>2021-03-28T15:25:14Z</time>
      </trkpt>
      <trkpt lat="45.64556" lon="-1.0894">
        <ele>7.5</ele>
        <time>2021-03-28T15:25:16Z</time>
      </trkpt>
      <trkpt lat="45.64559" lon="-1.08951">
        <ele>7.5</ele>
        <time>2021-03-28T15:25:24Z</time>
      </trkpt>
      <trkpt lat="45.64563" lon="-1.08959">
        <ele>7.6</ele>
        <time>2021-03-28T15:25:30Z</time>
      </trkpt>
      <trkpt lat="45.64565" lon="-1.08966">
        <ele>7.6</ele>
        <time>2021-03-28T15:25:34Z</time>
      </trkpt>
      <trkpt lat="45.64566" lon="-1.08968">
        <ele>7.7</ele>
        <time>2021-03-28T15:25:35Z</time>
      </trkpt>
      <trkpt lat="45.64565" lon="-1.08976">
        <ele>7.7</ele>
        <time>2021-03-28T15:25:43Z</time>
      </trkpt>
      <trkpt lat="45.64568" lon="-1.08978">
        <ele>7.7</ele>
        <time>2021-03-28T15:25:49Z</time>
      </trkpt>
      <trkpt lat="45.64567" lon="-1.08977">
        <ele>7.7</ele>
        <time>2021-03-28T15:25:50Z</time>
      </trkpt>
      <trkpt lat="45.64571" lon="-1.08972">
        <ele>7.7</ele>
        <time>2021-03-28T15:25:58Z</time>
      </trkpt>
      <trkpt lat="45.6457" lon="-1.08972">
        <ele>7.7</ele>
        <time>2021-03-28T15:26:05Z</time>
      </trkpt>
      <trkpt lat="45.6458" lon="-1.08979">
        <ele>7.7</ele>
        <time>2021-03-28T15:26:23Z</time>
      </trkpt>
      <trkpt lat="45.64584" lon="-1.08978">
        <ele>7.6</ele>
        <time>2021-03-28T15:26:26Z</time>
      </trkpt>
      <trkpt lat="45.64589" lon="-1.08973">
        <ele>7.5</ele>
        <time>2021-03-28T15:26:30Z</time>
      </trkpt>
      <trkpt lat="45.64593" lon="-1.08973">
        <ele>7.4</ele>
        <time>2021-03-28T15:26:35Z</time>
      </trkpt>
      <trkpt lat="45.646" lon="-1.08971">
        <ele>7.3</ele>
        <time>2021-03-28T15:26:41Z</time>
      </trkpt>
      <trkpt lat="45.64602" lon="-1.08972">
        <ele>7.3</ele>
        <time>2021-03-28T15:26:43Z</time>
      </trkpt>
      <trkpt lat="45.64608" lon="-1.08973">
        <ele>7.3</ele>
        <time>2021-03-28T15:26:48Z</time>
      </trkpt>
      <trkpt lat="45.64614" lon="-1.08969">
        <ele>7.3</ele>
        <time>2021-03-28T15:26:56Z</time>
      </trkpt>
      <trkpt lat="45.64616" lon="-1.08971">
        <ele>7.3</ele>
        <time>2021-03-28T15:26:57Z</time>
      </trkpt>
      <trkpt lat="45.64628" lon="-1.08971">
        <ele>7.2</ele>
        <time>2021-03-28T15:27:08Z</time>
      </trkpt>
      <trkpt lat="45.64646" lon="-1.08966">
        <ele>7.2</ele>
        <time>2021-03-28T15:27:25Z</time>
      </trkpt>
      <trkpt lat="45.64667" lon="-1.08967">
        <ele>7.3</ele>
        <time>2021-03-28T15:27:38Z</time>
      </trkpt>
      <trkpt lat="45.64685" lon="-1.08964">
        <ele>7.5</ele>
        <time>2021-03-28T15:27:56Z</time>
      </trkpt>
      <trkpt lat="45.64688" lon="-1.08965">
        <ele>7.5</ele>
        <time>2021-03-28T15:27:59Z</time>
      </trkpt>
      <trkpt lat="45.647" lon="-1.08963">
        <ele>7.6</ele>
        <time>2021-03-28T15:28:10Z</time>
      </trkpt>
      <trkpt lat="45.647" lon="-1.08964">
        <ele>7.7</ele>
        <time>2021-03-28T15:28:12Z</time>
      </trkpt>
      <trkpt lat="45.64699" lon="-1.08965">
        <ele>7.7</ele>
        <time>2021-03-28T15:28:20Z</time>
      </trkpt>
      <trkpt lat="45.64699" lon="-1.08966">
        <ele>7.8</ele>
        <time>2021-03-28T15:28:27Z</time>
      </trkpt>
      <trkpt lat="45.647" lon="-1.08959">
        <ele>7.9</ele>
        <time>2021-03-28T15:28:37Z</time>
      </trkpt>
      <trkpt lat="45.64699" lon="-1.0895">
        <ele>7.9</ele>
        <time>2021-03-28T15:28:45Z</time>
      </trkpt>
      <trkpt lat="45.647" lon="-1.08951">
        <ele>7.9</ele>
        <time>2021-03-28T15:28:50Z</time>
      </trkpt>
      <trkpt lat="45.64699" lon="-1.08959">
        <ele>7.9</ele>
        <time>2021-03-28T15:28:56Z</time>
      </trkpt>
      <trkpt lat="45.64703" lon="-1.08966">
        <ele>7.9</ele>
        <time>2021-03-28T15:29:00Z</time>
      </trkpt>
      <trkpt lat="45.647" lon="-1.08972">
        <ele>7.9</ele>
        <time>2021-03-28T15:29:05Z</time>
      </trkpt>
      <trkpt lat="45.647" lon="-1.08979">
        <ele>7.9</ele>
        <time>2021-03-28T15:29:10Z</time>
      </trkpt>
      <trkpt lat="45.64698" lon="-1.08997">
        <ele>7.7</ele>
        <time>2021-03-28T15:29:24Z</time>
      </trkpt>
      <trkpt lat="45.64695" lon="-1.09011">
        <ele>7.4</ele>
        <time>2021-03-28T15:29:35Z</time>
      </trkpt>
      <trkpt lat="45.6469" lon="-1.09016">
        <ele>7.3</ele>
        <time>2021-03-28T15:29:39Z</time>
      </trkpt>
      <trkpt lat="45.64681" lon="-1.09019">
        <ele>7.1</ele>
        <time>2021-03-28T15:29:48Z</time>
      </trkpt>
      <trkpt lat="45.6468" lon="-1.09023">
        <ele>7.1</ele>
        <time>2021-03-28T15:29:51Z</time>
      </trkpt>
      <trkpt lat="45.64683" lon="-1.09032">
        <ele>7</ele>
        <time>2021-03-28T15:29:57Z</time>
      </trkpt>
      <trkpt lat="45.64693" lon="-1.09038">
        <ele>7</ele>
        <time>2021-03-28T15:30:06Z</time>
      </trkpt>
      <trkpt lat="45.64696" lon="-1.09042">
        <ele>7</ele>
        <time>2021-03-28T15:30:09Z</time>
      </trkpt>
      <trkpt lat="45.64703" lon="-1.09044">
        <ele>6.9</ele>
        <time>2021-03-28T15:30:17Z</time>
      </trkpt>
      <trkpt lat="45.64705" lon="-1.09041">
        <ele>6.9</ele>
        <time>2021-03-28T15:30:18Z</time>
      </trkpt>
      <trkpt lat="45.64712" lon="-1.09041">
        <ele>6.9</ele>
        <time>2021-03-28T15:30:26Z</time>
      </trkpt>
      <trkpt lat="45.64728" lon="-1.09057">
        <ele>6.8</ele>
        <time>2021-03-28T15:30:41Z</time>
      </trkpt>
      <trkpt lat="45.64737" lon="-1.09058">
        <ele>6.8</ele>
        <time>2021-03-28T15:30:52Z</time>
      </trkpt>
      <trkpt lat="45.64754" lon="-1.09064">
        <ele>6.8</ele>
        <time>2021-03-28T15:31:08Z</time>
      </trkpt>
      <trkpt lat="45.6476" lon="-1.09062">
        <ele>6.8</ele>
        <time>2021-03-28T15:31:13Z</time>
      </trkpt>
      <trkpt lat="45.64766" lon="-1.09063">
        <ele>6.8</ele>
        <time>2021-03-28T15:31:18Z</time>
      </trkpt>
      <trkpt lat="45.64769" lon="-1.09063">
        <ele>6.8</ele>
        <time>2021-03-28T15:31:22Z</time>
      </trkpt>
      <trkpt lat="45.64778" lon="-1.09064">
        <ele>6.8</ele>
        <time>2021-03-28T15:31:31Z</time>
      </trkpt>
      <trkpt lat="45.64785" lon="-1.09062">
        <ele>6.8</ele>
        <time>2021-03-28T15:31:38Z</time>
      </trkpt>
      <trkpt lat="45.64785" lon="-1.0906">
        <ele>6.8</ele>
        <time>2021-03-28T15:31:39Z</time>
      </trkpt>
      <trkpt lat="45.64777" lon="-1.09062">
        <ele>6.8</ele>
        <time>2021-03-28T15:31:46Z</time>
      </trkpt>
      <trkpt lat="45.64789" lon="-1.09061">
        <ele>6.9</ele>
        <time>2021-03-28T15:32:18Z</time>
      </trkpt>
      <trkpt lat="45.64796" lon="-1.09059">
        <ele>6.9</ele>
        <time>2021-03-28T15:32:24Z</time>
      </trkpt>
      <trkpt lat="45.64798" lon="-1.0906">
        <ele>6.9</ele>
        <time>2021-03-28T15:32:26Z</time>
      </trkpt>
      <trkpt lat="45.648" lon="-1.09058">
        <ele>6.9</ele>
        <time>2021-03-28T15:32:29Z</time>
      </trkpt>
      <trkpt lat="45.648" lon="-1.09056">
        <ele>6.9</ele>
        <time>2021-03-28T15:32:31Z</time>
      </trkpt>
      <trkpt lat="45.64799" lon="-1.09058">
        <ele>6.9</ele>
        <time>2021-03-28T15:32:35Z</time>
      </trkpt>
      <trkpt lat="45.64808" lon="-1.09057">
        <ele>6.9</ele>
        <time>2021-03-28T15:32:45Z</time>
      </trkpt>
      <trkpt lat="45.64811" lon="-1.0906">
        <ele>6.9</ele>
        <time>2021-03-28T15:32:49Z</time>
      </trkpt>
      <trkpt lat="45.64827" lon="-1.09054">
        <ele>6.9</ele>
        <time>2021-03-28T15:33:04Z</time>
      </trkpt>
      <trkpt lat="45.64836" lon="-1.09053">
        <ele>6.9</ele>
        <time>2021-03-28T15:33:11Z</time>
      </trkpt>
      <trkpt lat="45.64851" lon="-1.09053">
        <ele>7</ele>
        <time>2021-03-28T15:33:22Z</time>
      </trkpt>
      <trkpt lat="45.64857" lon="-1.09051">
        <ele>7</ele>
        <time>2021-03-28T15:33:28Z</time>
      </trkpt>
      <trkpt lat="45.64864" lon="-1.09052">
        <ele>7</ele>
        <time>2021-03-28T15:33:34Z</time>
      </trkpt>
      <trkpt lat="45.64866" lon="-1.09053">
        <ele>7</ele>
        <time>2021-03-28T15:33:38Z</time>
      </trkpt>
      <trkpt lat="45.64868" lon="-1.09052">
        <ele>7</ele>
        <time>2021-03-28T15:33:40Z</time>
      </trkpt>
      <trkpt lat="45.64867" lon="-1.0905">
        <ele>7</ele>
        <time>2021-03-28T15:33:44Z</time>
      </trkpt>
      <trkpt lat="45.64874" lon="-1.09054">
        <ele>7</ele>
        <time>2021-03-28T15:33:54Z</time>
      </trkpt>
      <trkpt lat="45.64873" lon="-1.09052">
        <ele>7</ele>
        <time>2021-03-28T15:33:59Z</time>
      </trkpt>
      <trkpt lat="45.64873" lon="-1.09051">
        <ele>7</ele>
        <time>2021-03-28T15:34:12Z</time>
      </trkpt>
      <trkpt lat="45.64871" lon="-1.09052">
        <ele>7</ele>
        <time>2021-03-28T15:34:18Z</time>
      </trkpt>
      <trkpt lat="45.64878" lon="-1.09051">
        <ele>7</ele>
        <time>2021-03-28T15:34:34Z</time>
      </trkpt>
      <trkpt lat="45.64879" lon="-1.0905">
        <ele>7</ele>
        <time>2021-03-28T15:34:36Z</time>
      </trkpt>
      <trkpt lat="45.64903" lon="-1.09062">
        <ele>7.1</ele>
        <time>2021-03-28T15:34:58Z</time>
      </trkpt>
      <trkpt lat="45.64908" lon="-1.09069">
        <ele>7.1</ele>
        <time>2021-03-28T15:35:03Z</time>
      </trkpt>
      <trkpt lat="45.64911" lon="-1.09078">
        <ele>7.2</ele>
        <time>2021-03-28T15:35:09Z</time>
      </trkpt>
      <trkpt lat="45.64915" lon="-1.09096">
        <ele>7.3</ele>
        <time>2021-03-28T15:35:21Z</time>
      </trkpt>
      <trkpt lat="45.64917" lon="-1.091">
        <ele>7.4</ele>
        <time>2021-03-28T15:35:25Z</time>
      </trkpt>
      <trkpt lat="45.64919" lon="-1.09101">
        <ele>7.4</ele>
        <time>2021-03-28T15:35:29Z</time>
      </trkpt>
      <trkpt lat="45.64922" lon="-1.09097">
        <ele>7.4</ele>
        <time>2021-03-28T15:35:33Z</time>
      </trkpt>
      <trkpt lat="45.64921" lon="-1.09098">
        <ele>7.4</ele>
        <time>2021-03-28T15:35:41Z</time>
      </trkpt>
      <trkpt lat="45.64921" lon="-1.09102">
        <ele>7.4</ele>
        <time>2021-03-28T15:35:47Z</time>
      </trkpt>
      <trkpt lat="45.6492" lon="-1.09105">
        <ele>7.4</ele>
        <time>2021-03-28T15:36:03Z</time>
      </trkpt>
      <trkpt lat="45.64919" lon="-1.09104">
        <ele>7.4</ele>
        <time>2021-03-28T15:36:12Z</time>
      </trkpt>
      <trkpt lat="45.64921" lon="-1.09115">
        <ele>7.4</ele>
        <time>2021-03-28T15:36:20Z</time>
      </trkpt>
      <trkpt lat="45.64925" lon="-1.09132">
        <ele>7.4</ele>
        <time>2021-03-28T15:36:30Z</time>
      </trkpt>
      <trkpt lat="45.6493" lon="-1.09137">
        <ele>7.3</ele>
        <time>2021-03-28T15:36:36Z</time>
      </trkpt>
      <trkpt lat="45.6493" lon="-1.09145">
        <ele>7.3</ele>
        <time>2021-03-28T15:36:40Z</time>
      </trkpt>
      <trkpt lat="45.64934" lon="-1.09148">
        <ele>7.3</ele>
        <time>2021-03-28T15:36:44Z</time>
      </trkpt>
      <trkpt lat="45.64941" lon="-1.0915">
        <ele>7.3</ele>
        <time>2021-03-28T15:36:50Z</time>
      </trkpt>
      <trkpt lat="45.64946" lon="-1.09155">
        <ele>7.3</ele>
        <time>2021-03-28T15:36:55Z</time>
      </trkpt>
      <trkpt lat="45.64949" lon="-1.09169">
        <ele>7.3</ele>
        <time>2021-03-28T15:37:04Z</time>
      </trkpt>
      <trkpt lat="45.64958" lon="-1.092">
        <ele>7.4</ele>
        <time>2021-03-28T15:37:23Z</time>
      </trkpt>
      <trkpt lat="45.64965" lon="-1.09209">
        <ele>7.4</ele>
        <time>2021-03-28T15:37:31Z</time>
      </trkpt>
      <trkpt lat="45.64977" lon="-1.09218">
        <ele>7.3</ele>
        <time>2021-03-28T15:37:43Z</time>
      </trkpt>
      <trkpt lat="45.64982" lon="-1.0922">
        <ele>7.3</ele>
        <time>2021-03-28T15:37:47Z</time>
      </trkpt>
      <trkpt lat="45.64986" lon="-1.09223">
        <ele>7.3</ele>
        <time>2021-03-28T15:37:50Z</time>
      </trkpt>
      <trkpt lat="45.64991" lon="-1.09232">
        <ele>7.2</ele>
        <time>2021-03-28T15:37:54Z</time>
      </trkpt>
      <trkpt lat="45.64995" lon="-1.09242">
        <ele>7.2</ele>
        <time>2021-03-28T15:38:03Z</time>
      </trkpt>
      <trkpt lat="45.64998" lon="-1.09252">
        <ele>7.3</ele>
        <time>2021-03-28T15:38:10Z</time>
      </trkpt>
      <trkpt lat="45.64999" lon="-1.09265">
        <ele>7.3</ele>
        <time>2021-03-28T15:38:18Z</time>
      </trkpt>
      <trkpt lat="45.65001" lon="-1.09275">
        <ele>7.4</ele>
        <time>2021-03-28T15:38:25Z</time>
      </trkpt>
      <trkpt lat="45.65002" lon="-1.09276">
        <ele>7.4</ele>
        <time>2021-03-28T15:38:26Z</time>
      </trkpt>
      <trkpt lat="45.65005" lon="-1.09276">
        <ele>7.6</ele>
        <time>2021-03-28T15:38:28Z</time>
      </trkpt>
      <trkpt lat="45.65019" lon="-1.09268">
        <ele>8</ele>
        <time>2021-03-28T15:38:41Z</time>
      </trkpt>
      <trkpt lat="45.65021" lon="-1.09267">
        <ele>8</ele>
        <time>2021-03-28T15:38:43Z</time>
      </trkpt>
      <trkpt lat="45.65023" lon="-1.09269">
        <ele>8</ele>
        <time>2021-03-28T15:38:48Z</time>
      </trkpt>
      <trkpt lat="45.65025" lon="-1.09269">
        <ele>8</ele>
        <time>2021-03-28T15:38:50Z</time>
      </trkpt>
      <trkpt lat="45.65025" lon="-1.09267">
        <ele>8</ele>
        <time>2021-03-28T15:38:52Z</time>
      </trkpt>
      <trkpt lat="45.65041" lon="-1.09266">
        <ele>7.7</ele>
        <time>2021-03-28T15:40:13Z</time>
      </trkpt>
      <trkpt lat="45.65056" lon="-1.09261">
        <ele>7.4</ele>
        <time>2021-03-28T15:40:26Z</time>
      </trkpt>
      <trkpt lat="45.65058" lon="-1.09259">
        <ele>7.3</ele>
        <time>2021-03-28T15:40:28Z</time>
      </trkpt>
      <trkpt lat="45.6506" lon="-1.09258">
        <ele>7.3</ele>
        <time>2021-03-28T15:40:30Z</time>
      </trkpt>
      <trkpt lat="45.65061" lon="-1.0926">
        <ele>7.1</ele>
        <time>2021-03-28T15:40:32Z</time>
      </trkpt>
      <trkpt lat="45.65062" lon="-1.09275">
        <ele>6.8</ele>
        <time>2021-03-28T15:40:42Z</time>
      </trkpt>
      <trkpt lat="45.65062" lon="-1.09282">
        <ele>6.8</ele>
        <time>2021-03-28T15:40:47Z</time>
      </trkpt>
      <trkpt lat="45.65064" lon="-1.09286">
        <ele>6.8</ele>
        <time>2021-03-28T15:40:50Z</time>
      </trkpt>
      <trkpt lat="45.65069" lon="-1.09302">
        <ele>6.8</ele>
        <time>2021-03-28T15:41:04Z</time>
      </trkpt>
      <trkpt lat="45.65069" lon="-1.09309">
        <ele>6.8</ele>
        <time>2021-03-28T15:41:08Z</time>
      </trkpt>
      <trkpt lat="45.65067" lon="-1.09332">
        <ele>6.8</ele>
        <time>2021-03-28T15:41:22Z</time>
      </trkpt>
      <trkpt lat="45.65067" lon="-1.09342">
        <ele>6.8</ele>
        <time>2021-03-28T15:41:28Z</time>
      </trkpt>
      <trkpt lat="45.65069" lon="-1.09351">
        <ele>6.9</ele>
        <time>2021-03-28T15:41:34Z</time>
      </trkpt>
      <trkpt lat="45.65077" lon="-1.09364">
        <ele>6.9</ele>
        <time>2021-03-28T15:41:48Z</time>
      </trkpt>
      <trkpt lat="45.65087" lon="-1.09376">
        <ele>7</ele>
        <time>2021-03-28T15:42:02Z</time>
      </trkpt>
      <trkpt lat="45.65095" lon="-1.09381">
        <ele>7</ele>
        <time>2021-03-28T15:42:12Z</time>
      </trkpt>
      <trkpt lat="45.65098" lon="-1.09384">
        <ele>7</ele>
        <time>2021-03-28T15:42:15Z</time>
      </trkpt>
      <trkpt lat="45.65101" lon="-1.09392">
        <ele>7</ele>
        <time>2021-03-28T15:42:22Z</time>
      </trkpt>
      <trkpt lat="45.65103" lon="-1.09406">
        <ele>7</ele>
        <time>2021-03-28T15:42:31Z</time>
      </trkpt>
      <trkpt lat="45.65101" lon="-1.09413">
        <ele>6.9</ele>
        <time>2021-03-28T15:42:37Z</time>
      </trkpt>
      <trkpt lat="45.65084" lon="-1.09454">
        <ele>6.8</ele>
        <time>2021-03-28T15:43:06Z</time>
      </trkpt>
      <trkpt lat="45.65074" lon="-1.09447">
        <ele>6.7</ele>
        <time>2021-03-28T15:43:15Z</time>
      </trkpt>
      <trkpt lat="45.65067" lon="-1.09444">
        <ele>6.7</ele>
        <time>2021-03-28T15:43:22Z</time>
      </trkpt>
      <trkpt lat="45.65058" lon="-1.09435">
        <ele>6.7</ele>
        <time>2021-03-28T15:43:31Z</time>
      </trkpt>
      <trkpt lat="45.65053" lon="-1.09422">
        <ele>6.8</ele>
        <time>2021-03-28T15:43:40Z</time>
      </trkpt>
      <trkpt lat="45.65054" lon="-1.09424">
        <ele>6.8</ele>
        <time>2021-03-28T15:43:44Z</time>
      </trkpt>
      <trkpt lat="45.65053" lon="-1.09421">
        <ele>6.8</ele>
        <time>2021-03-28T15:43:49Z</time>
      </trkpt>
      <trkpt lat="45.65052" lon="-1.09418">
        <ele>6.8</ele>
        <time>2021-03-28T15:43:51Z</time>
      </trkpt>
      <trkpt lat="45.65047" lon="-1.09414">
        <ele>6.9</ele>
        <time>2021-03-28T15:43:56Z</time>
      </trkpt>
      <trkpt lat="45.6504" lon="-1.09412">
        <ele>6.9</ele>
        <time>2021-03-28T15:44:01Z</time>
      </trkpt>
      <trkpt lat="45.65031" lon="-1.09402">
        <ele>6.9</ele>
        <time>2021-03-28T15:44:11Z</time>
      </trkpt>
      <trkpt lat="45.65021" lon="-1.09402">
        <ele>6.9</ele>
        <time>2021-03-28T15:44:22Z</time>
      </trkpt>
      <trkpt lat="45.65014" lon="-1.09398">
        <ele>6.9</ele>
        <time>2021-03-28T15:44:29Z</time>
      </trkpt>
      <trkpt lat="45.65008" lon="-1.0939">
        <ele>7</ele>
        <time>2021-03-28T15:44:36Z</time>
      </trkpt>
      <trkpt lat="45.65007" lon="-1.09389">
        <ele>7</ele>
        <time>2021-03-28T15:44:38Z</time>
      </trkpt>
      <trkpt lat="45.65005" lon="-1.09389">
        <ele>7</ele>
        <time>2021-03-28T15:44:40Z</time>
      </trkpt>
      <trkpt lat="45.65001" lon="-1.09404">
        <ele>7.1</ele>
        <time>2021-03-28T15:44:50Z</time>
      </trkpt>
      <trkpt lat="45.65004" lon="-1.09399">
        <ele>7.2</ele>
        <time>2021-03-28T15:45:10Z</time>
      </trkpt>
      <trkpt lat="45.65006" lon="-1.09388">
        <ele>7.2</ele>
        <time>2021-03-28T15:45:16Z</time>
      </trkpt>
      <trkpt lat="45.6501" lon="-1.09387">
        <ele>7.2</ele>
        <time>2021-03-28T15:45:19Z</time>
      </trkpt>
      <trkpt lat="45.65012" lon="-1.0939">
        <ele>7.1</ele>
        <time>2021-03-28T15:45:21Z</time>
      </trkpt>
      <trkpt lat="45.65016" lon="-1.09398">
        <ele>7.1</ele>
        <time>2021-03-28T15:45:27Z</time>
      </trkpt>
      <trkpt lat="45.65019" lon="-1.09401">
        <ele>7</ele>
        <time>2021-03-28T15:45:30Z</time>
      </trkpt>
      <trkpt lat="45.65023" lon="-1.09403">
        <ele>6.9</ele>
        <time>2021-03-28T15:45:34Z</time>
      </trkpt>
      <trkpt lat="45.65031" lon="-1.094">
        <ele>6.9</ele>
        <time>2021-03-28T15:45:40Z</time>
      </trkpt>
      <trkpt lat="45.65036" lon="-1.09401">
        <ele>6.9</ele>
        <time>2021-03-28T15:45:44Z</time>
      </trkpt>
      <trkpt lat="45.65056" lon="-1.09424">
        <ele>6.8</ele>
        <time>2021-03-28T15:46:03Z</time>
      </trkpt>
      <trkpt lat="45.65061" lon="-1.09435">
        <ele>6.8</ele>
        <time>2021-03-28T15:46:10Z</time>
      </trkpt>
      <trkpt lat="45.65063" lon="-1.0944">
        <ele>6.7</ele>
        <time>2021-03-28T15:46:14Z</time>
      </trkpt>
      <trkpt lat="45.65066" lon="-1.09447">
        <ele>6.7</ele>
        <time>2021-03-28T15:46:18Z</time>
      </trkpt>
      <trkpt lat="45.65071" lon="-1.0945">
        <ele>6.7</ele>
        <time>2021-03-28T15:46:24Z</time>
      </trkpt>
      <trkpt lat="45.65075" lon="-1.0945">
        <ele>6.7</ele>
        <time>2021-03-28T15:46:27Z</time>
      </trkpt>
      <trkpt lat="45.65085" lon="-1.09455">
        <ele>6.8</ele>
        <time>2021-03-28T15:46:37Z</time>
      </trkpt>
      <trkpt lat="45.65087" lon="-1.09452">
        <ele>6.8</ele>
        <time>2021-03-28T15:46:39Z</time>
      </trkpt>
      <trkpt lat="45.65089" lon="-1.09449">
        <ele>6.8</ele>
        <time>2021-03-28T15:46:41Z</time>
      </trkpt>
      <trkpt lat="45.65092" lon="-1.09432">
        <ele>6.9</ele>
        <time>2021-03-28T15:46:51Z</time>
      </trkpt>
      <trkpt lat="45.65099" lon="-1.09417">
        <ele>6.9</ele>
        <time>2021-03-28T15:47:02Z</time>
      </trkpt>
      <trkpt lat="45.651" lon="-1.09411">
        <ele>7.1</ele>
        <time>2021-03-28T15:47:05Z</time>
      </trkpt>
      <trkpt lat="45.65102" lon="-1.09408">
        <ele>7.2</ele>
        <time>2021-03-28T15:47:08Z</time>
      </trkpt>
      <trkpt lat="45.65105" lon="-1.09407">
        <ele>7.4</ele>
        <time>2021-03-28T15:47:10Z</time>
      </trkpt>
      <trkpt lat="45.65113" lon="-1.09407">
        <ele>7.8</ele>
        <time>2021-03-28T15:47:15Z</time>
      </trkpt>
      <trkpt lat="45.65117" lon="-1.09405">
        <ele>8.1</ele>
        <time>2021-03-28T15:47:19Z</time>
      </trkpt>
      <trkpt lat="45.65121" lon="-1.094">
        <ele>8.5</ele>
        <time>2021-03-28T15:47:24Z</time>
      </trkpt>
      <trkpt lat="45.6513" lon="-1.09395">
        <ele>9.2</ele>
        <time>2021-03-28T15:47:34Z</time>
      </trkpt>
      <trkpt lat="45.65132" lon="-1.09402">
        <ele>9.4</ele>
        <time>2021-03-28T15:47:38Z</time>
      </trkpt>
      <trkpt lat="45.65133" lon="-1.09406">
        <ele>9.4</ele>
        <time>2021-03-28T15:47:40Z</time>
      </trkpt>
      <trkpt lat="45.65138" lon="-1.09413">
        <ele>9.5</ele>
        <time>2021-03-28T15:47:46Z</time>
      </trkpt>
      <trkpt lat="45.65149" lon="-1.09422">
        <ele>9.5</ele>
        <time>2021-03-28T15:47:57Z</time>
      </trkpt>
      <trkpt lat="45.65155" lon="-1.0943">
        <ele>9.6</ele>
        <time>2021-03-28T15:48:04Z</time>
      </trkpt>
      <trkpt lat="45.65173" lon="-1.0945">
        <ele>9.1</ele>
        <time>2021-03-28T15:48:24Z</time>
      </trkpt>
      <trkpt lat="45.65181" lon="-1.09466">
        <ele>8.5</ele>
        <time>2021-03-28T15:48:35Z</time>
      </trkpt>
      <trkpt lat="45.65186" lon="-1.09473">
        <ele>8.2</ele>
        <time>2021-03-28T15:48:41Z</time>
      </trkpt>
      <trkpt lat="45.65188" lon="-1.09483">
        <ele>8.1</ele>
        <time>2021-03-28T15:48:48Z</time>
      </trkpt>
      <trkpt lat="45.65189" lon="-1.09492">
        <ele>8</ele>
        <time>2021-03-28T15:48:52Z</time>
      </trkpt>
      <trkpt lat="45.65191" lon="-1.09502">
        <ele>8</ele>
        <time>2021-03-28T15:48:58Z</time>
      </trkpt>
      <trkpt lat="45.65192" lon="-1.09502">
        <ele>8.1</ele>
        <time>2021-03-28T15:48:59Z</time>
      </trkpt>
      <trkpt lat="45.65193" lon="-1.09497">
        <ele>8.1</ele>
        <time>2021-03-28T15:49:04Z</time>
      </trkpt>
      <trkpt lat="45.652" lon="-1.0949">
        <ele>8.3</ele>
        <time>2021-03-28T15:49:09Z</time>
      </trkpt>
      <trkpt lat="45.65213" lon="-1.09481">
        <ele>8.8</ele>
        <time>2021-03-28T15:49:21Z</time>
      </trkpt>
      <trkpt lat="45.65217" lon="-1.09481">
        <ele>8.9</ele>
        <time>2021-03-28T15:49:24Z</time>
      </trkpt>
      <trkpt lat="45.6523" lon="-1.09471">
        <ele>9.4</ele>
        <time>2021-03-28T15:49:41Z</time>
      </trkpt>
      <trkpt lat="45.6524" lon="-1.09467">
        <ele>9.8</ele>
        <time>2021-03-28T15:49:51Z</time>
      </trkpt>
      <trkpt lat="45.65248" lon="-1.09461">
        <ele>10.1</ele>
        <time>2021-03-28T15:49:59Z</time>
      </trkpt>
      <trkpt lat="45.65256" lon="-1.09458">
        <ele>10.3</ele>
        <time>2021-03-28T15:50:06Z</time>
      </trkpt>
      <trkpt lat="45.6526" lon="-1.09453">
        <ele>10.5</ele>
        <time>2021-03-28T15:50:13Z</time>
      </trkpt>
      <trkpt lat="45.65267" lon="-1.09449">
        <ele>10.8</ele>
        <time>2021-03-28T15:50:19Z</time>
      </trkpt>
      <trkpt lat="45.65275" lon="-1.09443">
        <ele>11.1</ele>
        <time>2021-03-28T15:50:26Z</time>
      </trkpt>
      <trkpt lat="45.65279" lon="-1.09438">
        <ele>11.2</ele>
        <time>2021-03-28T15:50:29Z</time>
      </trkpt>
      <trkpt lat="45.65284" lon="-1.09435">
        <ele>11.4</ele>
        <time>2021-03-28T15:50:34Z</time>
      </trkpt>
      <trkpt lat="45.65285" lon="-1.09432">
        <ele>11.5</ele>
        <time>2021-03-28T15:50:36Z</time>
      </trkpt>
      <trkpt lat="45.65285" lon="-1.09424">
        <ele>11.7</ele>
        <time>2021-03-28T15:50:41Z</time>
      </trkpt>
      <trkpt lat="45.6528" lon="-1.09411">
        <ele>12.1</ele>
        <time>2021-03-28T15:50:49Z</time>
      </trkpt>
      <trkpt lat="45.6528" lon="-1.09406">
        <ele>12.1</ele>
        <time>2021-03-28T15:50:52Z</time>
      </trkpt>
      <trkpt lat="45.65281" lon="-1.09404">
        <ele>12.2</ele>
        <time>2021-03-28T15:50:53Z</time>
      </trkpt>
      <trkpt lat="45.65285" lon="-1.09402">
        <ele>12.2</ele>
        <time>2021-03-28T15:50:57Z</time>
      </trkpt>
      <trkpt lat="45.65293" lon="-1.09403">
        <ele>12.1</ele>
        <time>2021-03-28T15:51:02Z</time>
      </trkpt>
      <trkpt lat="45.65302" lon="-1.09396">
        <ele>12</ele>
        <time>2021-03-28T15:51:10Z</time>
      </trkpt>
      <trkpt lat="45.65306" lon="-1.09395">
        <ele>11.9</ele>
        <time>2021-03-28T15:51:14Z</time>
      </trkpt>
      <trkpt lat="45.65313" lon="-1.09397">
        <ele>11.7</ele>
        <time>2021-03-28T15:51:22Z</time>
      </trkpt>
      <trkpt lat="45.65316" lon="-1.09411">
        <ele>11.6</ele>
        <time>2021-03-28T15:51:31Z</time>
      </trkpt>
      <trkpt lat="45.6532" lon="-1.09424">
        <ele>11.5</ele>
        <time>2021-03-28T15:51:41Z</time>
      </trkpt>
      <trkpt lat="45.65322" lon="-1.09423">
        <ele>11.5</ele>
        <time>2021-03-28T15:51:48Z</time>
      </trkpt>
      <trkpt lat="45.65323" lon="-1.09424">
        <ele>11.5</ele>
        <time>2021-03-28T15:52:00Z</time>
      </trkpt>
      <trkpt lat="45.65321" lon="-1.09423">
        <ele>11.5</ele>
        <time>2021-03-28T15:52:05Z</time>
      </trkpt>
      <trkpt lat="45.65323" lon="-1.09425">
        <ele>11.5</ele>
        <time>2021-03-28T15:52:10Z</time>
      </trkpt>
      <trkpt lat="45.65326" lon="-1.09441">
        <ele>11.2</ele>
        <time>2021-03-28T15:52:22Z</time>
      </trkpt>
      <trkpt lat="45.65324" lon="-1.09446">
        <ele>11.1</ele>
        <time>2021-03-28T15:52:24Z</time>
      </trkpt>
      <trkpt lat="45.65324" lon="-1.09458">
        <ele>10.8</ele>
        <time>2021-03-28T15:52:32Z</time>
      </trkpt>
      <trkpt lat="45.65327" lon="-1.09457">
        <ele>10.7</ele>
        <time>2021-03-28T15:52:50Z</time>
      </trkpt>
      <trkpt lat="45.65324" lon="-1.09458">
        <ele>10.6</ele>
        <time>2021-03-28T15:52:55Z</time>
      </trkpt>
      <trkpt lat="45.65325" lon="-1.09459">
        <ele>10.6</ele>
        <time>2021-03-28T15:52:56Z</time>
      </trkpt>
      <trkpt lat="45.65326" lon="-1.09459">
        <ele>10.6</ele>
        <time>2021-03-28T15:52:58Z</time>
      </trkpt>
      <trkpt lat="45.65327" lon="-1.09477">
        <ele>10.2</ele>
        <time>2021-03-28T15:53:07Z</time>
      </trkpt>
      <trkpt lat="45.65327" lon="-1.09476">
        <ele>10.2</ele>
        <time>2021-03-28T15:53:12Z</time>
      </trkpt>
      <trkpt lat="45.65333" lon="-1.09489">
        <ele>10.5</ele>
        <time>2021-03-28T15:53:24Z</time>
      </trkpt>
      <trkpt lat="45.65338" lon="-1.09492">
        <ele>10.7</ele>
        <time>2021-03-28T15:53:30Z</time>
      </trkpt>
      <trkpt lat="45.65342" lon="-1.09496">
        <ele>11</ele>
        <time>2021-03-28T15:53:34Z</time>
      </trkpt>
      <trkpt lat="45.65345" lon="-1.09502">
        <ele>11.2</ele>
        <time>2021-03-28T15:53:39Z</time>
      </trkpt>
      <trkpt lat="45.65346" lon="-1.09502">
        <ele>11.2</ele>
        <time>2021-03-28T15:53:40Z</time>
      </trkpt>
      <trkpt lat="45.65349" lon="-1.09507">
        <ele>11.5</ele>
        <time>2021-03-28T15:53:44Z</time>
      </trkpt>
      <trkpt lat="45.65351" lon="-1.09504">
        <ele>11.6</ele>
        <time>2021-03-28T15:53:45Z</time>
      </trkpt>
      <trkpt lat="45.65355" lon="-1.09508">
        <ele>11.9</ele>
        <time>2021-03-28T15:53:49Z</time>
      </trkpt>
      <trkpt lat="45.65356" lon="-1.09508">
        <ele>11.9</ele>
        <time>2021-03-28T15:53:50Z</time>
      </trkpt>
      <trkpt lat="45.65358" lon="-1.09511">
        <ele>12.1</ele>
        <time>2021-03-28T15:53:53Z</time>
      </trkpt>
      <trkpt lat="45.65365" lon="-1.09514">
        <ele>12.5</ele>
        <time>2021-03-28T15:54:00Z</time>
      </trkpt>
      <trkpt lat="45.65373" lon="-1.09522">
        <ele>12.9</ele>
        <time>2021-03-28T15:54:09Z</time>
      </trkpt>
      <trkpt lat="45.65376" lon="-1.0953">
        <ele>13.3</ele>
        <time>2021-03-28T15:54:15Z</time>
      </trkpt>
      <trkpt lat="45.65385" lon="-1.09541">
        <ele>13.8</ele>
        <time>2021-03-28T15:54:24Z</time>
      </trkpt>
      <trkpt lat="45.65386" lon="-1.09541">
        <ele>13.9</ele>
        <time>2021-03-28T15:54:25Z</time>
      </trkpt>
      <trkpt lat="45.65389" lon="-1.09543">
        <ele>14.1</ele>
        <time>2021-03-28T15:54:28Z</time>
      </trkpt>
      <trkpt lat="45.65398" lon="-1.09546">
        <ele>14.7</ele>
        <time>2021-03-28T15:54:35Z</time>
      </trkpt>
      <trkpt lat="45.65427" lon="-1.09577">
        <ele>16.4</ele>
        <time>2021-03-28T15:55:06Z</time>
      </trkpt>
      <trkpt lat="45.65434" lon="-1.09586">
        <ele>16.5</ele>
        <time>2021-03-28T15:55:15Z</time>
      </trkpt>
      <trkpt lat="45.65439" lon="-1.0959">
        <ele>16.6</ele>
        <time>2021-03-28T15:55:20Z</time>
      </trkpt>
      <trkpt lat="45.65442" lon="-1.09594">
        <ele>16.7</ele>
        <time>2021-03-28T15:55:24Z</time>
      </trkpt>
      <trkpt lat="45.65454" lon="-1.09619">
        <ele>17.4</ele>
        <time>2021-03-28T15:55:39Z</time>
      </trkpt>
      <trkpt lat="45.65466" lon="-1.09635">
        <ele>18.2</ele>
        <time>2021-03-28T15:55:52Z</time>
      </trkpt>
      <trkpt lat="45.65472" lon="-1.09641">
        <ele>18.4</ele>
        <time>2021-03-28T15:55:59Z</time>
      </trkpt>
      <trkpt lat="45.65474" lon="-1.0965">
        <ele>18.7</ele>
        <time>2021-03-28T15:56:03Z</time>
      </trkpt>
      <trkpt lat="45.65476" lon="-1.09661">
        <ele>18.6</ele>
        <time>2021-03-28T15:56:08Z</time>
      </trkpt>
      <trkpt lat="45.65477" lon="-1.09664">
        <ele>18.5</ele>
        <time>2021-03-28T15:56:10Z</time>
      </trkpt>
      <trkpt lat="45.65481" lon="-1.09669">
        <ele>18.4</ele>
        <time>2021-03-28T15:56:15Z</time>
      </trkpt>
      <trkpt lat="45.65483" lon="-1.0967">
        <ele>18.3</ele>
        <time>2021-03-28T15:56:18Z</time>
      </trkpt>
      <trkpt lat="45.65486" lon="-1.0967">
        <ele>18.2</ele>
        <time>2021-03-28T15:56:21Z</time>
      </trkpt>
      <trkpt lat="45.65501" lon="-1.09675">
        <ele>17.5</ele>
        <time>2021-03-28T15:56:31Z</time>
      </trkpt>
      <trkpt lat="45.65505" lon="-1.09675">
        <ele>17.3</ele>
        <time>2021-03-28T15:56:35Z</time>
      </trkpt>
      <trkpt lat="45.6551" lon="-1.09671">
        <ele>17.1</ele>
        <time>2021-03-28T15:56:41Z</time>
      </trkpt>
      <trkpt lat="45.65512" lon="-1.09665">
        <ele>16.9</ele>
        <time>2021-03-28T15:56:45Z</time>
      </trkpt>
      <trkpt lat="45.65515" lon="-1.09664">
        <ele>16.9</ele>
        <time>2021-03-28T15:56:49Z</time>
      </trkpt>
      <trkpt lat="45.6552" lon="-1.09668">
        <ele>16.7</ele>
        <time>2021-03-28T15:56:56Z</time>
      </trkpt>
      <trkpt lat="45.65526" lon="-1.09668">
        <ele>16.7</ele>
        <time>2021-03-28T15:57:01Z</time>
      </trkpt>
      <trkpt lat="45.65532" lon="-1.0967">
        <ele>16.6</ele>
        <time>2021-03-28T15:57:09Z</time>
      </trkpt>
      <trkpt lat="45.6554" lon="-1.09678">
        <ele>23.1</ele>
        <time>2021-03-28T15:57:17Z</time>
      </trkpt>
      <trkpt lat="45.65542" lon="-1.09687">
        <ele>23.3</ele>
        <time>2021-03-28T15:57:22Z</time>
      </trkpt>
      <trkpt lat="45.65545" lon="-1.09692">
        <ele>23.4</ele>
        <time>2021-03-28T15:57:26Z</time>
      </trkpt>
      <trkpt lat="45.65545" lon="-1.09702">
        <ele>23.6</ele>
        <time>2021-03-28T15:57:34Z</time>
      </trkpt>
      <trkpt lat="45.6555" lon="-1.09709">
        <ele>23.7</ele>
        <time>2021-03-28T15:57:40Z</time>
      </trkpt>
      <trkpt lat="45.65553" lon="-1.0971">
        <ele>23.6</ele>
        <time>2021-03-28T15:57:44Z</time>
      </trkpt>
      <trkpt lat="45.65562" lon="-1.09708">
        <ele>23.3</ele>
        <time>2021-03-28T15:57:53Z</time>
      </trkpt>
      <trkpt lat="45.6558" lon="-1.09709">
        <ele>22.8</ele>
        <time>2021-03-28T15:58:11Z</time>
      </trkpt>
      <trkpt lat="45.65589" lon="-1.09716">
        <ele>22.6</ele>
        <time>2021-03-28T15:58:20Z</time>
      </trkpt>
      <trkpt lat="45.65597" lon="-1.09717">
        <ele>22.4</ele>
        <time>2021-03-28T15:58:27Z</time>
      </trkpt>
      <trkpt lat="45.65604" lon="-1.0972">
        <ele>22.2</ele>
        <time>2021-03-28T15:58:31Z</time>
      </trkpt>
      <trkpt lat="45.65608" lon="-1.0972">
        <ele>22.1</ele>
        <time>2021-03-28T15:58:34Z</time>
      </trkpt>
      <trkpt lat="45.6562" lon="-1.09718">
        <ele>21.8</ele>
        <time>2021-03-28T15:58:42Z</time>
      </trkpt>
      <trkpt lat="45.65626" lon="-1.09719">
        <ele>21.8</ele>
        <time>2021-03-28T15:58:51Z</time>
      </trkpt>
      <trkpt lat="45.65625" lon="-1.09719">
        <ele>21.8</ele>
        <time>2021-03-28T15:58:57Z</time>
      </trkpt>
      <trkpt lat="45.65625" lon="-1.09719">
        <ele>21.8</ele>
        <time>2021-03-28T15:59:00Z</time>
      </trkpt>
      <trkpt lat="45.65632" lon="-1.0971">
        <ele>21.7</ele>
        <time>2021-03-28T15:59:13Z</time>
      </trkpt>
      <trkpt lat="45.65647" lon="-1.09704">
        <ele>21.7</ele>
        <time>2021-03-28T15:59:27Z</time>
      </trkpt>
      <trkpt lat="45.65655" lon="-1.09696">
        <ele>21.6</ele>
        <time>2021-03-28T15:59:37Z</time>
      </trkpt>
      <trkpt lat="45.65673" lon="-1.09686">
        <ele>21.5</ele>
        <time>2021-03-28T15:59:52Z</time>
      </trkpt>
      <trkpt lat="45.65678" lon="-1.09682">
        <ele>21.5</ele>
        <time>2021-03-28T15:59:59Z</time>
      </trkpt>
      <trkpt lat="45.65682" lon="-1.09681">
        <ele>21.5</ele>
        <time>2021-03-28T16:00:02Z</time>
      </trkpt>
      <trkpt lat="45.65687" lon="-1.09677">
        <ele>21.5</ele>
        <time>2021-03-28T16:00:07Z</time>
      </trkpt>
      <trkpt lat="45.65689" lon="-1.09675">
        <ele>21.5</ele>
        <time>2021-03-28T16:00:08Z</time>
      </trkpt>
      <trkpt lat="45.65703" lon="-1.09666">
        <ele>21.5</ele>
        <time>2021-03-28T16:00:22Z</time>
      </trkpt>
      <trkpt lat="45.65711" lon="-1.09658">
        <ele>21.6</ele>
        <time>2021-03-28T16:00:31Z</time>
      </trkpt>
      <trkpt lat="45.65712" lon="-1.09656">
        <ele>21.6</ele>
        <time>2021-03-28T16:00:33Z</time>
      </trkpt>
      <trkpt lat="45.65713" lon="-1.09656">
        <ele>21.7</ele>
        <time>2021-03-28T16:00:36Z</time>
      </trkpt>
      <trkpt lat="45.65713" lon="-1.09659">
        <ele>21.7</ele>
        <time>2021-03-28T16:01:52Z</time>
      </trkpt>
      <trkpt lat="45.65715" lon="-1.0966">
        <ele>21.8</ele>
        <time>2021-03-28T16:01:56Z</time>
      </trkpt>
      <trkpt lat="45.6572" lon="-1.09656">
        <ele>21.8</ele>
        <time>2021-03-28T16:02:02Z</time>
      </trkpt>
      <trkpt lat="45.65722" lon="-1.09651">
        <ele>21.9</ele>
        <time>2021-03-28T16:02:05Z</time>
      </trkpt>
      <trkpt lat="45.65728" lon="-1.09645">
        <ele>22</ele>
        <time>2021-03-28T16:02:14Z</time>
      </trkpt>
      <trkpt lat="45.65743" lon="-1.09634">
        <ele>22.5</ele>
        <time>2021-03-28T16:02:27Z</time>
      </trkpt>
      <trkpt lat="45.65783" lon="-1.09629">
        <ele>24</ele>
        <time>2021-03-28T16:03:03Z</time>
      </trkpt>
      <trkpt lat="45.65789" lon="-1.09627">
        <ele>24.3</ele>
        <time>2021-03-28T16:03:10Z</time>
      </trkpt>
      <trkpt lat="45.65795" lon="-1.09627">
        <ele>24.5</ele>
        <time>2021-03-28T16:03:15Z</time>
      </trkpt>
      <trkpt lat="45.6581" lon="-1.09624">
        <ele>25.2</ele>
        <time>2021-03-28T16:03:29Z</time>
      </trkpt>
      <trkpt lat="45.65834" lon="-1.09627">
        <ele>26.2</ele>
        <time>2021-03-28T16:03:51Z</time>
      </trkpt>
      <trkpt lat="45.65856" lon="-1.09625">
        <ele>26.9</ele>
        <time>2021-03-28T16:04:09Z</time>
      </trkpt>
      <trkpt lat="45.65869" lon="-1.0963">
        <ele>27.3</ele>
        <time>2021-03-28T16:04:21Z</time>
      </trkpt>
      <trkpt lat="45.65883" lon="-1.09632">
        <ele>27.5</ele>
        <time>2021-03-28T16:04:33Z</time>
      </trkpt>
      <trkpt lat="45.65896" lon="-1.09631">
        <ele>27.7</ele>
        <time>2021-03-28T16:04:46Z</time>
      </trkpt>
      <trkpt lat="45.6591" lon="-1.09632">
        <ele>27.9</ele>
        <time>2021-03-28T16:04:59Z</time>
      </trkpt>
      <trkpt lat="45.6592" lon="-1.09628">
        <ele>28</ele>
        <time>2021-03-28T16:05:12Z</time>
      </trkpt>
      <trkpt lat="45.65924" lon="-1.09629">
        <ele>28</ele>
        <time>2021-03-28T16:05:17Z</time>
      </trkpt>
      <trkpt lat="45.65929" lon="-1.09632">
        <ele>28.1</ele>
        <time>2021-03-28T16:05:23Z</time>
      </trkpt>
      <trkpt lat="45.65933" lon="-1.09633">
        <ele>28.1</ele>
        <time>2021-03-28T16:05:25Z</time>
      </trkpt>
      <trkpt lat="45.65938" lon="-1.09637">
        <ele>28.1</ele>
        <time>2021-03-28T16:05:30Z</time>
      </trkpt>
      <trkpt lat="45.65949" lon="-1.09651">
        <ele>27.9</ele>
        <time>2021-03-28T16:05:41Z</time>
      </trkpt>
      <trkpt lat="45.6595" lon="-1.09656">
        <ele>27.9</ele>
        <time>2021-03-28T16:05:45Z</time>
      </trkpt>
      <trkpt lat="45.65951" lon="-1.09667">
        <ele>27.8</ele>
        <time>2021-03-28T16:05:53Z</time>
      </trkpt>
      <trkpt lat="45.65961" lon="-1.09685">
        <ele>27.9</ele>
        <time>2021-03-28T16:06:05Z</time>
      </trkpt>
      <trkpt lat="45.65967" lon="-1.09689">
        <ele>28</ele>
        <time>2021-03-28T16:06:09Z</time>
      </trkpt>
      <trkpt lat="45.65983" lon="-1.09704">
        <ele>28.4</ele>
        <time>2021-03-28T16:06:26Z</time>
      </trkpt>
      <trkpt lat="45.65988" lon="-1.09706">
        <ele>28.5</ele>
        <time>2021-03-28T16:06:30Z</time>
      </trkpt>
      <trkpt lat="45.6599" lon="-1.09709">
        <ele>28.6</ele>
        <time>2021-03-28T16:06:32Z</time>
      </trkpt>
      <trkpt lat="45.65993" lon="-1.09717">
        <ele>28.7</ele>
        <time>2021-03-28T16:06:37Z</time>
      </trkpt>
      <trkpt lat="45.65995" lon="-1.09729">
        <ele>28.8</ele>
        <time>2021-03-28T16:06:45Z</time>
      </trkpt>
      <trkpt lat="45.66018" lon="-1.09744">
        <ele>28.6</ele>
        <time>2021-03-28T16:07:07Z</time>
      </trkpt>
      <trkpt lat="45.66029" lon="-1.09747">
        <ele>28.5</ele>
        <time>2021-03-28T16:07:16Z</time>
      </trkpt>
      <trkpt lat="45.66042" lon="-1.09746">
        <ele>28.3</ele>
        <time>2021-03-28T16:07:24Z</time>
      </trkpt>
      <trkpt lat="45.66064" lon="-1.09759">
        <ele>27.8</ele>
        <time>2021-03-28T16:07:49Z</time>
      </trkpt>
      <trkpt lat="45.66072" lon="-1.09767">
        <ele>27.5</ele>
        <time>2021-03-28T16:07:55Z</time>
      </trkpt>
      <trkpt lat="45.66076" lon="-1.09768">
        <ele>27.5</ele>
        <time>2021-03-28T16:07:59Z</time>
      </trkpt>
      <trkpt lat="45.66085" lon="-1.09767">
        <ele>28</ele>
        <time>2021-03-28T16:08:05Z</time>
      </trkpt>
      <trkpt lat="45.66091" lon="-1.09773">
        <ele>28.8</ele>
        <time>2021-03-28T16:08:10Z</time>
      </trkpt>
      <trkpt lat="45.66105" lon="-1.09782">
        <ele>30.6</ele>
        <time>2021-03-28T16:08:26Z</time>
      </trkpt>
      <trkpt lat="45.66114" lon="-1.0979">
        <ele>31.8</ele>
        <time>2021-03-28T16:08:35Z</time>
      </trkpt>
      <trkpt lat="45.66131" lon="-1.09797">
        <ele>33.7</ele>
        <time>2021-03-28T16:08:50Z</time>
      </trkpt>
      <trkpt lat="45.6615" lon="-1.09808">
        <ele>32.9</ele>
        <time>2021-03-28T16:09:10Z</time>
      </trkpt>
      <trkpt lat="45.66154" lon="-1.09811">
        <ele>32.7</ele>
        <time>2021-03-28T16:09:14Z</time>
      </trkpt>
      <trkpt lat="45.6617" lon="-1.09817">
        <ele>32</ele>
        <time>2021-03-28T16:09:29Z</time>
      </trkpt>
      <trkpt lat="45.66178" lon="-1.09815">
        <ele>31.7</ele>
        <time>2021-03-28T16:09:34Z</time>
      </trkpt>
      <trkpt lat="45.66187" lon="-1.09815">
        <ele>31.5</ele>
        <time>2021-03-28T16:09:43Z</time>
      </trkpt>
      <trkpt lat="45.66201" lon="-1.09822">
        <ele>31</ele>
        <time>2021-03-28T16:09:55Z</time>
      </trkpt>
      <trkpt lat="45.66213" lon="-1.09836">
        <ele>30.6</ele>
        <time>2021-03-28T16:10:06Z</time>
      </trkpt>
      <trkpt lat="45.6622" lon="-1.09841">
        <ele>30.5</ele>
        <time>2021-03-28T16:10:14Z</time>
      </trkpt>
      <trkpt lat="45.66223" lon="-1.09845">
        <ele>30.4</ele>
        <time>2021-03-28T16:10:18Z</time>
      </trkpt>
      <trkpt lat="45.66233" lon="-1.09867">
        <ele>30.3</ele>
        <time>2021-03-28T16:10:32Z</time>
      </trkpt>
      <trkpt lat="45.66235" lon="-1.09877">
        <ele>30.2</ele>
        <time>2021-03-28T16:10:37Z</time>
      </trkpt>
      <trkpt lat="45.66238" lon="-1.09881">
        <ele>30.2</ele>
        <time>2021-03-28T16:10:40Z</time>
      </trkpt>
      <trkpt lat="45.66243" lon="-1.09884">
        <ele>30.2</ele>
        <time>2021-03-28T16:10:46Z</time>
      </trkpt>
      <trkpt lat="45.66265" lon="-1.09912">
        <ele>30.5</ele>
        <time>2021-03-28T16:11:11Z</time>
      </trkpt>
      <trkpt lat="45.66268" lon="-1.09914">
        <ele>30.5</ele>
        <time>2021-03-28T16:11:14Z</time>
      </trkpt>
      <trkpt lat="45.66274" lon="-1.0992">
        <ele>30.5</ele>
        <time>2021-03-28T16:11:21Z</time>
      </trkpt>
      <trkpt lat="45.66277" lon="-1.09919">
        <ele>30.5</ele>
        <time>2021-03-28T16:11:24Z</time>
      </trkpt>
      <trkpt lat="45.66298" lon="-1.09931">
        <ele>30.3</ele>
        <time>2021-03-28T16:11:46Z</time>
      </trkpt>
      <trkpt lat="45.66311" lon="-1.0993">
        <ele>30</ele>
        <time>2021-03-28T16:11:55Z</time>
      </trkpt>
      <trkpt lat="45.66318" lon="-1.09932">
        <ele>29.9</ele>
        <time>2021-03-28T16:12:01Z</time>
      </trkpt>
      <trkpt lat="45.6633" lon="-1.09927">
        <ele>29.8</ele>
        <time>2021-03-28T16:12:12Z</time>
      </trkpt>
      <trkpt lat="45.6634" lon="-1.09929">
        <ele>29.8</ele>
        <time>2021-03-28T16:12:23Z</time>
      </trkpt>
      <trkpt lat="45.66352" lon="-1.09926">
        <ele>29.8</ele>
        <time>2021-03-28T16:12:32Z</time>
      </trkpt>
      <trkpt lat="45.6638" lon="-1.09921">
        <ele>29.9</ele>
        <time>2021-03-28T16:12:56Z</time>
      </trkpt>
      <trkpt lat="45.66398" lon="-1.09912">
        <ele>30.4</ele>
        <time>2021-03-28T16:13:18Z</time>
      </trkpt>
      <trkpt lat="45.66404" lon="-1.09913">
        <ele>30.6</ele>
        <time>2021-03-28T16:13:26Z</time>
      </trkpt>
      <trkpt lat="45.66422" lon="-1.09905">
        <ele>31.1</ele>
        <time>2021-03-28T16:13:40Z</time>
      </trkpt>
      <trkpt lat="45.66444" lon="-1.099">
        <ele>30.4</ele>
        <time>2021-03-28T16:14:00Z</time>
      </trkpt>
      <trkpt lat="45.6645" lon="-1.09895">
        <ele>30</ele>
        <time>2021-03-28T16:14:07Z</time>
      </trkpt>
      <trkpt lat="45.66454" lon="-1.09893">
        <ele>29.8</ele>
        <time>2021-03-28T16:14:11Z</time>
      </trkpt>
      <trkpt lat="45.66457" lon="-1.09894">
        <ele>29.6</ele>
        <time>2021-03-28T16:14:14Z</time>
      </trkpt>
      <trkpt lat="45.66462" lon="-1.09889">
        <ele>29.2</ele>
        <time>2021-03-28T16:14:20Z</time>
      </trkpt>
      <trkpt lat="45.66478" lon="-1.09884">
        <ele>28.1</ele>
        <time>2021-03-28T16:14:33Z</time>
      </trkpt>
      <trkpt lat="45.66492" lon="-1.09887">
        <ele>28</ele>
        <time>2021-03-28T16:14:45Z</time>
      </trkpt>
      <trkpt lat="45.66495" lon="-1.09891">
        <ele>28</ele>
        <time>2021-03-28T16:14:48Z</time>
      </trkpt>
      <trkpt lat="45.66502" lon="-1.09901">
        <ele>28</ele>
        <time>2021-03-28T16:14:57Z</time>
      </trkpt>
      <trkpt lat="45.66511" lon="-1.09908">
        <ele>28</ele>
        <time>2021-03-28T16:15:05Z</time>
      </trkpt>
      <trkpt lat="45.6652" lon="-1.09911">
        <ele>28.1</ele>
        <time>2021-03-28T16:15:12Z</time>
      </trkpt>
      <trkpt lat="45.66534" lon="-1.09923">
        <ele>28.3</ele>
        <time>2021-03-28T16:15:26Z</time>
      </trkpt>
      <trkpt lat="45.6654" lon="-1.09926">
        <ele>28.4</ele>
        <time>2021-03-28T16:15:32Z</time>
      </trkpt>
      <trkpt lat="45.66544" lon="-1.0993">
        <ele>28.4</ele>
        <time>2021-03-28T16:15:36Z</time>
      </trkpt>
      <trkpt lat="45.66555" lon="-1.09935">
        <ele>28.4</ele>
        <time>2021-03-28T16:15:47Z</time>
      </trkpt>
      <trkpt lat="45.66562" lon="-1.09935">
        <ele>28.4</ele>
        <time>2021-03-28T16:15:54Z</time>
      </trkpt>
      <trkpt lat="45.66586" lon="-1.09943">
        <ele>28.2</ele>
        <time>2021-03-28T16:16:15Z</time>
      </trkpt>
      <trkpt lat="45.666" lon="-1.09945">
        <ele>28.1</ele>
        <time>2021-03-28T16:16:29Z</time>
      </trkpt>
      <trkpt lat="45.66604" lon="-1.09945">
        <ele>28.1</ele>
        <time>2021-03-28T16:16:33Z</time>
      </trkpt>
      <trkpt lat="45.66615" lon="-1.09948">
        <ele>28.1</ele>
        <time>2021-03-28T16:16:43Z</time>
      </trkpt>
      <trkpt lat="45.66631" lon="-1.09963">
        <ele>28.2</ele>
        <time>2021-03-28T16:17:01Z</time>
      </trkpt>
      <trkpt lat="45.66634" lon="-1.09964">
        <ele>28.2</ele>
        <time>2021-03-28T16:17:04Z</time>
      </trkpt>
      <trkpt lat="45.66642" lon="-1.09963">
        <ele>28.3</ele>
        <time>2021-03-28T16:17:10Z</time>
      </trkpt>
      <trkpt lat="45.66645" lon="-1.09964">
        <ele>28.3</ele>
        <time>2021-03-28T16:17:19Z</time>
      </trkpt>
      <trkpt lat="45.66654" lon="-1.09972">
        <ele>28.2</ele>
        <time>2021-03-28T16:17:31Z</time>
      </trkpt>
      <trkpt lat="45.66659" lon="-1.09983">
        <ele>28.2</ele>
        <time>2021-03-28T16:17:37Z</time>
      </trkpt>
      <trkpt lat="45.6667" lon="-1.0999">
        <ele>28</ele>
        <time>2021-03-28T16:17:45Z</time>
      </trkpt>
      <trkpt lat="45.66675" lon="-1.09991">
        <ele>27.9</ele>
        <time>2021-03-28T16:17:49Z</time>
      </trkpt>
      <trkpt lat="45.66679" lon="-1.09989">
        <ele>27.7</ele>
        <time>2021-03-28T16:17:54Z</time>
      </trkpt>
      <trkpt lat="45.66687" lon="-1.09989">
        <ele>27.5</ele>
        <time>2021-03-28T16:18:03Z</time>
      </trkpt>
      <trkpt lat="45.66692" lon="-1.09991">
        <ele>27.4</ele>
        <time>2021-03-28T16:18:09Z</time>
      </trkpt>
      <trkpt lat="45.66701" lon="-1.09989">
        <ele>27.2</ele>
        <time>2021-03-28T16:18:17Z</time>
      </trkpt>
      <trkpt lat="45.66723" lon="-1.09989">
        <ele>27.2</ele>
        <time>2021-03-28T16:18:32Z</time>
      </trkpt>
      <trkpt lat="45.66729" lon="-1.09986">
        <ele>27.2</ele>
        <time>2021-03-28T16:18:39Z</time>
      </trkpt>
      <trkpt lat="45.66736" lon="-1.0998">
        <ele>27.2</ele>
        <time>2021-03-28T16:18:50Z</time>
      </trkpt>
      <trkpt lat="45.66737" lon="-1.09979">
        <ele>27.3</ele>
        <time>2021-03-28T16:18:53Z</time>
      </trkpt>
      <trkpt lat="45.66748" lon="-1.09976">
        <ele>27.4</ele>
        <time>2021-03-28T16:19:06Z</time>
      </trkpt>
      <trkpt lat="45.66758" lon="-1.09973">
        <ele>27.6</ele>
        <time>2021-03-28T16:19:14Z</time>
      </trkpt>
      <trkpt lat="45.66767" lon="-1.09966">
        <ele>27.9</ele>
        <time>2021-03-28T16:19:24Z</time>
      </trkpt>
      <trkpt lat="45.6678" lon="-1.09966">
        <ele>28.3</ele>
        <time>2021-03-28T16:19:35Z</time>
      </trkpt>
      <trkpt lat="45.66794" lon="-1.09962">
        <ele>28.7</ele>
        <time>2021-03-28T16:19:46Z</time>
      </trkpt>
      <trkpt lat="45.6681" lon="-1.09962">
        <ele>29</ele>
        <time>2021-03-28T16:19:59Z</time>
      </trkpt>
      <trkpt lat="45.6683" lon="-1.09958">
        <ele>29.4</ele>
        <time>2021-03-28T16:20:18Z</time>
      </trkpt>
      <trkpt lat="45.66851" lon="-1.09958">
        <ele>29.8</ele>
        <time>2021-03-28T16:20:34Z</time>
      </trkpt>
      <trkpt lat="45.66877" lon="-1.09948">
        <ele>30.3</ele>
        <time>2021-03-28T16:20:57Z</time>
      </trkpt>
      <trkpt lat="45.66901" lon="-1.09942">
        <ele>30.2</ele>
        <time>2021-03-28T16:21:16Z</time>
      </trkpt>
      <trkpt lat="45.66927" lon="-1.09933">
        <ele>30.3</ele>
        <time>2021-03-28T16:21:39Z</time>
      </trkpt>
      <trkpt lat="45.66946" lon="-1.09929">
        <ele>30.6</ele>
        <time>2021-03-28T16:21:56Z</time>
      </trkpt>
      <trkpt lat="45.66955" lon="-1.09924">
        <ele>30.7</ele>
        <time>2021-03-28T16:22:05Z</time>
      </trkpt>
      <trkpt lat="45.66962" lon="-1.09921">
        <ele>30.8</ele>
        <time>2021-03-28T16:22:11Z</time>
      </trkpt>
      <trkpt lat="45.66974" lon="-1.09921">
        <ele>30.8</ele>
        <time>2021-03-28T16:22:21Z</time>
      </trkpt>
      <trkpt lat="45.66985" lon="-1.09918">
        <ele>30.7</ele>
        <time>2021-03-28T16:22:32Z</time>
      </trkpt>
      <trkpt lat="45.66994" lon="-1.09919">
        <ele>30.6</ele>
        <time>2021-03-28T16:22:40Z</time>
      </trkpt>
      <trkpt lat="45.67002" lon="-1.09917">
        <ele>30.5</ele>
        <time>2021-03-28T16:22:48Z</time>
      </trkpt>
      <trkpt lat="45.67005" lon="-1.09919">
        <ele>30.5</ele>
        <time>2021-03-28T16:22:52Z</time>
      </trkpt>
      <trkpt lat="45.67015" lon="-1.09919">
        <ele>30.5</ele>
        <time>2021-03-28T16:23:02Z</time>
      </trkpt>
      <trkpt lat="45.67018" lon="-1.09917">
        <ele>30.6</ele>
        <time>2021-03-28T16:23:06Z</time>
      </trkpt>
      <trkpt lat="45.67029" lon="-1.09914">
        <ele>30.8</ele>
        <time>2021-03-28T16:23:17Z</time>
      </trkpt>
      <trkpt lat="45.6705" lon="-1.09917">
        <ele>31.6</ele>
        <time>2021-03-28T16:23:36Z</time>
      </trkpt>
      <trkpt lat="45.67065" lon="-1.09916">
        <ele>32.1</ele>
        <time>2021-03-28T16:23:51Z</time>
      </trkpt>
      <trkpt lat="45.67077" lon="-1.09919">
        <ele>32.4</ele>
        <time>2021-03-28T16:24:02Z</time>
      </trkpt>
      <trkpt lat="45.67083" lon="-1.09923">
        <ele>32.7</ele>
        <time>2021-03-28T16:24:08Z</time>
      </trkpt>
      <trkpt lat="45.67106" lon="-1.09927">
        <ele>34</ele>
        <time>2021-03-28T16:24:32Z</time>
      </trkpt>
      <trkpt lat="45.6711" lon="-1.0993">
        <ele>34.3</ele>
        <time>2021-03-28T16:24:36Z</time>
      </trkpt>
      <trkpt lat="45.67114" lon="-1.0993">
        <ele>34.4</ele>
        <time>2021-03-28T16:24:41Z</time>
      </trkpt>
      <trkpt lat="45.67122" lon="-1.09933">
        <ele>33.8</ele>
        <time>2021-03-28T16:24:52Z</time>
      </trkpt>
      <trkpt lat="45.67131" lon="-1.09932">
        <ele>33.1</ele>
        <time>2021-03-28T16:25:01Z</time>
      </trkpt>
      <trkpt lat="45.67139" lon="-1.09934">
        <ele>32.3</ele>
        <time>2021-03-28T16:25:09Z</time>
      </trkpt>
      <trkpt lat="45.67156" lon="-1.09933">
        <ele>30.3</ele>
        <time>2021-03-28T16:25:27Z</time>
      </trkpt>
      <trkpt lat="45.67159" lon="-1.09935">
        <ele>29.8</ele>
        <time>2021-03-28T16:25:30Z</time>
      </trkpt>
      <trkpt lat="45.67163" lon="-1.09935">
        <ele>29.4</ele>
        <time>2021-03-28T16:25:33Z</time>
      </trkpt>
      <trkpt lat="45.67171" lon="-1.09936">
        <ele>28.3</ele>
        <time>2021-03-28T16:25:41Z</time>
      </trkpt>
      <trkpt lat="45.67184" lon="-1.09935">
        <ele>26.8</ele>
        <time>2021-03-28T16:25:55Z</time>
      </trkpt>
      <trkpt lat="45.67189" lon="-1.09933">
        <ele>26.7</ele>
        <time>2021-03-28T16:25:59Z</time>
      </trkpt>
      <trkpt lat="45.67202" lon="-1.09956">
        <ele>26.9</ele>
        <time>2021-03-28T16:26:19Z</time>
      </trkpt>
      <trkpt lat="45.6721" lon="-1.09968">
        <ele>27</ele>
        <time>2021-03-28T16:26:30Z</time>
      </trkpt>
      <trkpt lat="45.67223" lon="-1.09981">
        <ele>27.2</ele>
        <time>2021-03-28T16:26:45Z</time>
      </trkpt>
      <trkpt lat="45.67232" lon="-1.10001">
        <ele>27.3</ele>
        <time>2021-03-28T16:26:58Z</time>
      </trkpt>
      <trkpt lat="45.67234" lon="-1.1">
        <ele>27.3</ele>
        <time>2021-03-28T16:27:01Z</time>
      </trkpt>
      <trkpt lat="45.6724" lon="-1.10002">
        <ele>27.3</ele>
        <time>2021-03-28T16:27:06Z</time>
      </trkpt>
      <trkpt lat="45.6724" lon="-1.10006">
        <ele>27.3</ele>
        <time>2021-03-28T16:27:09Z</time>
      </trkpt>
      <trkpt lat="45.67242" lon="-1.10006">
        <ele>27.3</ele>
        <time>2021-03-28T16:27:14Z</time>
      </trkpt>
      <trkpt lat="45.67242" lon="-1.10009">
        <ele>27.3</ele>
        <time>2021-03-28T16:27:18Z</time>
      </trkpt>
      <trkpt lat="45.67246" lon="-1.10016">
        <ele>27.2</ele>
        <time>2021-03-28T16:27:25Z</time>
      </trkpt>
      <trkpt lat="45.67248" lon="-1.10021">
        <ele>27.1</ele>
        <time>2021-03-28T16:27:27Z</time>
      </trkpt>
      <trkpt lat="45.67249" lon="-1.10028">
        <ele>27</ele>
        <time>2021-03-28T16:27:33Z</time>
      </trkpt>
      <trkpt lat="45.67247" lon="-1.10026">
        <ele>26.9</ele>
        <time>2021-03-28T16:27:41Z</time>
      </trkpt>
      <trkpt lat="45.6725" lon="-1.10038">
        <ele>26.6</ele>
        <time>2021-03-28T16:27:57Z</time>
      </trkpt>
      <trkpt lat="45.6725" lon="-1.1005">
        <ele>26.2</ele>
        <time>2021-03-28T16:28:02Z</time>
      </trkpt>
      <trkpt lat="45.67249" lon="-1.1006">
        <ele>25.9</ele>
        <time>2021-03-28T16:28:08Z</time>
      </trkpt>
      <trkpt lat="45.67252" lon="-1.10071">
        <ele>25.4</ele>
        <time>2021-03-28T16:28:15Z</time>
      </trkpt>
      <trkpt lat="45.67253" lon="-1.10083">
        <ele>25</ele>
        <time>2021-03-28T16:28:22Z</time>
      </trkpt>
      <trkpt lat="45.67257" lon="-1.10103">
        <ele>24.3</ele>
        <time>2021-03-28T16:28:36Z</time>
      </trkpt>
      <trkpt lat="45.67267" lon="-1.10126">
        <ele>23.5</ele>
        <time>2021-03-28T16:28:52Z</time>
      </trkpt>
      <trkpt lat="45.67267" lon="-1.10129">
        <ele>23.4</ele>
        <time>2021-03-28T16:28:54Z</time>
      </trkpt>
      <trkpt lat="45.67273" lon="-1.10145">
        <ele>22.8</ele>
        <time>2021-03-28T16:29:04Z</time>
      </trkpt>
      <trkpt lat="45.67276" lon="-1.10163">
        <ele>22.1</ele>
        <time>2021-03-28T16:29:13Z</time>
      </trkpt>
      <trkpt lat="45.67277" lon="-1.10168">
        <ele>21.9</ele>
        <time>2021-03-28T16:29:16Z</time>
      </trkpt>
      <trkpt lat="45.67282" lon="-1.10173">
        <ele>21.5</ele>
        <time>2021-03-28T16:29:24Z</time>
      </trkpt>
      <trkpt lat="45.6729" lon="-1.10186">
        <ele>20.8</ele>
        <time>2021-03-28T16:29:36Z</time>
      </trkpt>
      <trkpt lat="45.673" lon="-1.10205">
        <ele>20.3</ele>
        <time>2021-03-28T16:29:50Z</time>
      </trkpt>
      <trkpt lat="45.67299" lon="-1.10208">
        <ele>20.3</ele>
        <time>2021-03-28T16:29:54Z</time>
      </trkpt>
      <trkpt lat="45.67298" lon="-1.10205">
        <ele>20.2</ele>
        <time>2021-03-28T16:30:07Z</time>
      </trkpt>
      <trkpt lat="45.67299" lon="-1.10203">
        <ele>20.2</ele>
        <time>2021-03-28T16:31:17Z</time>
      </trkpt>
      <trkpt lat="45.67301" lon="-1.10203">
        <ele>20.2</ele>
        <time>2021-03-28T16:31:19Z</time>
      </trkpt>
      <trkpt lat="45.67303" lon="-1.10204">
        <ele>20.1</ele>
        <time>2021-03-28T16:31:22Z</time>
      </trkpt>
      <trkpt lat="45.67304" lon="-1.10204">
        <ele>20.1</ele>
        <time>2021-03-28T16:31:25Z</time>
      </trkpt>
      <trkpt lat="45.67313" lon="-1.10222">
        <ele>20</ele>
        <time>2021-03-28T16:31:36Z</time>
      </trkpt>
      <trkpt lat="45.67323" lon="-1.10238">
        <ele>19.9</ele>
        <time>2021-03-28T16:31:48Z</time>
      </trkpt>
      <trkpt lat="45.67327" lon="-1.10241">
        <ele>20</ele>
        <time>2021-03-28T16:31:51Z</time>
      </trkpt>
      <trkpt lat="45.6733" lon="-1.10246">
        <ele>20.2</ele>
        <time>2021-03-28T16:31:57Z</time>
      </trkpt>
      <trkpt lat="45.67329" lon="-1.10247">
        <ele>20.3</ele>
        <time>2021-03-28T16:32:00Z</time>
      </trkpt>
      <trkpt lat="45.67329" lon="-1.10246">
        <ele>20.3</ele>
        <time>2021-03-28T16:32:05Z</time>
      </trkpt>
      <trkpt lat="45.67335" lon="-1.10245">
        <ele>20.6</ele>
        <time>2021-03-28T16:32:11Z</time>
      </trkpt>
      <trkpt lat="45.67345" lon="-1.10248">
        <ele>21.1</ele>
        <time>2021-03-28T16:32:19Z</time>
      </trkpt>
      <trkpt lat="45.67373" lon="-1.10251">
        <ele>22.6</ele>
        <time>2021-03-28T16:32:42Z</time>
      </trkpt>
      <trkpt lat="45.67381" lon="-1.10248">
        <ele>23.1</ele>
        <time>2021-03-28T16:32:51Z</time>
      </trkpt>
      <trkpt lat="45.67395" lon="-1.10245">
        <ele>23.9</ele>
        <time>2021-03-28T16:33:03Z</time>
      </trkpt>
      <trkpt lat="45.67403" lon="-1.10242">
        <ele>24.3</ele>
        <time>2021-03-28T16:33:10Z</time>
      </trkpt>
      <trkpt lat="45.67425" lon="-1.10238">
        <ele>25.3</ele>
        <time>2021-03-28T16:33:28Z</time>
      </trkpt>
      <trkpt lat="45.67436" lon="-1.10229">
        <ele>25.6</ele>
        <time>2021-03-28T16:33:37Z</time>
      </trkpt>
      <trkpt lat="45.67457" lon="-1.10206">
        <ele>26.3</ele>
        <time>2021-03-28T16:33:58Z</time>
      </trkpt>
      <trkpt lat="45.67472" lon="-1.10183">
        <ele>26.7</ele>
        <time>2021-03-28T16:34:17Z</time>
      </trkpt>
      <trkpt lat="45.67479" lon="-1.10178">
        <ele>26.8</ele>
        <time>2021-03-28T16:34:22Z</time>
      </trkpt>
      <trkpt lat="45.67483" lon="-1.10174">
        <ele>26.9</ele>
        <time>2021-03-28T16:34:27Z</time>
      </trkpt>
      <trkpt lat="45.67485" lon="-1.10166">
        <ele>27</ele>
        <time>2021-03-28T16:34:32Z</time>
      </trkpt>
      <trkpt lat="45.67489" lon="-1.10157">
        <ele>27.2</ele>
        <time>2021-03-28T16:34:39Z</time>
      </trkpt>
      <trkpt lat="45.6749" lon="-1.10147">
        <ele>27.3</ele>
        <time>2021-03-28T16:34:44Z</time>
      </trkpt>
      <trkpt lat="45.67493" lon="-1.10138">
        <ele>27.4</ele>
        <time>2021-03-28T16:34:50Z</time>
      </trkpt>
      <trkpt lat="45.67495" lon="-1.10134">
        <ele>27.5</ele>
        <time>2021-03-28T16:34:53Z</time>
      </trkpt>
      <trkpt lat="45.675" lon="-1.10121">
        <ele>27.8</ele>
        <time>2021-03-28T16:35:01Z</time>
      </trkpt>
      <trkpt lat="45.67503" lon="-1.10116">
        <ele>27.9</ele>
        <time>2021-03-28T16:35:05Z</time>
      </trkpt>
      <trkpt lat="45.67514" lon="-1.10102">
        <ele>28.1</ele>
        <time>2021-03-28T16:35:18Z</time>
      </trkpt>
      <trkpt lat="45.67527" lon="-1.10092">
        <ele>28.2</ele>
        <time>2021-03-28T16:35:30Z</time>
      </trkpt>
      <trkpt lat="45.67552" lon="-1.10085">
        <ele>28.3</ele>
        <time>2021-03-28T16:35:50Z</time>
      </trkpt>
      <trkpt lat="45.67562" lon="-1.10088">
        <ele>28.2</ele>
        <time>2021-03-28T16:35:59Z</time>
      </trkpt>
      <trkpt lat="45.67568" lon="-1.10083">
        <ele>28.2</ele>
        <time>2021-03-28T16:36:06Z</time>
      </trkpt>
      <trkpt lat="45.67574" lon="-1.1008">
        <ele>28.1</ele>
        <time>2021-03-28T16:36:10Z</time>
      </trkpt>
      <trkpt lat="45.67581" lon="-1.10078">
        <ele>28.1</ele>
        <time>2021-03-28T16:36:15Z</time>
      </trkpt>
      <trkpt lat="45.67585" lon="-1.10075">
        <ele>28</ele>
        <time>2021-03-28T16:36:19Z</time>
      </trkpt>
      <trkpt lat="45.67589" lon="-1.10075">
        <ele>28</ele>
        <time>2021-03-28T16:36:23Z</time>
      </trkpt>
      <trkpt lat="45.67608" lon="-1.10068">
        <ele>27.8</ele>
        <time>2021-03-28T16:36:41Z</time>
      </trkpt>
      <trkpt lat="45.67618" lon="-1.1006">
        <ele>27.7</ele>
        <time>2021-03-28T16:36:50Z</time>
      </trkpt>
      <trkpt lat="45.67625" lon="-1.10058">
        <ele>27.7</ele>
        <time>2021-03-28T16:36:54Z</time>
      </trkpt>
      <trkpt lat="45.67637" lon="-1.10051">
        <ele>27.7</ele>
        <time>2021-03-28T16:37:03Z</time>
      </trkpt>
      <trkpt lat="45.67646" lon="-1.10043">
        <ele>27.7</ele>
        <time>2021-03-28T16:37:12Z</time>
      </trkpt>
      <trkpt lat="45.67649" lon="-1.10038">
        <ele>27.7</ele>
        <time>2021-03-28T16:37:17Z</time>
      </trkpt>
      <trkpt lat="45.6766" lon="-1.1003">
        <ele>27.8</ele>
        <time>2021-03-28T16:37:29Z</time>
      </trkpt>
      <trkpt lat="45.67667" lon="-1.10023">
        <ele>27.9</ele>
        <time>2021-03-28T16:37:35Z</time>
      </trkpt>
      <trkpt lat="45.67674" lon="-1.10024">
        <ele>28.1</ele>
        <time>2021-03-28T16:37:40Z</time>
      </trkpt>
      <trkpt lat="45.67678" lon="-1.10027">
        <ele>28.5</ele>
        <time>2021-03-28T16:37:45Z</time>
      </trkpt>
      <trkpt lat="45.67677" lon="-1.10032">
        <ele>28.9</ele>
        <time>2021-03-28T16:37:50Z</time>
      </trkpt>
      <trkpt lat="45.67673" lon="-1.10036">
        <ele>29.3</ele>
        <time>2021-03-28T16:37:57Z</time>
      </trkpt>
      <trkpt lat="45.67676" lon="-1.10031">
        <ele>29.7</ele>
        <time>2021-03-28T16:38:19Z</time>
      </trkpt>
      <trkpt lat="45.67678" lon="-1.1003">
        <ele>29.9</ele>
        <time>2021-03-28T16:38:21Z</time>
      </trkpt>
      <trkpt lat="45.67681" lon="-1.10032">
        <ele>30.4</ele>
        <time>2021-03-28T16:38:43Z</time>
      </trkpt>
      <trkpt lat="45.67681" lon="-1.10031">
        <ele>30.4</ele>
        <time>2021-03-28T16:38:46Z</time>
      </trkpt>
      <trkpt lat="45.67684" lon="-1.10036">
        <ele>30.8</ele>
        <time>2021-03-28T16:38:55Z</time>
      </trkpt>
      <trkpt lat="45.67685" lon="-1.1004">
        <ele>31</ele>
        <time>2021-03-28T16:38:57Z</time>
      </trkpt>
      <trkpt lat="45.67689" lon="-1.10053">
        <ele>31.5</ele>
        <time>2021-03-28T16:39:05Z</time>
      </trkpt>
      <trkpt lat="45.67695" lon="-1.10062">
        <ele>31.7</ele>
        <time>2021-03-28T16:39:11Z</time>
      </trkpt>
      <trkpt lat="45.67698" lon="-1.10069">
        <ele>31.8</ele>
        <time>2021-03-28T16:39:16Z</time>
      </trkpt>
      <trkpt lat="45.67705" lon="-1.10093">
        <ele>32</ele>
        <time>2021-03-28T16:39:30Z</time>
      </trkpt>
      <trkpt lat="45.67706" lon="-1.10094">
        <ele>32</ele>
        <time>2021-03-28T16:39:31Z</time>
      </trkpt>
      <trkpt lat="45.67707" lon="-1.10102">
        <ele>32</ele>
        <time>2021-03-28T16:39:38Z</time>
      </trkpt>
      <trkpt lat="45.67717" lon="-1.10126">
        <ele>31.9</ele>
        <time>2021-03-28T16:39:56Z</time>
      </trkpt>
      <trkpt lat="45.6772" lon="-1.10129">
        <ele>31.9</ele>
        <time>2021-03-28T16:39:58Z</time>
      </trkpt>
      <trkpt lat="45.67722" lon="-1.10135">
        <ele>31.8</ele>
        <time>2021-03-28T16:40:04Z</time>
      </trkpt>
      <trkpt lat="45.67722" lon="-1.10139">
        <ele>31.8</ele>
        <time>2021-03-28T16:40:22Z</time>
      </trkpt>
      <trkpt lat="45.67722" lon="-1.10144">
        <ele>31.8</ele>
        <time>2021-03-28T16:40:26Z</time>
      </trkpt>
      <trkpt lat="45.67727" lon="-1.10159">
        <ele>31.8</ele>
        <time>2021-03-28T16:40:37Z</time>
      </trkpt>
      <trkpt lat="45.67729" lon="-1.10169">
        <ele>31.8</ele>
        <time>2021-03-28T16:40:43Z</time>
      </trkpt>
      <trkpt lat="45.67732" lon="-1.10178">
        <ele>31.8</ele>
        <time>2021-03-28T16:40:48Z</time>
      </trkpt>
      <trkpt lat="45.67734" lon="-1.10187">
        <ele>31.8</ele>
        <time>2021-03-28T16:40:53Z</time>
      </trkpt>
      <trkpt lat="45.67745" lon="-1.10216">
        <ele>32</ele>
        <time>2021-03-28T16:41:11Z</time>
      </trkpt>
      <trkpt lat="45.67747" lon="-1.10232">
        <ele>32</ele>
        <time>2021-03-28T16:41:22Z</time>
      </trkpt>
      <trkpt lat="45.67751" lon="-1.10242">
        <ele>31.9</ele>
        <time>2021-03-28T16:41:30Z</time>
      </trkpt>
      <trkpt lat="45.67751" lon="-1.10247">
        <ele>31.8</ele>
        <time>2021-03-28T16:41:33Z</time>
      </trkpt>
      <trkpt lat="45.67749" lon="-1.10257">
        <ele>31.6</ele>
        <time>2021-03-28T16:41:38Z</time>
      </trkpt>
      <trkpt lat="45.67751" lon="-1.10274">
        <ele>31.4</ele>
        <time>2021-03-28T16:41:46Z</time>
      </trkpt>
      <trkpt lat="45.67753" lon="-1.10283">
        <ele>31.3</ele>
        <time>2021-03-28T16:41:53Z</time>
      </trkpt>
      <trkpt lat="45.67753" lon="-1.10295">
        <ele>31.3</ele>
        <time>2021-03-28T16:42:00Z</time>
      </trkpt>
      <trkpt lat="45.67751" lon="-1.10306">
        <ele>31.3</ele>
        <time>2021-03-28T16:42:06Z</time>
      </trkpt>
      <trkpt lat="45.67751" lon="-1.10311">
        <ele>31.3</ele>
        <time>2021-03-28T16:42:10Z</time>
      </trkpt>
      <trkpt lat="45.67755" lon="-1.10327">
        <ele>31.3</ele>
        <time>2021-03-28T16:42:18Z</time>
      </trkpt>
      <trkpt lat="45.67754" lon="-1.10332">
        <ele>31.2</ele>
        <time>2021-03-28T16:42:20Z</time>
      </trkpt>
      <trkpt lat="45.67752" lon="-1.10339">
        <ele>31.2</ele>
        <time>2021-03-28T16:42:24Z</time>
      </trkpt>
      <trkpt lat="45.67753" lon="-1.10346">
        <ele>31.1</ele>
        <time>2021-03-28T16:42:29Z</time>
      </trkpt>
      <trkpt lat="45.6775" lon="-1.10365">
        <ele>30.9</ele>
        <time>2021-03-28T16:42:41Z</time>
      </trkpt>
      <trkpt lat="45.67746" lon="-1.10381">
        <ele>30.5</ele>
        <time>2021-03-28T16:42:52Z</time>
      </trkpt>
      <trkpt lat="45.67733" lon="-1.10409">
        <ele>30.2</ele>
        <time>2021-03-28T16:43:13Z</time>
      </trkpt>
      <trkpt lat="45.67728" lon="-1.10425">
        <ele>30.1</ele>
        <time>2021-03-28T16:43:21Z</time>
      </trkpt>
      <trkpt lat="45.67723" lon="-1.10441">
        <ele>30.1</ele>
        <time>2021-03-28T16:43:31Z</time>
      </trkpt>
      <trkpt lat="45.67721" lon="-1.1045">
        <ele>30.1</ele>
        <time>2021-03-28T16:43:37Z</time>
      </trkpt>
      <trkpt lat="45.67719" lon="-1.10458">
        <ele>30.1</ele>
        <time>2021-03-28T16:43:41Z</time>
      </trkpt>
      <trkpt lat="45.67717" lon="-1.10474">
        <ele>30</ele>
        <time>2021-03-28T16:43:51Z</time>
      </trkpt>
      <trkpt lat="45.67715" lon="-1.10482">
        <ele>29.9</ele>
        <time>2021-03-28T16:43:57Z</time>
      </trkpt>
      <trkpt lat="45.67716" lon="-1.10498">
        <ele>29.5</ele>
        <time>2021-03-28T16:44:05Z</time>
      </trkpt>
      <trkpt lat="45.67709" lon="-1.10524">
        <ele>29.1</ele>
        <time>2021-03-28T16:44:24Z</time>
      </trkpt>
      <trkpt lat="45.67707" lon="-1.10553">
        <ele>29.2</ele>
        <time>2021-03-28T16:44:42Z</time>
      </trkpt>
      <trkpt lat="45.67702" lon="-1.10574">
        <ele>29.4</ele>
        <time>2021-03-28T16:44:56Z</time>
      </trkpt>
      <trkpt lat="45.677" lon="-1.10583">
        <ele>29.5</ele>
        <time>2021-03-28T16:45:00Z</time>
      </trkpt>
      <trkpt lat="45.677" lon="-1.10593">
        <ele>29.5</ele>
        <time>2021-03-28T16:45:05Z</time>
      </trkpt>
      <trkpt lat="45.67703" lon="-1.10603">
        <ele>29.5</ele>
        <time>2021-03-28T16:45:10Z</time>
      </trkpt>
      <trkpt lat="45.67714" lon="-1.10628">
        <ele>29.6</ele>
        <time>2021-03-28T16:45:28Z</time>
      </trkpt>
      <trkpt lat="45.67721" lon="-1.10638">
        <ele>29.7</ele>
        <time>2021-03-28T16:45:34Z</time>
      </trkpt>
      <trkpt lat="45.67727" lon="-1.10651">
        <ele>29.8</ele>
        <time>2021-03-28T16:45:44Z</time>
      </trkpt>
      <trkpt lat="45.67738" lon="-1.10665">
        <ele>29.9</ele>
        <time>2021-03-28T16:45:56Z</time>
      </trkpt>
      <trkpt lat="45.67741" lon="-1.10667">
        <ele>29.9</ele>
        <time>2021-03-28T16:45:59Z</time>
      </trkpt>
      <trkpt lat="45.67749" lon="-1.10668">
        <ele>30</ele>
        <time>2021-03-28T16:46:07Z</time>
      </trkpt>
      <trkpt lat="45.67764" lon="-1.10685">
        <ele>30.1</ele>
        <time>2021-03-28T16:46:23Z</time>
      </trkpt>
      <trkpt lat="45.67769" lon="-1.10699">
        <ele>30.2</ele>
        <time>2021-03-28T16:46:35Z</time>
      </trkpt>
      <trkpt lat="45.6777" lon="-1.10706">
        <ele>30.2</ele>
        <time>2021-03-28T16:46:40Z</time>
      </trkpt>
      <trkpt lat="45.67775" lon="-1.10717">
        <ele>30.2</ele>
        <time>2021-03-28T16:46:48Z</time>
      </trkpt>
      <trkpt lat="45.67781" lon="-1.10722">
        <ele>30.2</ele>
        <time>2021-03-28T16:46:53Z</time>
      </trkpt>
      <trkpt lat="45.67784" lon="-1.10728">
        <ele>30.2</ele>
        <time>2021-03-28T16:46:55Z</time>
      </trkpt>
      <trkpt lat="45.67785" lon="-1.1074">
        <ele>30.2</ele>
        <time>2021-03-28T16:47:04Z</time>
      </trkpt>
      <trkpt lat="45.67788" lon="-1.10749">
        <ele>30.1</ele>
        <time>2021-03-28T16:47:11Z</time>
      </trkpt>
      <trkpt lat="45.67795" lon="-1.10761">
        <ele>30</ele>
        <time>2021-03-28T16:47:21Z</time>
      </trkpt>
      <trkpt lat="45.67802" lon="-1.10778">
        <ele>29.7</ele>
        <time>2021-03-28T16:47:31Z</time>
      </trkpt>
      <trkpt lat="45.67805" lon="-1.10782">
        <ele>29.6</ele>
        <time>2021-03-28T16:47:35Z</time>
      </trkpt>
      <trkpt lat="45.6781" lon="-1.10786">
        <ele>29.5</ele>
        <time>2021-03-28T16:47:40Z</time>
      </trkpt>
      <trkpt lat="45.67815" lon="-1.10792">
        <ele>29.4</ele>
        <time>2021-03-28T16:47:46Z</time>
      </trkpt>
      <trkpt lat="45.67821" lon="-1.10802">
        <ele>29.2</ele>
        <time>2021-03-28T16:47:54Z</time>
      </trkpt>
      <trkpt lat="45.67826" lon="-1.10808">
        <ele>29</ele>
        <time>2021-03-28T16:48:00Z</time>
      </trkpt>
      <trkpt lat="45.67836" lon="-1.10814">
        <ele>28.9</ele>
        <time>2021-03-28T16:48:12Z</time>
      </trkpt>
      <trkpt lat="45.67844" lon="-1.10822">
        <ele>28.9</ele>
        <time>2021-03-28T16:48:19Z</time>
      </trkpt>
      <trkpt lat="45.67855" lon="-1.10835">
        <ele>28.8</ele>
        <time>2021-03-28T16:48:30Z</time>
      </trkpt>
      <trkpt lat="45.67863" lon="-1.10852">
        <ele>28.8</ele>
        <time>2021-03-28T16:48:42Z</time>
      </trkpt>
      <trkpt lat="45.67868" lon="-1.10874">
        <ele>29</ele>
        <time>2021-03-28T16:48:55Z</time>
      </trkpt>
      <trkpt lat="45.67875" lon="-1.10888">
        <ele>29</ele>
        <time>2021-03-28T16:49:04Z</time>
      </trkpt>
      <trkpt lat="45.67876" lon="-1.10894">
        <ele>29</ele>
        <time>2021-03-28T16:49:07Z</time>
      </trkpt>
      <trkpt lat="45.67876" lon="-1.10904">
        <ele>29</ele>
        <time>2021-03-28T16:49:12Z</time>
      </trkpt>
      <trkpt lat="45.67878" lon="-1.10914">
        <ele>29</ele>
        <time>2021-03-28T16:49:17Z</time>
      </trkpt>
      <trkpt lat="45.67883" lon="-1.10922">
        <ele>29.1</ele>
        <time>2021-03-28T16:49:22Z</time>
      </trkpt>
      <trkpt lat="45.67886" lon="-1.10928">
        <ele>29.1</ele>
        <time>2021-03-28T16:49:28Z</time>
      </trkpt>
      <trkpt lat="45.67889" lon="-1.10945">
        <ele>29.1</ele>
        <time>2021-03-28T16:49:40Z</time>
      </trkpt>
      <trkpt lat="45.67893" lon="-1.10954">
        <ele>29.1</ele>
        <time>2021-03-28T16:49:47Z</time>
      </trkpt>
      <trkpt lat="45.67897" lon="-1.1096">
        <ele>29.1</ele>
        <time>2021-03-28T16:49:52Z</time>
      </trkpt>
      <trkpt lat="45.67901" lon="-1.10971">
        <ele>29</ele>
        <time>2021-03-28T16:50:02Z</time>
      </trkpt>
      <trkpt lat="45.6791" lon="-1.10985">
        <ele>28.8</ele>
        <time>2021-03-28T16:50:12Z</time>
      </trkpt>
      <trkpt lat="45.67916" lon="-1.1099">
        <ele>28.7</ele>
        <time>2021-03-28T16:50:19Z</time>
      </trkpt>
      <trkpt lat="45.67922" lon="-1.11">
        <ele>28.7</ele>
        <time>2021-03-28T16:50:29Z</time>
      </trkpt>
      <trkpt lat="45.67929" lon="-1.11016">
        <ele>28.9</ele>
        <time>2021-03-28T16:50:40Z</time>
      </trkpt>
      <trkpt lat="45.67936" lon="-1.11035">
        <ele>29.4</ele>
        <time>2021-03-28T16:50:54Z</time>
      </trkpt>
      <trkpt lat="45.67937" lon="-1.1104">
        <ele>29.5</ele>
        <time>2021-03-28T16:50:59Z</time>
      </trkpt>
      <trkpt lat="45.67948" lon="-1.11074">
        <ele>30</ele>
        <time>2021-03-28T16:51:19Z</time>
      </trkpt>
      <trkpt lat="45.67956" lon="-1.1109">
        <ele>29.9</ele>
        <time>2021-03-28T16:51:32Z</time>
      </trkpt>
      <trkpt lat="45.67957" lon="-1.11102">
        <ele>29.7</ele>
        <time>2021-03-28T16:51:39Z</time>
      </trkpt>
      <trkpt lat="45.67959" lon="-1.11106">
        <ele>29.7</ele>
        <time>2021-03-28T16:51:41Z</time>
      </trkpt>
      <trkpt lat="45.67967" lon="-1.11111">
        <ele>29.4</ele>
        <time>2021-03-28T16:51:49Z</time>
      </trkpt>
      <trkpt lat="45.6797" lon="-1.11111">
        <ele>29.4</ele>
        <time>2021-03-28T16:51:52Z</time>
      </trkpt>
      <trkpt lat="45.67977" lon="-1.11106">
        <ele>29.5</ele>
        <time>2021-03-28T16:52:02Z</time>
      </trkpt>
      <trkpt lat="45.67994" lon="-1.11111">
        <ele>29.6</ele>
        <time>2021-03-28T16:52:21Z</time>
      </trkpt>
      <trkpt lat="45.67999" lon="-1.11111">
        <ele>29.7</ele>
        <time>2021-03-28T16:52:26Z</time>
      </trkpt>
      <trkpt lat="45.68001" lon="-1.11115">
        <ele>29.7</ele>
        <time>2021-03-28T16:52:29Z</time>
      </trkpt>
      <trkpt lat="45.68001" lon="-1.11119">
        <ele>29.7</ele>
        <time>2021-03-28T16:52:32Z</time>
      </trkpt>
      <trkpt lat="45.67997" lon="-1.11128">
        <ele>29.8</ele>
        <time>2021-03-28T16:52:40Z</time>
      </trkpt>
      <trkpt lat="45.67996" lon="-1.11138">
        <ele>29.8</ele>
        <time>2021-03-28T16:52:47Z</time>
      </trkpt>
      <trkpt lat="45.67994" lon="-1.11147">
        <ele>29.9</ele>
        <time>2021-03-28T16:52:53Z</time>
      </trkpt>
      <trkpt lat="45.67992" lon="-1.11159">
        <ele>29.9</ele>
        <time>2021-03-28T16:53:01Z</time>
      </trkpt>
      <trkpt lat="45.67985" lon="-1.11184">
        <ele>29.5</ele>
        <time>2021-03-28T16:53:14Z</time>
      </trkpt>
      <trkpt lat="45.67982" lon="-1.11191">
        <ele>29.3</ele>
        <time>2021-03-28T16:53:19Z</time>
      </trkpt>
      <trkpt lat="45.67977" lon="-1.11212">
        <ele>28.7</ele>
        <time>2021-03-28T16:53:35Z</time>
      </trkpt>
      <trkpt lat="45.67976" lon="-1.11218">
        <ele>28.5</ele>
        <time>2021-03-28T16:53:39Z</time>
      </trkpt>
      <trkpt lat="45.67973" lon="-1.11226">
        <ele>28.2</ele>
        <time>2021-03-28T16:53:47Z</time>
      </trkpt>
      <trkpt lat="45.67972" lon="-1.11225">
        <ele>28.2</ele>
        <time>2021-03-28T16:53:53Z</time>
      </trkpt>
      <trkpt lat="45.67969" lon="-1.11232">
        <ele>27.9</ele>
        <time>2021-03-28T16:54:10Z</time>
      </trkpt>
      <trkpt lat="45.67969" lon="-1.11238">
        <ele>27.7</ele>
        <time>2021-03-28T16:54:17Z</time>
      </trkpt>
      <trkpt lat="45.67967" lon="-1.1125">
        <ele>27.3</ele>
        <time>2021-03-28T16:54:27Z</time>
      </trkpt>
      <trkpt lat="45.67965" lon="-1.11287">
        <ele>25.3</ele>
        <time>2021-03-28T16:54:49Z</time>
      </trkpt>
      <trkpt lat="45.67962" lon="-1.11297">
        <ele>24.5</ele>
        <time>2021-03-28T16:54:55Z</time>
      </trkpt>
      <trkpt lat="45.67963" lon="-1.11312">
        <ele>23.2</ele>
        <time>2021-03-28T16:55:05Z</time>
      </trkpt>
      <trkpt lat="45.67961" lon="-1.11334">
        <ele>21.8</ele>
        <time>2021-03-28T16:55:25Z</time>
      </trkpt>
      <trkpt lat="45.67962" lon="-1.11342">
        <ele>21.4</ele>
        <time>2021-03-28T16:55:29Z</time>
      </trkpt>
      <trkpt lat="45.6796" lon="-1.11348">
        <ele>21.2</ele>
        <time>2021-03-28T16:55:33Z</time>
      </trkpt>
      <trkpt lat="45.67959" lon="-1.11385">
        <ele>20</ele>
        <time>2021-03-28T16:55:57Z</time>
      </trkpt>
      <trkpt lat="45.67961" lon="-1.11391">
        <ele>19.9</ele>
        <time>2021-03-28T16:56:00Z</time>
      </trkpt>
      <trkpt lat="45.67958" lon="-1.114">
        <ele>19.6</ele>
        <time>2021-03-28T16:56:07Z</time>
      </trkpt>
      <trkpt lat="45.67952" lon="-1.11405">
        <ele>19.3</ele>
        <time>2021-03-28T16:56:13Z</time>
      </trkpt>
      <trkpt lat="45.67936" lon="-1.11437">
        <ele>18.4</ele>
        <time>2021-03-28T16:56:41Z</time>
      </trkpt>
      <trkpt lat="45.6793" lon="-1.11445">
        <ele>18.1</ele>
        <time>2021-03-28T16:56:49Z</time>
      </trkpt>
      <trkpt lat="45.6793" lon="-1.11448">
        <ele>18.1</ele>
        <time>2021-03-28T16:56:54Z</time>
      </trkpt>
      <trkpt lat="45.67919" lon="-1.11453">
        <ele>17.6</ele>
        <time>2021-03-28T16:57:03Z</time>
      </trkpt>
      <trkpt lat="45.67909" lon="-1.11467">
        <ele>17.1</ele>
        <time>2021-03-28T16:57:16Z</time>
      </trkpt>
      <trkpt lat="45.67903" lon="-1.11482">
        <ele>16.1</ele>
        <time>2021-03-28T16:57:28Z</time>
      </trkpt>
      <trkpt lat="45.67903" lon="-1.11493">
        <ele>15.5</ele>
        <time>2021-03-28T16:57:37Z</time>
      </trkpt>
      <trkpt lat="45.67904" lon="-1.11497">
        <ele>15.3</ele>
        <time>2021-03-28T16:57:41Z</time>
      </trkpt>
      <trkpt lat="45.67903" lon="-1.11502">
        <ele>15.3</ele>
        <time>2021-03-28T16:57:44Z</time>
      </trkpt>
      <trkpt lat="45.67901" lon="-1.11503">
        <ele>15.7</ele>
        <time>2021-03-28T16:57:49Z</time>
      </trkpt>
      <trkpt lat="45.67902" lon="-1.11502">
        <ele>15.7</ele>
        <time>2021-03-28T16:57:54Z</time>
      </trkpt>
      <trkpt lat="45.67904" lon="-1.11518">
        <ele>16.2</ele>
        <time>2021-03-28T16:58:05Z</time>
      </trkpt>
      <trkpt lat="45.67903" lon="-1.11525">
        <ele>16.2</ele>
        <time>2021-03-28T16:58:08Z</time>
      </trkpt>
      <trkpt lat="45.67904" lon="-1.11533">
        <ele>16.3</ele>
        <time>2021-03-28T16:58:14Z</time>
      </trkpt>
      <trkpt lat="45.67903" lon="-1.11541">
        <ele>16.4</ele>
        <time>2021-03-28T16:58:20Z</time>
      </trkpt>
      <trkpt lat="45.67904" lon="-1.1156">
        <ele>16.7</ele>
        <time>2021-03-28T16:58:30Z</time>
      </trkpt>
      <trkpt lat="45.67901" lon="-1.11593">
        <ele>17.1</ele>
        <time>2021-03-28T16:58:49Z</time>
      </trkpt>
      <trkpt lat="45.67896" lon="-1.11606">
        <ele>17.1</ele>
        <time>2021-03-28T16:58:59Z</time>
      </trkpt>
      <trkpt lat="45.67896" lon="-1.11617">
        <ele>17.1</ele>
        <time>2021-03-28T16:59:05Z</time>
      </trkpt>
      <trkpt lat="45.67895" lon="-1.11632">
        <ele>17</ele>
        <time>2021-03-28T16:59:14Z</time>
      </trkpt>
      <trkpt lat="45.67895" lon="-1.11639">
        <ele>16.9</ele>
        <time>2021-03-28T16:59:19Z</time>
      </trkpt>
      <trkpt lat="45.67893" lon="-1.11655">
        <ele>16.7</ele>
        <time>2021-03-28T16:59:30Z</time>
      </trkpt>
      <trkpt lat="45.67885" lon="-1.11692">
        <ele>16.3</ele>
        <time>2021-03-28T16:59:53Z</time>
      </trkpt>
      <trkpt lat="45.67887" lon="-1.1172">
        <ele>16.1</ele>
        <time>2021-03-28T17:00:06Z</time>
      </trkpt>
      <trkpt lat="45.67893" lon="-1.11748">
        <ele>15.7</ele>
        <time>2021-03-28T17:00:28Z</time>
      </trkpt>
      <trkpt lat="45.67894" lon="-1.11753">
        <ele>15.6</ele>
        <time>2021-03-28T17:00:32Z</time>
      </trkpt>
      <trkpt lat="45.67899" lon="-1.11774">
        <ele>15.1</ele>
        <time>2021-03-28T17:00:45Z</time>
      </trkpt>
      <trkpt lat="45.67901" lon="-1.11785">
        <ele>14.9</ele>
        <time>2021-03-28T17:00:51Z</time>
      </trkpt>
      <trkpt lat="45.67906" lon="-1.11797">
        <ele>14.7</ele>
        <time>2021-03-28T17:01:00Z</time>
      </trkpt>
      <trkpt lat="45.67905" lon="-1.11815">
        <ele>14.6</ele>
        <time>2021-03-28T17:01:14Z</time>
      </trkpt>
      <trkpt lat="45.67908" lon="-1.1183">
        <ele>14.7</ele>
        <time>2021-03-28T17:01:24Z</time>
      </trkpt>
      <trkpt lat="45.6791" lon="-1.11838">
        <ele>14.7</ele>
        <time>2021-03-28T17:01:31Z</time>
      </trkpt>
      <trkpt lat="45.6791" lon="-1.11843">
        <ele>14.8</ele>
        <time>2021-03-28T17:01:35Z</time>
      </trkpt>
      <trkpt lat="45.67913" lon="-1.11855">
        <ele>15</ele>
        <time>2021-03-28T17:01:44Z</time>
      </trkpt>
      <trkpt lat="45.67914" lon="-1.11868">
        <ele>15.5</ele>
        <time>2021-03-28T17:01:52Z</time>
      </trkpt>
      <trkpt lat="45.67916" lon="-1.11875">
        <ele>15.8</ele>
        <time>2021-03-28T17:01:58Z</time>
      </trkpt>
      <trkpt lat="45.67917" lon="-1.11875">
        <ele>15.9</ele>
        <time>2021-03-28T17:02:02Z</time>
      </trkpt>
      <trkpt lat="45.67917" lon="-1.11881">
        <ele>16.2</ele>
        <time>2021-03-28T17:02:15Z</time>
      </trkpt>
      <trkpt lat="45.67917" lon="-1.11886">
        <ele>16.5</ele>
        <time>2021-03-28T17:02:20Z</time>
      </trkpt>
      <trkpt lat="45.67923" lon="-1.11901">
        <ele>17.6</ele>
        <time>2021-03-28T17:02:29Z</time>
      </trkpt>
      <trkpt lat="45.67929" lon="-1.11908">
        <ele>18.5</ele>
        <time>2021-03-28T17:02:38Z</time>
      </trkpt>
      <trkpt lat="45.67931" lon="-1.11907">
        <ele>18.8</ele>
        <time>2021-03-28T17:02:50Z</time>
      </trkpt>
      <trkpt lat="45.67933" lon="-1.1191">
        <ele>19.2</ele>
        <time>2021-03-28T17:02:57Z</time>
      </trkpt>
      <trkpt lat="45.6794" lon="-1.11927">
        <ele>20.7</ele>
        <time>2021-03-28T17:03:12Z</time>
      </trkpt>
      <trkpt lat="45.6794" lon="-1.11932">
        <ele>21.2</ele>
        <time>2021-03-28T17:03:18Z</time>
      </trkpt>
      <trkpt lat="45.67941" lon="-1.11947">
        <ele>22.2</ele>
        <time>2021-03-28T17:03:29Z</time>
      </trkpt>
      <trkpt lat="45.67941" lon="-1.11947">
        <ele>22.3</ele>
        <time>2021-03-28T17:03:30Z</time>
      </trkpt>
      <trkpt lat="45.67944" lon="-1.11951">
        <ele>22.6</ele>
        <time>2021-03-28T17:03:36Z</time>
      </trkpt>
      <trkpt lat="45.67946" lon="-1.1196">
        <ele>22.9</ele>
        <time>2021-03-28T17:03:42Z</time>
      </trkpt>
      <trkpt lat="45.67946" lon="-1.11965">
        <ele>23</ele>
        <time>2021-03-28T17:03:45Z</time>
      </trkpt>
      <trkpt lat="45.67947" lon="-1.11974">
        <ele>23.2</ele>
        <time>2021-03-28T17:03:52Z</time>
      </trkpt>
      <trkpt lat="45.67949" lon="-1.11984">
        <ele>23.2</ele>
        <time>2021-03-28T17:04:01Z</time>
      </trkpt>
      <trkpt lat="45.67949" lon="-1.11991">
        <ele>23.1</ele>
        <time>2021-03-28T17:04:05Z</time>
      </trkpt>
      <trkpt lat="45.67948" lon="-1.12003">
        <ele>22.9</ele>
        <time>2021-03-28T17:04:12Z</time>
      </trkpt>
      <trkpt lat="45.67946" lon="-1.12007">
        <ele>22.7</ele>
        <time>2021-03-28T17:04:16Z</time>
      </trkpt>
      <trkpt lat="45.67942" lon="-1.12013">
        <ele>22.3</ele>
        <time>2021-03-28T17:04:22Z</time>
      </trkpt>
      <trkpt lat="45.67937" lon="-1.12022">
        <ele>21.8</ele>
        <time>2021-03-28T17:04:30Z</time>
      </trkpt>
      <trkpt lat="45.67936" lon="-1.12027">
        <ele>21.5</ele>
        <time>2021-03-28T17:04:34Z</time>
      </trkpt>
      <trkpt lat="45.67933" lon="-1.12033">
        <ele>21.1</ele>
        <time>2021-03-28T17:04:40Z</time>
      </trkpt>
      <trkpt lat="45.67931" lon="-1.12042">
        <ele>20.6</ele>
        <time>2021-03-28T17:04:45Z</time>
      </trkpt>
      <trkpt lat="45.67929" lon="-1.12048">
        <ele>20.3</ele>
        <time>2021-03-28T17:04:48Z</time>
      </trkpt>
      <trkpt lat="45.67925" lon="-1.12053">
        <ele>19.8</ele>
        <time>2021-03-28T17:04:52Z</time>
      </trkpt>
      <trkpt lat="45.67919" lon="-1.12056">
        <ele>19.1</ele>
        <time>2021-03-28T17:04:57Z</time>
      </trkpt>
      <trkpt lat="45.67916" lon="-1.12056">
        <ele>18.8</ele>
        <time>2021-03-28T17:05:00Z</time>
      </trkpt>
      <trkpt lat="45.67915" lon="-1.12054">
        <ele>18.7</ele>
        <time>2021-03-28T17:05:03Z</time>
      </trkpt>
      <trkpt lat="45.67916" lon="-1.12051">
        <ele>18.5</ele>
        <time>2021-03-28T17:05:19Z</time>
      </trkpt>
      <trkpt lat="45.67917" lon="-1.12053">
        <ele>18.4</ele>
        <time>2021-03-28T17:05:26Z</time>
      </trkpt>
      <trkpt lat="45.6792" lon="-1.12052">
        <ele>18</ele>
        <time>2021-03-28T17:06:22Z</time>
      </trkpt>
      <trkpt lat="45.67918" lon="-1.12053">
        <ele>17.8</ele>
        <time>2021-03-28T17:06:26Z</time>
      </trkpt>
      <trkpt lat="45.67917" lon="-1.12057">
        <ele>17.6</ele>
        <time>2021-03-28T17:06:30Z</time>
      </trkpt>
      <trkpt lat="45.6791" lon="-1.12062">
        <ele>17.1</ele>
        <time>2021-03-28T17:06:36Z</time>
      </trkpt>
      <trkpt lat="45.67904" lon="-1.12065">
        <ele>16.7</ele>
        <time>2021-03-28T17:06:41Z</time>
      </trkpt>
      <trkpt lat="45.67894" lon="-1.12078">
        <ele>15.8</ele>
        <time>2021-03-28T17:07:01Z</time>
      </trkpt>
      <trkpt lat="45.67888" lon="-1.1209">
        <ele>15.4</ele>
        <time>2021-03-28T17:07:11Z</time>
      </trkpt>
      <trkpt lat="45.67886" lon="-1.12098">
        <ele>15.3</ele>
        <time>2021-03-28T17:07:16Z</time>
      </trkpt>
      <trkpt lat="45.67886" lon="-1.12097">
        <ele>15.3</ele>
        <time>2021-03-28T17:07:18Z</time>
      </trkpt>
      <trkpt lat="45.67877" lon="-1.12114">
        <ele>15.2</ele>
        <time>2021-03-28T17:07:26Z</time>
      </trkpt>
      <trkpt lat="45.67874" lon="-1.12119">
        <ele>15.2</ele>
        <time>2021-03-28T17:07:31Z</time>
      </trkpt>
      <trkpt lat="45.6787" lon="-1.12132">
        <ele>15.3</ele>
        <time>2021-03-28T17:07:40Z</time>
      </trkpt>
      <trkpt lat="45.67871" lon="-1.12133">
        <ele>15.3</ele>
        <time>2021-03-28T17:07:41Z</time>
      </trkpt>
      <trkpt lat="45.67864" lon="-1.12167">
        <ele>16.7</ele>
        <time>2021-03-28T17:08:07Z</time>
      </trkpt>
      <trkpt lat="45.67857" lon="-1.1218">
        <ele>17.7</ele>
        <time>2021-03-28T17:08:18Z</time>
      </trkpt>
      <trkpt lat="45.67856" lon="-1.12189">
        <ele>18.4</ele>
        <time>2021-03-28T17:08:25Z</time>
      </trkpt>
      <trkpt lat="45.67857" lon="-1.12197">
        <ele>19</ele>
        <time>2021-03-28T17:08:32Z</time>
      </trkpt>
      <trkpt lat="45.67856" lon="-1.12211">
        <ele>20.2</ele>
        <time>2021-03-28T17:08:42Z</time>
      </trkpt>
      <trkpt lat="45.67852" lon="-1.12224">
        <ele>21</ele>
        <time>2021-03-28T17:08:52Z</time>
      </trkpt>
      <trkpt lat="45.67851" lon="-1.12232">
        <ele>21.4</ele>
        <time>2021-03-28T17:08:59Z</time>
      </trkpt>
      <trkpt lat="45.67849" lon="-1.1224">
        <ele>21.6</ele>
        <time>2021-03-28T17:09:05Z</time>
      </trkpt>
      <trkpt lat="45.67849" lon="-1.12244">
        <ele>21.7</ele>
        <time>2021-03-28T17:09:08Z</time>
      </trkpt>
      <trkpt lat="45.67846" lon="-1.12254">
        <ele>21.8</ele>
        <time>2021-03-28T17:09:18Z</time>
      </trkpt>
      <trkpt lat="45.67844" lon="-1.12257">
        <ele>21.8</ele>
        <time>2021-03-28T17:09:22Z</time>
      </trkpt>
      <trkpt lat="45.6784" lon="-1.12272">
        <ele>21.5</ele>
        <time>2021-03-28T17:09:34Z</time>
      </trkpt>
      <trkpt lat="45.67837" lon="-1.12287">
        <ele>21.2</ele>
        <time>2021-03-28T17:09:45Z</time>
      </trkpt>
      <trkpt lat="45.67833" lon="-1.12299">
        <ele>20.9</ele>
        <time>2021-03-28T17:09:57Z</time>
      </trkpt>
      <trkpt lat="45.6783" lon="-1.12328">
        <ele>20</ele>
        <time>2021-03-28T17:10:13Z</time>
      </trkpt>
      <trkpt lat="45.6783" lon="-1.1233">
        <ele>19.9</ele>
        <time>2021-03-28T17:10:15Z</time>
      </trkpt>
      <trkpt lat="45.67827" lon="-1.1234">
        <ele>19.6</ele>
        <time>2021-03-28T17:10:22Z</time>
      </trkpt>
      <trkpt lat="45.67827" lon="-1.12353">
        <ele>19</ele>
        <time>2021-03-28T17:10:29Z</time>
      </trkpt>
      <trkpt lat="45.6783" lon="-1.12371">
        <ele>18.1</ele>
        <time>2021-03-28T17:10:40Z</time>
      </trkpt>
      <trkpt lat="45.67834" lon="-1.12382">
        <ele>17.4</ele>
        <time>2021-03-28T17:10:46Z</time>
      </trkpt>
      <trkpt lat="45.67835" lon="-1.12387">
        <ele>17.1</ele>
        <time>2021-03-28T17:10:48Z</time>
      </trkpt>
      <trkpt lat="45.67835" lon="-1.12393">
        <ele>16.7</ele>
        <time>2021-03-28T17:10:53Z</time>
      </trkpt>
      <trkpt lat="45.67839" lon="-1.1241">
        <ele>15.7</ele>
        <time>2021-03-28T17:11:04Z</time>
      </trkpt>
      <trkpt lat="45.67839" lon="-1.12424">
        <ele>15.1</ele>
        <time>2021-03-28T17:11:14Z</time>
      </trkpt>
      <trkpt lat="45.6784" lon="-1.12434">
        <ele>14.6</ele>
        <time>2021-03-28T17:11:21Z</time>
      </trkpt>
      <trkpt lat="45.67839" lon="-1.12444">
        <ele>14.1</ele>
        <time>2021-03-28T17:11:35Z</time>
      </trkpt>
      <trkpt lat="45.67841" lon="-1.12463">
        <ele>13.4</ele>
        <time>2021-03-28T17:11:43Z</time>
      </trkpt>
      <trkpt lat="45.67842" lon="-1.12472">
        <ele>13</ele>
        <time>2021-03-28T17:11:48Z</time>
      </trkpt>
      <trkpt lat="45.67842" lon="-1.12486">
        <ele>12.5</ele>
        <time>2021-03-28T17:11:56Z</time>
      </trkpt>
      <trkpt lat="45.67844" lon="-1.12498">
        <ele>12.2</ele>
        <time>2021-03-28T17:12:04Z</time>
      </trkpt>
      <trkpt lat="45.67846" lon="-1.12514">
        <ele>11.9</ele>
        <time>2021-03-28T17:12:12Z</time>
      </trkpt>
      <trkpt lat="45.67844" lon="-1.12528">
        <ele>11.8</ele>
        <time>2021-03-28T17:12:19Z</time>
      </trkpt>
      <trkpt lat="45.67846" lon="-1.12542">
        <ele>11.8</ele>
        <time>2021-03-28T17:12:26Z</time>
      </trkpt>
      <trkpt lat="45.6785" lon="-1.12552">
        <ele>11.8</ele>
        <time>2021-03-28T17:12:36Z</time>
      </trkpt>
      <trkpt lat="45.67856" lon="-1.12557">
        <ele>11.8</ele>
        <time>2021-03-28T17:12:44Z</time>
      </trkpt>
      <trkpt lat="45.67862" lon="-1.12567">
        <ele>11.9</ele>
        <time>2021-03-28T17:12:54Z</time>
      </trkpt>
      <trkpt lat="45.67874" lon="-1.12582">
        <ele>12.2</ele>
        <time>2021-03-28T17:13:07Z</time>
      </trkpt>
      <trkpt lat="45.67876" lon="-1.12589">
        <ele>12.4</ele>
        <time>2021-03-28T17:13:14Z</time>
      </trkpt>
      <trkpt lat="45.67883" lon="-1.12601">
        <ele>12.8</ele>
        <time>2021-03-28T17:13:25Z</time>
      </trkpt>
      <trkpt lat="45.67885" lon="-1.12608">
        <ele>13</ele>
        <time>2021-03-28T17:13:31Z</time>
      </trkpt>
      <trkpt lat="45.67889" lon="-1.12615">
        <ele>13.2</ele>
        <time>2021-03-28T17:13:37Z</time>
      </trkpt>
      <trkpt lat="45.67894" lon="-1.12634">
        <ele>13.7</ele>
        <time>2021-03-28T17:13:51Z</time>
      </trkpt>
      <trkpt lat="45.67898" lon="-1.12641">
        <ele>13.9</ele>
        <time>2021-03-28T17:13:57Z</time>
      </trkpt>
      <trkpt lat="45.67905" lon="-1.12678">
        <ele>15.7</ele>
        <time>2021-03-28T17:14:23Z</time>
      </trkpt>
      <trkpt lat="45.67906" lon="-1.12695">
        <ele>16.5</ele>
        <time>2021-03-28T17:14:34Z</time>
      </trkpt>
      <trkpt lat="45.67909" lon="-1.12705">
        <ele>16.7</ele>
        <time>2021-03-28T17:14:43Z</time>
      </trkpt>
      <trkpt lat="45.67906" lon="-1.12712">
        <ele>16.7</ele>
        <time>2021-03-28T17:14:51Z</time>
      </trkpt>
      <trkpt lat="45.67905" lon="-1.12712">
        <ele>16.7</ele>
        <time>2021-03-28T17:14:53Z</time>
      </trkpt>
      <trkpt lat="45.67902" lon="-1.12733">
        <ele>16.7</ele>
        <time>2021-03-28T17:15:11Z</time>
      </trkpt>
      <trkpt lat="45.67901" lon="-1.12737">
        <ele>16.7</ele>
        <time>2021-03-28T17:15:14Z</time>
      </trkpt>
      <trkpt lat="45.67895" lon="-1.12746">
        <ele>16.9</ele>
        <time>2021-03-28T17:15:23Z</time>
      </trkpt>
      <trkpt lat="45.67891" lon="-1.12755">
        <ele>17</ele>
        <time>2021-03-28T17:15:31Z</time>
      </trkpt>
      <trkpt lat="45.67885" lon="-1.1276">
        <ele>17.2</ele>
        <time>2021-03-28T17:15:41Z</time>
      </trkpt>
      <trkpt lat="45.67881" lon="-1.12765">
        <ele>17.4</ele>
        <time>2021-03-28T17:15:45Z</time>
      </trkpt>
      <trkpt lat="45.6788" lon="-1.12769">
        <ele>17.6</ele>
        <time>2021-03-28T17:15:48Z</time>
      </trkpt>
      <trkpt lat="45.67875" lon="-1.12779">
        <ele>17.9</ele>
        <time>2021-03-28T17:15:58Z</time>
      </trkpt>
      <trkpt lat="45.6787" lon="-1.12795">
        <ele>18.2</ele>
        <time>2021-03-28T17:16:08Z</time>
      </trkpt>
      <trkpt lat="45.67867" lon="-1.12813">
        <ele>18.5</ele>
        <time>2021-03-28T17:16:24Z</time>
      </trkpt>
      <trkpt lat="45.67863" lon="-1.12833">
        <ele>19</ele>
        <time>2021-03-28T17:16:37Z</time>
      </trkpt>
      <trkpt lat="45.67863" lon="-1.1284">
        <ele>18.9</ele>
        <time>2021-03-28T17:16:41Z</time>
      </trkpt>
      <trkpt lat="45.67862" lon="-1.12858">
        <ele>19.1</ele>
        <time>2021-03-28T17:16:54Z</time>
      </trkpt>
      <trkpt lat="45.67864" lon="-1.1288">
        <ele>19.1</ele>
        <time>2021-03-28T17:17:08Z</time>
      </trkpt>
      <trkpt lat="45.67866" lon="-1.12886">
        <ele>19.2</ele>
        <time>2021-03-28T17:17:13Z</time>
      </trkpt>
      <trkpt lat="45.67866" lon="-1.12905">
        <ele>19.2</ele>
        <time>2021-03-28T17:17:28Z</time>
      </trkpt>
      <trkpt lat="45.67862" lon="-1.1292">
        <ele>19.8</ele>
        <time>2021-03-28T17:17:41Z</time>
      </trkpt>
      <trkpt lat="45.67857" lon="-1.12927">
        <ele>20.1</ele>
        <time>2021-03-28T17:17:46Z</time>
      </trkpt>
      <trkpt lat="45.67851" lon="-1.12939">
        <ele>20.6</ele>
        <time>2021-03-28T17:18:03Z</time>
      </trkpt>
      <trkpt lat="45.67848" lon="-1.12939">
        <ele>20.7</ele>
        <time>2021-03-28T17:18:31Z</time>
      </trkpt>
      <trkpt lat="45.67836" lon="-1.12956">
        <ele>21.1</ele>
        <time>2021-03-28T17:18:50Z</time>
      </trkpt>
      <trkpt lat="45.67829" lon="-1.12958">
        <ele>21.1</ele>
        <time>2021-03-28T17:18:58Z</time>
      </trkpt>
      <trkpt lat="45.67812" lon="-1.12958">
        <ele>20.6</ele>
        <time>2021-03-28T17:19:14Z</time>
      </trkpt>
      <trkpt lat="45.67808" lon="-1.12956">
        <ele>20.5</ele>
        <time>2021-03-28T17:19:17Z</time>
      </trkpt>
      <trkpt lat="45.67802" lon="-1.12958">
        <ele>20.3</ele>
        <time>2021-03-28T17:19:24Z</time>
      </trkpt>
      <trkpt lat="45.6779" lon="-1.12964">
        <ele>19.8</ele>
        <time>2021-03-28T17:19:38Z</time>
      </trkpt>
      <trkpt lat="45.67781" lon="-1.12964">
        <ele>19.5</ele>
        <time>2021-03-28T17:19:46Z</time>
      </trkpt>
      <trkpt lat="45.67772" lon="-1.12966">
        <ele>19.2</ele>
        <time>2021-03-28T17:19:56Z</time>
      </trkpt>
      <trkpt lat="45.6777" lon="-1.12966">
        <ele>19.2</ele>
        <time>2021-03-28T17:20:00Z</time>
      </trkpt>
      <trkpt lat="45.67771" lon="-1.12965">
        <ele>19.2</ele>
        <time>2021-03-28T17:20:03Z</time>
      </trkpt>
      <trkpt lat="45.67768" lon="-1.12966">
        <ele>19.2</ele>
        <time>2021-03-28T17:20:08Z</time>
      </trkpt>
      <trkpt lat="45.67763" lon="-1.12963">
        <ele>19</ele>
        <time>2021-03-28T17:20:12Z</time>
      </trkpt>
      <trkpt lat="45.67757" lon="-1.12957">
        <ele>19</ele>
        <time>2021-03-28T17:20:19Z</time>
      </trkpt>
      <trkpt lat="45.67752" lon="-1.12949">
        <ele>19</ele>
        <time>2021-03-28T17:20:26Z</time>
      </trkpt>
      <trkpt lat="45.67743" lon="-1.12936">
        <ele>19</ele>
        <time>2021-03-28T17:20:39Z</time>
      </trkpt>
      <trkpt lat="45.67733" lon="-1.12916">
        <ele>19</ele>
        <time>2021-03-28T17:20:54Z</time>
      </trkpt>
      <trkpt lat="45.67726" lon="-1.12902">
        <ele>18.9</ele>
        <time>2021-03-28T17:21:07Z</time>
      </trkpt>
      <trkpt lat="45.67715" lon="-1.1289">
        <ele>18.8</ele>
        <time>2021-03-28T17:21:19Z</time>
      </trkpt>
      <trkpt lat="45.67708" lon="-1.12889">
        <ele>18.8</ele>
        <time>2021-03-28T17:21:24Z</time>
      </trkpt>
      <trkpt lat="45.67703" lon="-1.12892">
        <ele>18.8</ele>
        <time>2021-03-28T17:21:29Z</time>
      </trkpt>
      <trkpt lat="45.67698" lon="-1.12897">
        <ele>18.8</ele>
        <time>2021-03-28T17:21:34Z</time>
      </trkpt>
      <trkpt lat="45.67694" lon="-1.12904">
        <ele>18.9</ele>
        <time>2021-03-28T17:21:40Z</time>
      </trkpt>
      <trkpt lat="45.67693" lon="-1.12909">
        <ele>18.9</ele>
        <time>2021-03-28T17:21:43Z</time>
      </trkpt>
      <trkpt lat="45.67688" lon="-1.12922">
        <ele>18.9</ele>
        <time>2021-03-28T17:21:53Z</time>
      </trkpt>
      <trkpt lat="45.67686" lon="-1.12931">
        <ele>18.8</ele>
        <time>2021-03-28T17:21:57Z</time>
      </trkpt>
      <trkpt lat="45.67683" lon="-1.12935">
        <ele>18.8</ele>
        <time>2021-03-28T17:22:00Z</time>
      </trkpt>
      <trkpt lat="45.67679" lon="-1.12941">
        <ele>18.7</ele>
        <time>2021-03-28T17:22:05Z</time>
      </trkpt>
      <trkpt lat="45.67665" lon="-1.12944">
        <ele>18.7</ele>
        <time>2021-03-28T17:22:16Z</time>
      </trkpt>
      <trkpt lat="45.67657" lon="-1.12945">
        <ele>18.6</ele>
        <time>2021-03-28T17:22:25Z</time>
      </trkpt>
      <trkpt lat="45.67654" lon="-1.12943">
        <ele>18.6</ele>
        <time>2021-03-28T17:22:30Z</time>
      </trkpt>
      <trkpt lat="45.67654" lon="-1.12942">
        <ele>18.6</ele>
        <time>2021-03-28T17:22:33Z</time>
      </trkpt>
      <trkpt lat="45.67644" lon="-1.12941">
        <ele>18.3</ele>
        <time>2021-03-28T17:22:42Z</time>
      </trkpt>
      <trkpt lat="45.67639" lon="-1.12939">
        <ele>18.5</ele>
        <time>2021-03-28T17:22:48Z</time>
      </trkpt>
      <trkpt lat="45.67635" lon="-1.12943">
        <ele>18.5</ele>
        <time>2021-03-28T17:22:56Z</time>
      </trkpt>
      <trkpt lat="45.67635" lon="-1.12945">
        <ele>18.5</ele>
        <time>2021-03-28T17:23:02Z</time>
      </trkpt>
      <trkpt lat="45.67635" lon="-1.12944">
        <ele>18.5</ele>
        <time>2021-03-28T17:23:13Z</time>
      </trkpt>
      <trkpt lat="45.67635" lon="-1.12944">
        <ele>18.5</ele>
        <time>2021-03-28T17:23:14Z</time>
      </trkpt>
      <trkpt lat="45.67634" lon="-1.12939">
        <ele>18.5</ele>
        <time>2021-03-28T17:23:27Z</time>
      </trkpt>
      <trkpt lat="45.67631" lon="-1.12941">
        <ele>18.5</ele>
        <time>2021-03-28T17:24:24Z</time>
      </trkpt>
      <trkpt lat="45.6763" lon="-1.12941">
        <ele>18.4</ele>
        <time>2021-03-28T17:24:25Z</time>
      </trkpt>
      <trkpt lat="45.67621" lon="-1.12923">
        <ele>18.1</ele>
        <time>2021-03-28T17:24:49Z</time>
      </trkpt>
      <trkpt lat="45.67617" lon="-1.1292">
        <ele>18.1</ele>
        <time>2021-03-28T17:24:53Z</time>
      </trkpt>
      <trkpt lat="45.67602" lon="-1.12909">
        <ele>18.1</ele>
        <time>2021-03-28T17:25:08Z</time>
      </trkpt>
      <trkpt lat="45.67593" lon="-1.12899">
        <ele>18</ele>
        <time>2021-03-28T17:25:16Z</time>
      </trkpt>
      <trkpt lat="45.67584" lon="-1.12892">
        <ele>17.7</ele>
        <time>2021-03-28T17:25:27Z</time>
      </trkpt>
      <trkpt lat="45.67571" lon="-1.12879">
        <ele>16.9</ele>
        <time>2021-03-28T17:25:41Z</time>
      </trkpt>
      <trkpt lat="45.67568" lon="-1.12877">
        <ele>16.7</ele>
        <time>2021-03-28T17:25:45Z</time>
      </trkpt>
      <trkpt lat="45.67568" lon="-1.12879">
        <ele>16.6</ele>
        <time>2021-03-28T17:25:48Z</time>
      </trkpt>
      <trkpt lat="45.67564" lon="-1.12874">
        <ele>16.3</ele>
        <time>2021-03-28T17:25:54Z</time>
      </trkpt>
      <trkpt lat="45.67559" lon="-1.12871">
        <ele>16</ele>
        <time>2021-03-28T17:25:58Z</time>
      </trkpt>
      <trkpt lat="45.67549" lon="-1.12859">
        <ele>15.5</ele>
        <time>2021-03-28T17:26:09Z</time>
      </trkpt>
      <trkpt lat="45.67545" lon="-1.12856">
        <ele>15.3</ele>
        <time>2021-03-28T17:26:11Z</time>
      </trkpt>
      <trkpt lat="45.67536" lon="-1.12855">
        <ele>15</ele>
        <time>2021-03-28T17:26:18Z</time>
      </trkpt>
      <trkpt lat="45.67533" lon="-1.12852">
        <ele>14.9</ele>
        <time>2021-03-28T17:26:22Z</time>
      </trkpt>
      <trkpt lat="45.67529" lon="-1.12851">
        <ele>14.7</ele>
        <time>2021-03-28T17:26:26Z</time>
      </trkpt>
      <trkpt lat="45.67519" lon="-1.12841">
        <ele>14.2</ele>
        <time>2021-03-28T17:26:40Z</time>
      </trkpt>
      <trkpt lat="45.67512" lon="-1.1283">
        <ele>13.7</ele>
        <time>2021-03-28T17:26:46Z</time>
      </trkpt>
      <trkpt lat="45.67504" lon="-1.12823">
        <ele>13.2</ele>
        <time>2021-03-28T17:26:54Z</time>
      </trkpt>
      <trkpt lat="45.67496" lon="-1.12815">
        <ele>12.8</ele>
        <time>2021-03-28T17:27:03Z</time>
      </trkpt>
      <trkpt lat="45.67476" lon="-1.12801">
        <ele>12.1</ele>
        <time>2021-03-28T17:27:21Z</time>
      </trkpt>
      <trkpt lat="45.67471" lon="-1.12799">
        <ele>11.9</ele>
        <time>2021-03-28T17:27:27Z</time>
      </trkpt>
      <trkpt lat="45.67467" lon="-1.12795">
        <ele>11.7</ele>
        <time>2021-03-28T17:27:32Z</time>
      </trkpt>
      <trkpt lat="45.67449" lon="-1.12779">
        <ele>11.3</ele>
        <time>2021-03-28T17:27:53Z</time>
      </trkpt>
      <trkpt lat="45.67448" lon="-1.12775">
        <ele>11.3</ele>
        <time>2021-03-28T17:27:57Z</time>
      </trkpt>
      <trkpt lat="45.67444" lon="-1.12773">
        <ele>11.3</ele>
        <time>2021-03-28T17:28:01Z</time>
      </trkpt>
      <trkpt lat="45.67417" lon="-1.12747">
        <ele>11.3</ele>
        <time>2021-03-28T17:28:31Z</time>
      </trkpt>
      <trkpt lat="45.67409" lon="-1.12746">
        <ele>11.3</ele>
        <time>2021-03-28T17:28:37Z</time>
      </trkpt>
      <trkpt lat="45.67405" lon="-1.12743">
        <ele>11.3</ele>
        <time>2021-03-28T17:28:41Z</time>
      </trkpt>
      <trkpt lat="45.67398" lon="-1.12734">
        <ele>11.3</ele>
        <time>2021-03-28T17:28:48Z</time>
      </trkpt>
      <trkpt lat="45.67394" lon="-1.1273">
        <ele>11.4</ele>
        <time>2021-03-28T17:28:53Z</time>
      </trkpt>
      <trkpt lat="45.67391" lon="-1.12729">
        <ele>11.4</ele>
        <time>2021-03-28T17:28:56Z</time>
      </trkpt>
      <trkpt lat="45.67385" lon="-1.12722">
        <ele>11.4</ele>
        <time>2021-03-28T17:29:03Z</time>
      </trkpt>
      <trkpt lat="45.67383" lon="-1.12716">
        <ele>11.5</ele>
        <time>2021-03-28T17:29:09Z</time>
      </trkpt>
      <trkpt lat="45.6738" lon="-1.12713">
        <ele>11.5</ele>
        <time>2021-03-28T17:29:12Z</time>
      </trkpt>
      <trkpt lat="45.67377" lon="-1.12713">
        <ele>11.5</ele>
        <time>2021-03-28T17:29:15Z</time>
      </trkpt>
      <trkpt lat="45.67366" lon="-1.12706">
        <ele>11.5</ele>
        <time>2021-03-28T17:29:26Z</time>
      </trkpt>
      <trkpt lat="45.67362" lon="-1.12706">
        <ele>11.4</ele>
        <time>2021-03-28T17:29:30Z</time>
      </trkpt>
      <trkpt lat="45.67361" lon="-1.12702">
        <ele>11.4</ele>
        <time>2021-03-28T17:29:34Z</time>
      </trkpt>
      <trkpt lat="45.67352" lon="-1.12692">
        <ele>11.3</ele>
        <time>2021-03-28T17:29:41Z</time>
      </trkpt>
      <trkpt lat="45.67341" lon="-1.12684">
        <ele>11.3</ele>
        <time>2021-03-28T17:29:51Z</time>
      </trkpt>
      <trkpt lat="45.67338" lon="-1.1268">
        <ele>11.3</ele>
        <time>2021-03-28T17:29:54Z</time>
      </trkpt>
      <trkpt lat="45.67334" lon="-1.12676">
        <ele>11.3</ele>
        <time>2021-03-28T17:29:59Z</time>
      </trkpt>
      <trkpt lat="45.6733" lon="-1.12672">
        <ele>11.3</ele>
        <time>2021-03-28T17:30:03Z</time>
      </trkpt>
      <trkpt lat="45.67329" lon="-1.12669">
        <ele>11.3</ele>
        <time>2021-03-28T17:30:06Z</time>
      </trkpt>
      <trkpt lat="45.67327" lon="-1.12667">
        <ele>11.3</ele>
        <time>2021-03-28T17:30:09Z</time>
      </trkpt>
      <trkpt lat="45.67326" lon="-1.12658">
        <ele>11.4</ele>
        <time>2021-03-28T17:30:15Z</time>
      </trkpt>
      <trkpt lat="45.67311" lon="-1.12644">
        <ele>11.3</ele>
        <time>2021-03-28T17:30:31Z</time>
      </trkpt>
      <trkpt lat="45.67291" lon="-1.1263">
        <ele>11.1</ele>
        <time>2021-03-28T17:30:49Z</time>
      </trkpt>
      <trkpt lat="45.67288" lon="-1.12625">
        <ele>11</ele>
        <time>2021-03-28T17:30:54Z</time>
      </trkpt>
      <trkpt lat="45.67275" lon="-1.12609">
        <ele>10.9</ele>
        <time>2021-03-28T17:31:08Z</time>
      </trkpt>
      <trkpt lat="45.67263" lon="-1.126">
        <ele>11</ele>
        <time>2021-03-28T17:31:19Z</time>
      </trkpt>
      <trkpt lat="45.67249" lon="-1.12585">
        <ele>10.9</ele>
        <time>2021-03-28T17:31:35Z</time>
      </trkpt>
      <trkpt lat="45.6724" lon="-1.1258">
        <ele>10.8</ele>
        <time>2021-03-28T17:31:43Z</time>
      </trkpt>
      <trkpt lat="45.67235" lon="-1.12575">
        <ele>10.7</ele>
        <time>2021-03-28T17:31:48Z</time>
      </trkpt>
      <trkpt lat="45.67229" lon="-1.12578">
        <ele>10.6</ele>
        <time>2021-03-28T17:31:54Z</time>
      </trkpt>
      <trkpt lat="45.67221" lon="-1.12571">
        <ele>10.5</ele>
        <time>2021-03-28T17:32:02Z</time>
      </trkpt>
      <trkpt lat="45.67217" lon="-1.12565">
        <ele>10.4</ele>
        <time>2021-03-28T17:32:07Z</time>
      </trkpt>
      <trkpt lat="45.67207" lon="-1.12557">
        <ele>10.3</ele>
        <time>2021-03-28T17:32:17Z</time>
      </trkpt>
      <trkpt lat="45.67201" lon="-1.12547">
        <ele>10.2</ele>
        <time>2021-03-28T17:32:25Z</time>
      </trkpt>
      <trkpt lat="45.67198" lon="-1.12545">
        <ele>10.1</ele>
        <time>2021-03-28T17:32:28Z</time>
      </trkpt>
      <trkpt lat="45.67192" lon="-1.12539">
        <ele>10.1</ele>
        <time>2021-03-28T17:32:34Z</time>
      </trkpt>
      <trkpt lat="45.67187" lon="-1.12531">
        <ele>10.1</ele>
        <time>2021-03-28T17:32:40Z</time>
      </trkpt>
      <trkpt lat="45.67181" lon="-1.12525">
        <ele>10</ele>
        <time>2021-03-28T17:32:46Z</time>
      </trkpt>
      <trkpt lat="45.67161" lon="-1.12512">
        <ele>10</ele>
        <time>2021-03-28T17:33:05Z</time>
      </trkpt>
      <trkpt lat="45.67157" lon="-1.12512">
        <ele>10.1</ele>
        <time>2021-03-28T17:33:09Z</time>
      </trkpt>
      <trkpt lat="45.67152" lon="-1.12509">
        <ele>10.1</ele>
        <time>2021-03-28T17:33:14Z</time>
      </trkpt>
      <trkpt lat="45.67146" lon="-1.12502">
        <ele>10.2</ele>
        <time>2021-03-28T17:33:20Z</time>
      </trkpt>
      <trkpt lat="45.67139" lon="-1.12494">
        <ele>10.3</ele>
        <time>2021-03-28T17:33:27Z</time>
      </trkpt>
      <trkpt lat="45.67126" lon="-1.12484">
        <ele>10.6</ele>
        <time>2021-03-28T17:33:37Z</time>
      </trkpt>
      <trkpt lat="45.67109" lon="-1.12465">
        <ele>10.5</ele>
        <time>2021-03-28T17:33:57Z</time>
      </trkpt>
      <trkpt lat="45.67104" lon="-1.12462">
        <ele>10.4</ele>
        <time>2021-03-28T17:34:01Z</time>
      </trkpt>
      <trkpt lat="45.67097" lon="-1.12462">
        <ele>10.3</ele>
        <time>2021-03-28T17:34:07Z</time>
      </trkpt>
      <trkpt lat="45.6709" lon="-1.12465">
        <ele>10.5</ele>
        <time>2021-03-28T17:34:14Z</time>
      </trkpt>
      <trkpt lat="45.67087" lon="-1.12469">
        <ele>10.5</ele>
        <time>2021-03-28T17:34:17Z</time>
      </trkpt>
      <trkpt lat="45.67087" lon="-1.12477">
        <ele>10.5</ele>
        <time>2021-03-28T17:34:22Z</time>
      </trkpt>
      <trkpt lat="45.67085" lon="-1.1248">
        <ele>10.5</ele>
        <time>2021-03-28T17:34:25Z</time>
      </trkpt>
      <trkpt lat="45.67086" lon="-1.12493">
        <ele>10.5</ele>
        <time>2021-03-28T17:34:32Z</time>
      </trkpt>
      <trkpt lat="45.67082" lon="-1.12525">
        <ele>10.6</ele>
        <time>2021-03-28T17:34:55Z</time>
      </trkpt>
      <trkpt lat="45.6708" lon="-1.12531">
        <ele>10.6</ele>
        <time>2021-03-28T17:34:59Z</time>
      </trkpt>
      <trkpt lat="45.67079" lon="-1.12545">
        <ele>10.6</ele>
        <time>2021-03-28T17:35:08Z</time>
      </trkpt>
      <trkpt lat="45.67077" lon="-1.12545">
        <ele>10.6</ele>
        <time>2021-03-28T17:35:11Z</time>
      </trkpt>
      <trkpt lat="45.67076" lon="-1.12541">
        <ele>10.6</ele>
        <time>2021-03-28T17:35:15Z</time>
      </trkpt>
      <trkpt lat="45.67072" lon="-1.12536">
        <ele>10.6</ele>
        <time>2021-03-28T17:35:20Z</time>
      </trkpt>
      <trkpt lat="45.67067" lon="-1.12535">
        <ele>10.6</ele>
        <time>2021-03-28T17:35:24Z</time>
      </trkpt>
      <trkpt lat="45.67064" lon="-1.12552">
        <ele>10.6</ele>
        <time>2021-03-28T17:35:36Z</time>
      </trkpt>
      <trkpt lat="45.67061" lon="-1.12557">
        <ele>10.6</ele>
        <time>2021-03-28T17:35:40Z</time>
      </trkpt>
      <trkpt lat="45.67058" lon="-1.12568">
        <ele>10.6</ele>
        <time>2021-03-28T17:35:45Z</time>
      </trkpt>
      <trkpt lat="45.67053" lon="-1.12578">
        <ele>10.6</ele>
        <time>2021-03-28T17:35:52Z</time>
      </trkpt>
      <trkpt lat="45.67035" lon="-1.12592">
        <ele>11.1</ele>
        <time>2021-03-28T17:36:09Z</time>
      </trkpt>
      <trkpt lat="45.67033" lon="-1.1259">
        <ele>11.2</ele>
        <time>2021-03-28T17:36:12Z</time>
      </trkpt>
      <trkpt lat="45.67028" lon="-1.12594">
        <ele>11.5</ele>
        <time>2021-03-28T17:36:20Z</time>
      </trkpt>
      <trkpt lat="45.67019" lon="-1.12614">
        <ele>12.1</ele>
        <time>2021-03-28T17:36:37Z</time>
      </trkpt>
      <trkpt lat="45.67006" lon="-1.12669">
        <ele>10.6</ele>
        <time>2021-03-28T17:37:13Z</time>
      </trkpt>
      <trkpt lat="45.66995" lon="-1.12683">
        <ele>10.3</ele>
        <time>2021-03-28T17:37:27Z</time>
      </trkpt>
      <trkpt lat="45.66992" lon="-1.12691">
        <ele>10.3</ele>
        <time>2021-03-28T17:37:33Z</time>
      </trkpt>
      <trkpt lat="45.6699" lon="-1.12701">
        <ele>10.4</ele>
        <time>2021-03-28T17:37:40Z</time>
      </trkpt>
      <trkpt lat="45.6699" lon="-1.1271">
        <ele>10.4</ele>
        <time>2021-03-28T17:37:46Z</time>
      </trkpt>
      <trkpt lat="45.66988" lon="-1.12714">
        <ele>10.4</ele>
        <time>2021-03-28T17:37:49Z</time>
      </trkpt>
      <trkpt lat="45.66985" lon="-1.12715">
        <ele>10.3</ele>
        <time>2021-03-28T17:37:51Z</time>
      </trkpt>
      <trkpt lat="45.66965" lon="-1.12705">
        <ele>9.7</ele>
        <time>2021-03-28T17:38:12Z</time>
      </trkpt>
      <trkpt lat="45.66955" lon="-1.12696">
        <ele>9.6</ele>
        <time>2021-03-28T17:38:22Z</time>
      </trkpt>
      <trkpt lat="45.66946" lon="-1.1269">
        <ele>9.7</ele>
        <time>2021-03-28T17:38:30Z</time>
      </trkpt>
      <trkpt lat="45.66931" lon="-1.12684">
        <ele>9.7</ele>
        <time>2021-03-28T17:38:43Z</time>
      </trkpt>
      <trkpt lat="45.66925" lon="-1.12678">
        <ele>9.6</ele>
        <time>2021-03-28T17:38:49Z</time>
      </trkpt>
      <trkpt lat="45.66917" lon="-1.12674">
        <ele>9.6</ele>
        <time>2021-03-28T17:38:55Z</time>
      </trkpt>
      <trkpt lat="45.66901" lon="-1.12659">
        <ele>9.6</ele>
        <time>2021-03-28T17:39:11Z</time>
      </trkpt>
      <trkpt lat="45.66892" lon="-1.12655">
        <ele>9.6</ele>
        <time>2021-03-28T17:39:19Z</time>
      </trkpt>
      <trkpt lat="45.6687" lon="-1.12633">
        <ele>9.9</ele>
        <time>2021-03-28T17:39:39Z</time>
      </trkpt>
      <trkpt lat="45.6686" lon="-1.12628">
        <ele>9.9</ele>
        <time>2021-03-28T17:39:48Z</time>
      </trkpt>
      <trkpt lat="45.66851" lon="-1.12621">
        <ele>10</ele>
        <time>2021-03-28T17:39:57Z</time>
      </trkpt>
      <trkpt lat="45.66845" lon="-1.12612">
        <ele>10.2</ele>
        <time>2021-03-28T17:40:06Z</time>
      </trkpt>
      <trkpt lat="45.66837" lon="-1.12588">
        <ele>10.9</ele>
        <time>2021-03-28T17:40:21Z</time>
      </trkpt>
      <trkpt lat="45.66825" lon="-1.1257">
        <ele>11.4</ele>
        <time>2021-03-28T17:40:36Z</time>
      </trkpt>
      <trkpt lat="45.6681" lon="-1.12556">
        <ele>11</ele>
        <time>2021-03-28T17:40:51Z</time>
      </trkpt>
      <trkpt lat="45.66794" lon="-1.12528">
        <ele>10.7</ele>
        <time>2021-03-28T17:41:12Z</time>
      </trkpt>
      <trkpt lat="45.66778" lon="-1.12511">
        <ele>11</ele>
        <time>2021-03-28T17:41:29Z</time>
      </trkpt>
      <trkpt lat="45.66774" lon="-1.12505">
        <ele>11.1</ele>
        <time>2021-03-28T17:41:38Z</time>
      </trkpt>
      <trkpt lat="45.66769" lon="-1.125">
        <ele>11.2</ele>
        <time>2021-03-28T17:41:44Z</time>
      </trkpt>
      <trkpt lat="45.66766" lon="-1.12495">
        <ele>11.3</ele>
        <time>2021-03-28T17:41:48Z</time>
      </trkpt>
      <trkpt lat="45.66755" lon="-1.12484">
        <ele>11.4</ele>
        <time>2021-03-28T17:41:59Z</time>
      </trkpt>
      <trkpt lat="45.66752" lon="-1.12484">
        <ele>11.4</ele>
        <time>2021-03-28T17:42:01Z</time>
      </trkpt>
      <trkpt lat="45.66746" lon="-1.1248">
        <ele>11.4</ele>
        <time>2021-03-28T17:42:07Z</time>
      </trkpt>
      <trkpt lat="45.66736" lon="-1.12471">
        <ele>11.3</ele>
        <time>2021-03-28T17:42:16Z</time>
      </trkpt>
      <trkpt lat="45.6673" lon="-1.12471">
        <ele>11.4</ele>
        <time>2021-03-28T17:42:21Z</time>
      </trkpt>
      <trkpt lat="45.66727" lon="-1.12477">
        <ele>11.4</ele>
        <time>2021-03-28T17:42:27Z</time>
      </trkpt>
      <trkpt lat="45.66725" lon="-1.12476">
        <ele>11.4</ele>
        <time>2021-03-28T17:42:29Z</time>
      </trkpt>
      <trkpt lat="45.66724" lon="-1.12481">
        <ele>11.5</ele>
        <time>2021-03-28T17:42:36Z</time>
      </trkpt>
      <trkpt lat="45.66705" lon="-1.12501">
        <ele>11.4</ele>
        <time>2021-03-28T17:43:00Z</time>
      </trkpt>
      <trkpt lat="45.66704" lon="-1.12505">
        <ele>11.5</ele>
        <time>2021-03-28T17:43:09Z</time>
      </trkpt>
      <trkpt lat="45.66699" lon="-1.12509">
        <ele>11.9</ele>
        <time>2021-03-28T17:43:21Z</time>
      </trkpt>
      <trkpt lat="45.66688" lon="-1.12519">
        <ele>13.2</ele>
        <time>2021-03-28T17:43:35Z</time>
      </trkpt>
      <trkpt lat="45.66684" lon="-1.12528">
        <ele>14.3</ele>
        <time>2021-03-28T17:43:45Z</time>
      </trkpt>
      <trkpt lat="45.66683" lon="-1.12529">
        <ele>14.5</ele>
        <time>2021-03-28T17:43:48Z</time>
      </trkpt>
      <trkpt lat="45.66678" lon="-1.12528">
        <ele>15.3</ele>
        <time>2021-03-28T17:43:55Z</time>
      </trkpt>
      <trkpt lat="45.66674" lon="-1.12524">
        <ele>15.9</ele>
        <time>2021-03-28T17:44:03Z</time>
      </trkpt>
      <trkpt lat="45.66665" lon="-1.12509">
        <ele>16.7</ele>
        <time>2021-03-28T17:44:18Z</time>
      </trkpt>
      <trkpt lat="45.66656" lon="-1.12501">
        <ele>17</ele>
        <time>2021-03-28T17:44:26Z</time>
      </trkpt>
      <trkpt lat="45.66646" lon="-1.12485">
        <ele>17.6</ele>
        <time>2021-03-28T17:44:41Z</time>
      </trkpt>
      <trkpt lat="45.66643" lon="-1.12475">
        <ele>18.2</ele>
        <time>2021-03-28T17:44:50Z</time>
      </trkpt>
      <trkpt lat="45.66637" lon="-1.12471">
        <ele>18.8</ele>
        <time>2021-03-28T17:44:59Z</time>
      </trkpt>
      <trkpt lat="45.66635" lon="-1.1247">
        <ele>19</ele>
        <time>2021-03-28T17:45:01Z</time>
      </trkpt>
      <trkpt lat="45.66626" lon="-1.12473">
        <ele>20.1</ele>
        <time>2021-03-28T17:45:12Z</time>
      </trkpt>
      <trkpt lat="45.66622" lon="-1.12473">
        <ele>20.1</ele>
        <time>2021-03-28T17:45:15Z</time>
      </trkpt>
      <trkpt lat="45.66614" lon="-1.12477">
        <ele>20.2</ele>
        <time>2021-03-28T17:45:25Z</time>
      </trkpt>
      <trkpt lat="45.66613" lon="-1.12478">
        <ele>20.2</ele>
        <time>2021-03-28T17:45:27Z</time>
      </trkpt>
      <trkpt lat="45.6661" lon="-1.12496">
        <ele>20</ele>
        <time>2021-03-28T17:45:39Z</time>
      </trkpt>
      <trkpt lat="45.66611" lon="-1.12498">
        <ele>19.9</ele>
        <time>2021-03-28T17:45:42Z</time>
      </trkpt>
      <trkpt lat="45.66609" lon="-1.12502">
        <ele>19.8</ele>
        <time>2021-03-28T17:45:45Z</time>
      </trkpt>
      <trkpt lat="45.66609" lon="-1.12503">
        <ele>19.7</ele>
        <time>2021-03-28T17:45:49Z</time>
      </trkpt>
      <trkpt lat="45.66605" lon="-1.1251">
        <ele>19.3</ele>
        <time>2021-03-28T17:45:56Z</time>
      </trkpt>
      <trkpt lat="45.66597" lon="-1.12531">
        <ele>18.1</ele>
        <time>2021-03-28T17:46:08Z</time>
      </trkpt>
      <trkpt lat="45.66587" lon="-1.12545">
        <ele>17</ele>
        <time>2021-03-28T17:46:26Z</time>
      </trkpt>
      <trkpt lat="45.66581" lon="-1.1255">
        <ele>16.4</ele>
        <time>2021-03-28T17:46:33Z</time>
      </trkpt>
      <trkpt lat="45.66575" lon="-1.12558">
        <ele>15.7</ele>
        <time>2021-03-28T17:46:40Z</time>
      </trkpt>
      <trkpt lat="45.66569" lon="-1.12565">
        <ele>15.1</ele>
        <time>2021-03-28T17:46:45Z</time>
      </trkpt>
      <trkpt lat="45.66552" lon="-1.12576">
        <ele>13.8</ele>
        <time>2021-03-28T17:47:00Z</time>
      </trkpt>
      <trkpt lat="45.66538" lon="-1.12587">
        <ele>12.9</ele>
        <time>2021-03-28T17:47:16Z</time>
      </trkpt>
      <trkpt lat="45.66518" lon="-1.12597">
        <ele>12</ele>
        <time>2021-03-28T17:47:32Z</time>
      </trkpt>
      <trkpt lat="45.66511" lon="-1.12599">
        <ele>11.8</ele>
        <time>2021-03-28T17:47:38Z</time>
      </trkpt>
      <trkpt lat="45.665" lon="-1.12607">
        <ele>11.4</ele>
        <time>2021-03-28T17:47:49Z</time>
      </trkpt>
      <trkpt lat="45.66495" lon="-1.12609">
        <ele>11.2</ele>
        <time>2021-03-28T17:47:54Z</time>
      </trkpt>
      <trkpt lat="45.66475" lon="-1.12621">
        <ele>10.7</ele>
        <time>2021-03-28T17:48:14Z</time>
      </trkpt>
      <trkpt lat="45.66468" lon="-1.12629">
        <ele>10.6</ele>
        <time>2021-03-28T17:48:23Z</time>
      </trkpt>
      <trkpt lat="45.66458" lon="-1.12634">
        <ele>10.5</ele>
        <time>2021-03-28T17:48:33Z</time>
      </trkpt>
      <trkpt lat="45.66455" lon="-1.12638">
        <ele>10.4</ele>
        <time>2021-03-28T17:48:37Z</time>
      </trkpt>
      <trkpt lat="45.66444" lon="-1.12653">
        <ele>10.2</ele>
        <time>2021-03-28T17:48:49Z</time>
      </trkpt>
      <trkpt lat="45.6644" lon="-1.12668">
        <ele>10.2</ele>
        <time>2021-03-28T17:48:58Z</time>
      </trkpt>
      <trkpt lat="45.66438" lon="-1.1267">
        <ele>10.1</ele>
        <time>2021-03-28T17:49:00Z</time>
      </trkpt>
      <trkpt lat="45.66425" lon="-1.12706">
        <ele>10.2</ele>
        <time>2021-03-28T17:49:23Z</time>
      </trkpt>
      <trkpt lat="45.6642" lon="-1.12712">
        <ele>10.3</ele>
        <time>2021-03-28T17:49:28Z</time>
      </trkpt>
      <trkpt lat="45.66417" lon="-1.12718">
        <ele>10.4</ele>
        <time>2021-03-28T17:49:34Z</time>
      </trkpt>
      <trkpt lat="45.66416" lon="-1.12721">
        <ele>10.4</ele>
        <time>2021-03-28T17:49:37Z</time>
      </trkpt>
      <trkpt lat="45.66415" lon="-1.12722">
        <ele>10.4</ele>
        <time>2021-03-28T17:49:40Z</time>
      </trkpt>
      <trkpt lat="45.66414" lon="-1.12726">
        <ele>10.4</ele>
        <time>2021-03-28T17:49:44Z</time>
      </trkpt>
      <trkpt lat="45.66411" lon="-1.12732">
        <ele>10.4</ele>
        <time>2021-03-28T17:49:50Z</time>
      </trkpt>
      <trkpt lat="45.66401" lon="-1.12764">
        <ele>10.4</ele>
        <time>2021-03-28T17:50:13Z</time>
      </trkpt>
      <trkpt lat="45.66394" lon="-1.12778">
        <ele>10.3</ele>
        <time>2021-03-28T17:50:24Z</time>
      </trkpt>
      <trkpt lat="45.66389" lon="-1.12797">
        <ele>10.3</ele>
        <time>2021-03-28T17:50:35Z</time>
      </trkpt>
      <trkpt lat="45.66377" lon="-1.12827">
        <ele>10.3</ele>
        <time>2021-03-28T17:50:56Z</time>
      </trkpt>
      <trkpt lat="45.66367" lon="-1.12842">
        <ele>10.2</ele>
        <time>2021-03-28T17:51:08Z</time>
      </trkpt>
      <trkpt lat="45.66361" lon="-1.12847">
        <ele>10.1</ele>
        <time>2021-03-28T17:51:15Z</time>
      </trkpt>
      <trkpt lat="45.66348" lon="-1.12867">
        <ele>10.1</ele>
        <time>2021-03-28T17:51:30Z</time>
      </trkpt>
      <trkpt lat="45.66344" lon="-1.12876">
        <ele>10.2</ele>
        <time>2021-03-28T17:51:36Z</time>
      </trkpt>
      <trkpt lat="45.66341" lon="-1.12884">
        <ele>10.2</ele>
        <time>2021-03-28T17:51:41Z</time>
      </trkpt>
      <trkpt lat="45.66335" lon="-1.12898">
        <ele>10.4</ele>
        <time>2021-03-28T17:51:52Z</time>
      </trkpt>
      <trkpt lat="45.66314" lon="-1.12932">
        <ele>10.4</ele>
        <time>2021-03-28T17:52:18Z</time>
      </trkpt>
      <trkpt lat="45.66295" lon="-1.12954">
        <ele>11.4</ele>
        <time>2021-03-28T17:52:37Z</time>
      </trkpt>
      <trkpt lat="45.66273" lon="-1.12992">
        <ele>13.8</ele>
        <time>2021-03-28T17:53:10Z</time>
      </trkpt>
      <trkpt lat="45.66264" lon="-1.13019">
        <ele>13.7</ele>
        <time>2021-03-28T17:53:29Z</time>
      </trkpt>
      <trkpt lat="45.66256" lon="-1.13034">
        <ele>13.2</ele>
        <time>2021-03-28T17:53:41Z</time>
      </trkpt>
      <trkpt lat="45.66245" lon="-1.13064">
        <ele>11.8</ele>
        <time>2021-03-28T17:54:02Z</time>
      </trkpt>
      <trkpt lat="45.66244" lon="-1.13077">
        <ele>11.4</ele>
        <time>2021-03-28T17:54:09Z</time>
      </trkpt>
      <trkpt lat="45.66244" lon="-1.13094">
        <ele>11</ele>
        <time>2021-03-28T17:54:19Z</time>
      </trkpt>
      <trkpt lat="45.66249" lon="-1.13107">
        <ele>10.6</ele>
        <time>2021-03-28T17:54:31Z</time>
      </trkpt>
      <trkpt lat="45.66254" lon="-1.13143">
        <ele>9.5</ele>
        <time>2021-03-28T17:54:51Z</time>
      </trkpt>
      <trkpt lat="45.66255" lon="-1.1315">
        <ele>9.3</ele>
        <time>2021-03-28T17:54:55Z</time>
      </trkpt>
      <trkpt lat="45.66256" lon="-1.13159">
        <ele>9.2</ele>
        <time>2021-03-28T17:55:02Z</time>
      </trkpt>
      <trkpt lat="45.66266" lon="-1.13201">
        <ele>8.8</ele>
        <time>2021-03-28T17:55:28Z</time>
      </trkpt>
      <trkpt lat="45.66266" lon="-1.13208">
        <ele>8.8</ele>
        <time>2021-03-28T17:55:33Z</time>
      </trkpt>
      <trkpt lat="45.66267" lon="-1.13221">
        <ele>8.8</ele>
        <time>2021-03-28T17:55:42Z</time>
      </trkpt>
      <trkpt lat="45.6627" lon="-1.1323">
        <ele>8.8</ele>
        <time>2021-03-28T17:55:48Z</time>
      </trkpt>
      <trkpt lat="45.66274" lon="-1.1327">
        <ele>8.7</ele>
        <time>2021-03-28T17:56:15Z</time>
      </trkpt>
      <trkpt lat="45.66275" lon="-1.13272">
        <ele>8.7</ele>
        <time>2021-03-28T17:56:17Z</time>
      </trkpt>
      <trkpt lat="45.66273" lon="-1.13285">
        <ele>8.7</ele>
        <time>2021-03-28T17:56:29Z</time>
      </trkpt>
      <trkpt lat="45.66278" lon="-1.13287">
        <ele>8.8</ele>
        <time>2021-03-28T17:56:33Z</time>
      </trkpt>
      <trkpt lat="45.6628" lon="-1.13301">
        <ele>8.7</ele>
        <time>2021-03-28T17:56:41Z</time>
      </trkpt>
      <trkpt lat="45.66281" lon="-1.13304">
        <ele>8.7</ele>
        <time>2021-03-28T17:56:44Z</time>
      </trkpt>
      <trkpt lat="45.66289" lon="-1.13309">
        <ele>8.6</ele>
        <time>2021-03-28T17:56:49Z</time>
      </trkpt>
      <trkpt lat="45.66294" lon="-1.13317">
        <ele>8.5</ele>
        <time>2021-03-28T17:56:55Z</time>
      </trkpt>
      <trkpt lat="45.66297" lon="-1.13329">
        <ele>8.4</ele>
        <time>2021-03-28T17:57:04Z</time>
      </trkpt>
      <trkpt lat="45.66299" lon="-1.13338">
        <ele>8.4</ele>
        <time>2021-03-28T17:57:08Z</time>
      </trkpt>
      <trkpt lat="45.66297" lon="-1.1335">
        <ele>8.6</ele>
        <time>2021-03-28T17:57:15Z</time>
      </trkpt>
      <trkpt lat="45.66294" lon="-1.13358">
        <ele>8.7</ele>
        <time>2021-03-28T17:57:20Z</time>
      </trkpt>
      <trkpt lat="45.66287" lon="-1.1337">
        <ele>8.9</ele>
        <time>2021-03-28T17:57:30Z</time>
      </trkpt>
      <trkpt lat="45.66286" lon="-1.13375">
        <ele>9</ele>
        <time>2021-03-28T17:57:34Z</time>
      </trkpt>
      <trkpt lat="45.66284" lon="-1.13379">
        <ele>9</ele>
        <time>2021-03-28T17:57:37Z</time>
      </trkpt>
      <trkpt lat="45.66283" lon="-1.13381">
        <ele>9</ele>
        <time>2021-03-28T17:57:39Z</time>
      </trkpt>
      <trkpt lat="45.66277" lon="-1.13385">
        <ele>9.2</ele>
        <time>2021-03-28T17:57:46Z</time>
      </trkpt>
      <trkpt lat="45.66263" lon="-1.13391">
        <ele>9.6</ele>
        <time>2021-03-28T17:57:56Z</time>
      </trkpt>
      <trkpt lat="45.66253" lon="-1.134">
        <ele>10</ele>
        <time>2021-03-28T17:58:05Z</time>
      </trkpt>
      <trkpt lat="45.66252" lon="-1.13403">
        <ele>10</ele>
        <time>2021-03-28T17:58:08Z</time>
      </trkpt>
      <trkpt lat="45.66247" lon="-1.13405">
        <ele>10.2</ele>
        <time>2021-03-28T17:58:12Z</time>
      </trkpt>
      <trkpt lat="45.66237" lon="-1.13407">
        <ele>10.5</ele>
        <time>2021-03-28T17:58:24Z</time>
      </trkpt>
      <trkpt lat="45.66231" lon="-1.13412">
        <ele>10.8</ele>
        <time>2021-03-28T17:58:31Z</time>
      </trkpt>
      <trkpt lat="45.6621" lon="-1.13422">
        <ele>11.7</ele>
        <time>2021-03-28T17:58:53Z</time>
      </trkpt>
      <trkpt lat="45.66204" lon="-1.13431">
        <ele>11.8</ele>
        <time>2021-03-28T17:59:01Z</time>
      </trkpt>
      <trkpt lat="45.66202" lon="-1.13434">
        <ele>11.8</ele>
        <time>2021-03-28T17:59:04Z</time>
      </trkpt>
      <trkpt lat="45.66199" lon="-1.13434">
        <ele>11.9</ele>
        <time>2021-03-28T17:59:06Z</time>
      </trkpt>
      <trkpt lat="45.66195" lon="-1.13442">
        <ele>12</ele>
        <time>2021-03-28T17:59:13Z</time>
      </trkpt>
      <trkpt lat="45.66192" lon="-1.13444">
        <ele>11.9</ele>
        <time>2021-03-28T17:59:16Z</time>
      </trkpt>
      <trkpt lat="45.6619" lon="-1.13447">
        <ele>11.8</ele>
        <time>2021-03-28T17:59:20Z</time>
      </trkpt>
      <trkpt lat="45.66182" lon="-1.13452">
        <ele>11.6</ele>
        <time>2021-03-28T17:59:27Z</time>
      </trkpt>
      <trkpt lat="45.66174" lon="-1.13459">
        <ele>11.4</ele>
        <time>2021-03-28T17:59:39Z</time>
      </trkpt>
      <trkpt lat="45.66172" lon="-1.13464">
        <ele>11.3</ele>
        <time>2021-03-28T17:59:43Z</time>
      </trkpt>
      <trkpt lat="45.66173" lon="-1.13471">
        <ele>11.2</ele>
        <time>2021-03-28T17:59:49Z</time>
      </trkpt>
      <trkpt lat="45.66171" lon="-1.13473">
        <ele>11.1</ele>
        <time>2021-03-28T18:00:02Z</time>
      </trkpt>
      <trkpt lat="45.66172" lon="-1.13469">
        <ele>11</ele>
        <time>2021-03-28T18:00:19Z</time>
      </trkpt>
      <trkpt lat="45.66168" lon="-1.13462">
        <ele>10.8</ele>
        <time>2021-03-28T18:00:35Z</time>
      </trkpt>
      <trkpt lat="45.66166" lon="-1.13468">
        <ele>10.7</ele>
        <time>2021-03-28T18:00:43Z</time>
      </trkpt>
      <trkpt lat="45.66163" lon="-1.13469">
        <ele>10.7</ele>
        <time>2021-03-28T18:01:00Z</time>
      </trkpt>
      <trkpt lat="45.66164" lon="-1.13468">
        <ele>10.6</ele>
        <time>2021-03-28T18:01:23Z</time>
      </trkpt>
      <trkpt lat="45.6615" lon="-1.13476">
        <ele>10.3</ele>
        <time>2021-03-28T18:02:05Z</time>
      </trkpt>
      <trkpt lat="45.66149" lon="-1.13479">
        <ele>10.3</ele>
        <time>2021-03-28T18:02:11Z</time>
      </trkpt>
      <trkpt lat="45.66146" lon="-1.1348">
        <ele>10.2</ele>
        <time>2021-03-28T18:02:27Z</time>
      </trkpt>
      <trkpt lat="45.66146" lon="-1.13481">
        <ele>10.2</ele>
        <time>2021-03-28T18:02:36Z</time>
      </trkpt>
      <trkpt lat="45.66142" lon="-1.13487">
        <ele>10.2</ele>
        <time>2021-03-28T18:02:45Z</time>
      </trkpt>
      <trkpt lat="45.66138" lon="-1.13489">
        <ele>10.2</ele>
        <time>2021-03-28T18:02:48Z</time>
      </trkpt>
      <trkpt lat="45.66135" lon="-1.1349">
        <ele>10.1</ele>
        <time>2021-03-28T18:02:52Z</time>
      </trkpt>
      <trkpt lat="45.66134" lon="-1.13491">
        <ele>10.1</ele>
        <time>2021-03-28T18:02:54Z</time>
      </trkpt>
      <trkpt lat="45.66128" lon="-1.13498">
        <ele>10</ele>
        <time>2021-03-28T18:03:01Z</time>
      </trkpt>
      <trkpt lat="45.66124" lon="-1.13505">
        <ele>9.9</ele>
        <time>2021-03-28T18:03:10Z</time>
      </trkpt>
      <trkpt lat="45.66121" lon="-1.13513">
        <ele>9.8</ele>
        <time>2021-03-28T18:03:18Z</time>
      </trkpt>
      <trkpt lat="45.66113" lon="-1.1352">
        <ele>9.7</ele>
        <time>2021-03-28T18:03:24Z</time>
      </trkpt>
      <trkpt lat="45.6611" lon="-1.13525">
        <ele>9.6</ele>
        <time>2021-03-28T18:03:31Z</time>
      </trkpt>
      <trkpt lat="45.66104" lon="-1.13528">
        <ele>9.5</ele>
        <time>2021-03-28T18:03:37Z</time>
      </trkpt>
      <trkpt lat="45.66103" lon="-1.13531">
        <ele>9.5</ele>
        <time>2021-03-28T18:03:39Z</time>
      </trkpt>
      <trkpt lat="45.66102" lon="-1.13536">
        <ele>9.4</ele>
        <time>2021-03-28T18:03:42Z</time>
      </trkpt>
      <trkpt lat="45.66101" lon="-1.13541">
        <ele>9.4</ele>
        <time>2021-03-28T18:03:45Z</time>
      </trkpt>
      <trkpt lat="45.66097" lon="-1.13546">
        <ele>9.3</ele>
        <time>2021-03-28T18:03:50Z</time>
      </trkpt>
      <trkpt lat="45.66094" lon="-1.13554">
        <ele>9.2</ele>
        <time>2021-03-28T18:03:57Z</time>
      </trkpt>
      <trkpt lat="45.6609" lon="-1.13557">
        <ele>9.1</ele>
        <time>2021-03-28T18:04:02Z</time>
      </trkpt>
      <trkpt lat="45.66088" lon="-1.13566">
        <ele>9</ele>
        <time>2021-03-28T18:04:11Z</time>
      </trkpt>
      <trkpt lat="45.66083" lon="-1.13577">
        <ele>8.9</ele>
        <time>2021-03-28T18:04:25Z</time>
      </trkpt>
      <trkpt lat="45.66075" lon="-1.13579">
        <ele>8.8</ele>
        <time>2021-03-28T18:04:43Z</time>
      </trkpt>
      <trkpt lat="45.66072" lon="-1.13593">
        <ele>8.6</ele>
        <time>2021-03-28T18:04:58Z</time>
      </trkpt>
      <trkpt lat="45.66069" lon="-1.13599">
        <ele>8.5</ele>
        <time>2021-03-28T18:05:03Z</time>
      </trkpt>
      <trkpt lat="45.66064" lon="-1.13604">
        <ele>8.4</ele>
        <time>2021-03-28T18:05:08Z</time>
      </trkpt>
      <trkpt lat="45.66056" lon="-1.13616">
        <ele>8.2</ele>
        <time>2021-03-28T18:05:22Z</time>
      </trkpt>
      <trkpt lat="45.66055" lon="-1.1362">
        <ele>8.2</ele>
        <time>2021-03-28T18:05:28Z</time>
      </trkpt>
      <trkpt lat="45.66055" lon="-1.1362">
        <ele>8.2</ele>
        <time>2021-03-28T18:05:33Z</time>
      </trkpt>
      <trkpt lat="45.66052" lon="-1.13627">
        <ele>8.1</ele>
        <time>2021-03-28T18:05:44Z</time>
      </trkpt>
      <trkpt lat="45.66044" lon="-1.13634">
        <ele>7.8</ele>
        <time>2021-03-28T18:05:55Z</time>
      </trkpt>
      <trkpt lat="45.66036" lon="-1.13633">
        <ele>5.4</ele>
        <time>2021-03-28T18:06:03Z</time>
      </trkpt>
      <trkpt lat="45.66024" lon="-1.13627">
        <ele>0.5</ele>
        <time>2021-03-28T18:06:16Z</time>
      </trkpt>
      <trkpt lat="45.66017" lon="-1.1363">
        <ele>-1.6</ele>
        <time>2021-03-28T18:06:27Z</time>
      </trkpt>
      <trkpt lat="45.66018" lon="-1.13638">
        <ele>-1.8</ele>
        <time>2021-03-28T18:06:35Z</time>
      </trkpt>
      <trkpt lat="45.66017" lon="-1.13647">
        <ele>-1.4</ele>
        <time>2021-03-28T18:06:40Z</time>
      </trkpt>
      <trkpt lat="45.66019" lon="-1.13651">
        <ele>-0.4</ele>
        <time>2021-03-28T18:06:42Z</time>
      </trkpt>
      <trkpt lat="45.66024" lon="-1.13656">
        <ele>0.3</ele>
        <time>2021-03-28T18:06:48Z</time>
      </trkpt>
      <trkpt lat="45.66025" lon="-1.13662">
        <ele>2.1</ele>
        <time>2021-03-28T18:06:53Z</time>
      </trkpt>
      <trkpt lat="45.66024" lon="-1.13667">
        <ele>-1.2</ele>
        <time>2021-03-28T18:06:56Z</time>
      </trkpt>
      <trkpt lat="45.66022" lon="-1.13672">
        <ele>-1.9</ele>
        <time>2021-03-28T18:07:00Z</time>
      </trkpt>
      <trkpt lat="45.6602" lon="-1.1367">
        <ele>-1.9</ele>
        <time>2021-03-28T18:07:04Z</time>
      </trkpt>
      <trkpt lat="45.6602" lon="-1.13674">
        <ele>-2.3</ele>
        <time>2021-03-28T18:07:07Z</time>
      </trkpt>
      <trkpt lat="45.6601" lon="-1.13691">
        <ele>-1.8</ele>
        <time>2021-03-28T18:07:20Z</time>
      </trkpt>
      <trkpt lat="45.66013" lon="-1.1369">
        <ele>-1.8</ele>
        <time>2021-03-28T18:07:26Z</time>
      </trkpt>
      <trkpt lat="45.66014" lon="-1.13691">
        <ele>-2.2</ele>
        <time>2021-03-28T18:07:28Z</time>
      </trkpt>
      <trkpt lat="45.66015" lon="-1.13697">
        <ele>-2.2</ele>
        <time>2021-03-28T18:07:32Z</time>
      </trkpt>
      <trkpt lat="45.66015" lon="-1.13703">
        <ele>-2.2</ele>
        <time>2021-03-28T18:07:36Z</time>
      </trkpt>
      <trkpt lat="45.66014" lon="-1.13705">
        <ele>-2.2</ele>
        <time>2021-03-28T18:07:39Z</time>
      </trkpt>
      <trkpt lat="45.66014" lon="-1.13704">
        <ele>-2.2</ele>
        <time>2021-03-28T18:07:41Z</time>
      </trkpt>
      <trkpt lat="45.6601" lon="-1.13706">
        <ele>-1.9</ele>
        <time>2021-03-28T18:07:46Z</time>
      </trkpt>
      <trkpt lat="45.65998" lon="-1.13701">
        <ele>-1.8</ele>
        <time>2021-03-28T18:07:58Z</time>
      </trkpt>
      <trkpt lat="45.65988" lon="-1.1369">
        <ele>-2.1</ele>
        <time>2021-03-28T18:08:12Z</time>
      </trkpt>
      <trkpt lat="45.65985" lon="-1.13685">
        <ele>-2.1</ele>
        <time>2021-03-28T18:08:17Z</time>
      </trkpt>
      <trkpt lat="45.65979" lon="-1.13677">
        <ele>-2</ele>
        <time>2021-03-28T18:08:25Z</time>
      </trkpt>
      <trkpt lat="45.65979" lon="-1.13676">
        <ele>-2</ele>
        <time>2021-03-28T18:08:29Z</time>
      </trkpt>
      <trkpt lat="45.65978" lon="-1.13677">
        <ele>-2</ele>
        <time>2021-03-28T18:08:35Z</time>
      </trkpt>
      <trkpt lat="45.65979" lon="-1.13676">
        <ele>-2</ele>
        <time>2021-03-28T18:08:38Z</time>
      </trkpt>
      <trkpt lat="45.65975" lon="-1.13673">
        <ele>-2</ele>
        <time>2021-03-28T18:08:45Z</time>
      </trkpt>
      <trkpt lat="45.65973" lon="-1.13674">
        <ele>-2</ele>
        <time>2021-03-28T18:08:47Z</time>
      </trkpt>
      <trkpt lat="45.65974" lon="-1.13676">
        <ele>-2</ele>
        <time>2021-03-28T18:08:50Z</time>
      </trkpt>
      <trkpt lat="45.65975" lon="-1.13676">
        <ele>-2</ele>
        <time>2021-03-28T18:08:52Z</time>
      </trkpt>
      <trkpt lat="45.65972" lon="-1.13669">
        <ele>-2</ele>
        <time>2021-03-28T18:08:58Z</time>
      </trkpt>
      <trkpt lat="45.6597" lon="-1.1366">
        <ele>-2</ele>
        <time>2021-03-28T18:09:03Z</time>
      </trkpt>
      <trkpt lat="45.65967" lon="-1.13654">
        <ele>-2</ele>
        <time>2021-03-28T18:09:09Z</time>
      </trkpt>
      <trkpt lat="45.65966" lon="-1.13649">
        <ele>-2</ele>
        <time>2021-03-28T18:09:13Z</time>
      </trkpt>
      <trkpt lat="45.65964" lon="-1.13647">
        <ele>-2</ele>
        <time>2021-03-28T18:09:19Z</time>
      </trkpt>
      <trkpt lat="45.65962" lon="-1.13647">
        <ele>-2</ele>
        <time>2021-03-28T18:09:27Z</time>
      </trkpt>
      <trkpt lat="45.65963" lon="-1.13647">
        <ele>-2</ele>
        <time>2021-03-28T18:09:31Z</time>
      </trkpt>
      <trkpt lat="45.65963" lon="-1.13645">
        <ele>-2</ele>
        <time>2021-03-28T18:09:44Z</time>
      </trkpt>
      <trkpt lat="45.65959" lon="-1.13635">
        <ele>-2</ele>
        <time>2021-03-28T18:09:53Z</time>
      </trkpt>
      <trkpt lat="45.6595" lon="-1.13622">
        <ele>-2</ele>
        <time>2021-03-28T18:10:04Z</time>
      </trkpt>
      <trkpt lat="45.65941" lon="-1.13607">
        <ele>-1.9</ele>
        <time>2021-03-28T18:10:17Z</time>
      </trkpt>
      <trkpt lat="45.65935" lon="-1.13599">
        <ele>-2</ele>
        <time>2021-03-28T18:10:24Z</time>
      </trkpt>
      <trkpt lat="45.6593" lon="-1.13589">
        <ele>-2.1</ele>
        <time>2021-03-28T18:10:33Z</time>
      </trkpt>
      <trkpt lat="45.65929" lon="-1.13588">
        <ele>-2</ele>
        <time>2021-03-28T18:10:35Z</time>
      </trkpt>
      <trkpt lat="45.65928" lon="-1.13585">
        <ele>-2</ele>
        <time>2021-03-28T18:10:38Z</time>
      </trkpt>
      <trkpt lat="45.65924" lon="-1.13578">
        <ele>-2</ele>
        <time>2021-03-28T18:10:44Z</time>
      </trkpt>
      <trkpt lat="45.65917" lon="-1.1357">
        <ele>-1.9</ele>
        <time>2021-03-28T18:10:57Z</time>
      </trkpt>
      <trkpt lat="45.65914" lon="-1.13561">
        <ele>-1.9</ele>
        <time>2021-03-28T18:11:04Z</time>
      </trkpt>
      <trkpt lat="45.659" lon="-1.13541">
        <ele>-2.1</ele>
        <time>2021-03-28T18:11:23Z</time>
      </trkpt>
      <trkpt lat="45.65893" lon="-1.13524">
        <ele>-2</ele>
        <time>2021-03-28T18:11:34Z</time>
      </trkpt>
      <trkpt lat="45.65892" lon="-1.13525">
        <ele>-2</ele>
        <time>2021-03-28T18:11:35Z</time>
      </trkpt>
      <trkpt lat="45.65893" lon="-1.13529">
        <ele>-2</ele>
        <time>2021-03-28T18:11:48Z</time>
      </trkpt>
      <trkpt lat="45.65892" lon="-1.13527">
        <ele>-2</ele>
        <time>2021-03-28T18:11:53Z</time>
      </trkpt>
      <trkpt lat="45.65891" lon="-1.13527">
        <ele>-2</ele>
        <time>2021-03-28T18:12:10Z</time>
      </trkpt>
      <trkpt lat="45.65892" lon="-1.13526">
        <ele>-2</ele>
        <time>2021-03-28T18:12:28Z</time>
      </trkpt>
      <trkpt lat="45.65889" lon="-1.13522">
        <ele>-2</ele>
        <time>2021-03-28T18:12:45Z</time>
      </trkpt>
      <trkpt lat="45.6589" lon="-1.13522">
        <ele>-2</ele>
        <time>2021-03-28T18:12:52Z</time>
      </trkpt>
      <trkpt lat="45.65888" lon="-1.13518">
        <ele>-2</ele>
        <time>2021-03-28T18:12:58Z</time>
      </trkpt>
      <trkpt lat="45.65873" lon="-1.13505">
        <ele>-2.1</ele>
        <time>2021-03-28T18:13:13Z</time>
      </trkpt>
      <trkpt lat="45.6587" lon="-1.135">
        <ele>-2.1</ele>
        <time>2021-03-28T18:13:17Z</time>
      </trkpt>
      <trkpt lat="45.65868" lon="-1.13493">
        <ele>-2.1</ele>
        <time>2021-03-28T18:13:22Z</time>
      </trkpt>
      <trkpt lat="45.65862" lon="-1.13486">
        <ele>-2.1</ele>
        <time>2021-03-28T18:13:28Z</time>
      </trkpt>
      <trkpt lat="45.65854" lon="-1.13472">
        <ele>-2</ele>
        <time>2021-03-28T18:13:34Z</time>
      </trkpt>
      <trkpt lat="45.65856" lon="-1.13468">
        <ele>-2</ele>
        <time>2021-03-28T18:13:38Z</time>
      </trkpt>
      <trkpt lat="45.65858" lon="-1.13466">
        <ele>-1.9</ele>
        <time>2021-03-28T18:13:40Z</time>
      </trkpt>
      <trkpt lat="45.65859" lon="-1.13454">
        <ele>-1.9</ele>
        <time>2021-03-28T18:13:47Z</time>
      </trkpt>
      <trkpt lat="45.65857" lon="-1.13448">
        <ele>-2</ele>
        <time>2021-03-28T18:13:51Z</time>
      </trkpt>
      <trkpt lat="45.65854" lon="-1.13446">
        <ele>-2.1</ele>
        <time>2021-03-28T18:13:53Z</time>
      </trkpt>
      <trkpt lat="45.65849" lon="-1.13441">
        <ele>-2.1</ele>
        <time>2021-03-28T18:13:57Z</time>
      </trkpt>
      <trkpt lat="45.65839" lon="-1.13434">
        <ele>-2</ele>
        <time>2021-03-28T18:14:06Z</time>
      </trkpt>
      <trkpt lat="45.65834" lon="-1.13429">
        <ele>-1.9</ele>
        <time>2021-03-28T18:14:11Z</time>
      </trkpt>
      <trkpt lat="45.65832" lon="-1.13425">
        <ele>-1.9</ele>
        <time>2021-03-28T18:14:14Z</time>
      </trkpt>
      <trkpt lat="45.65833" lon="-1.13421">
        <ele>-1.8</ele>
        <time>2021-03-28T18:14:16Z</time>
      </trkpt>
      <trkpt lat="45.65831" lon="-1.13416">
        <ele>-1.8</ele>
        <time>2021-03-28T18:14:21Z</time>
      </trkpt>
      <trkpt lat="45.65827" lon="-1.13414">
        <ele>-1.9</ele>
        <time>2021-03-28T18:14:24Z</time>
      </trkpt>
      <trkpt lat="45.65824" lon="-1.1341">
        <ele>-2</ele>
        <time>2021-03-28T18:14:28Z</time>
      </trkpt>
      <trkpt lat="45.65809" lon="-1.13386">
        <ele>-1.9</ele>
        <time>2021-03-28T18:14:47Z</time>
      </trkpt>
      <trkpt lat="45.65808" lon="-1.13382">
        <ele>-1.9</ele>
        <time>2021-03-28T18:14:49Z</time>
      </trkpt>
      <trkpt lat="45.65805" lon="-1.13382">
        <ele>-1.9</ele>
        <time>2021-03-28T18:14:52Z</time>
      </trkpt>
      <trkpt lat="45.65804" lon="-1.13377">
        <ele>-1.9</ele>
        <time>2021-03-28T18:14:56Z</time>
      </trkpt>
      <trkpt lat="45.65802" lon="-1.13373">
        <ele>-2</ele>
        <time>2021-03-28T18:14:58Z</time>
      </trkpt>
      <trkpt lat="45.65794" lon="-1.13369">
        <ele>-2.1</ele>
        <time>2021-03-28T18:15:04Z</time>
      </trkpt>
      <trkpt lat="45.65786" lon="-1.1336">
        <ele>-2</ele>
        <time>2021-03-28T18:15:13Z</time>
      </trkpt>
      <trkpt lat="45.65771" lon="-1.13341">
        <ele>-1.8</ele>
        <time>2021-03-28T18:15:32Z</time>
      </trkpt>
      <trkpt lat="45.65764" lon="-1.13337">
        <ele>-0.7</ele>
        <time>2021-03-28T18:16:07Z</time>
      </trkpt>
      <trkpt lat="45.65744" lon="-1.13304">
        <ele>0.6</ele>
        <time>2021-03-28T18:16:34Z</time>
      </trkpt>
      <trkpt lat="45.65738" lon="-1.1329">
        <ele>1.1</ele>
        <time>2021-03-28T18:16:45Z</time>
      </trkpt>
      <trkpt lat="45.65733" lon="-1.13283">
        <ele>1.3</ele>
        <time>2021-03-28T18:16:51Z</time>
      </trkpt>
      <trkpt lat="45.65729" lon="-1.13267">
        <ele>1.8</ele>
        <time>2021-03-28T18:17:00Z</time>
      </trkpt>
      <trkpt lat="45.65725" lon="-1.13261">
        <ele>2</ele>
        <time>2021-03-28T18:17:05Z</time>
      </trkpt>
      <trkpt lat="45.65722" lon="-1.13252">
        <ele>2.2</ele>
        <time>2021-03-28T18:17:10Z</time>
      </trkpt>
      <trkpt lat="45.65718" lon="-1.13242">
        <ele>2.5</ele>
        <time>2021-03-28T18:17:19Z</time>
      </trkpt>
      <trkpt lat="45.65711" lon="-1.13231">
        <ele>2.8</ele>
        <time>2021-03-28T18:17:28Z</time>
      </trkpt>
      <trkpt lat="45.65707" lon="-1.13224">
        <ele>3.2</ele>
        <time>2021-03-28T18:17:34Z</time>
      </trkpt>
      <trkpt lat="45.6569" lon="-1.13205">
        <ele>3.2</ele>
        <time>2021-03-28T18:17:52Z</time>
      </trkpt>
      <trkpt lat="45.65681" lon="-1.1319">
        <ele>3.1</ele>
        <time>2021-03-28T18:18:03Z</time>
      </trkpt>
      <trkpt lat="45.65674" lon="-1.13182">
        <ele>3.2</ele>
        <time>2021-03-28T18:18:10Z</time>
      </trkpt>
      <trkpt lat="45.65669" lon="-1.13174">
        <ele>3.2</ele>
        <time>2021-03-28T18:18:16Z</time>
      </trkpt>
      <trkpt lat="45.65664" lon="-1.13168">
        <ele>3.1</ele>
        <time>2021-03-28T18:18:21Z</time>
      </trkpt>
      <trkpt lat="45.65637" lon="-1.13127">
        <ele>3.2</ele>
        <time>2021-03-28T18:18:54Z</time>
      </trkpt>
      <trkpt lat="45.65629" lon="-1.13117">
        <ele>3.1</ele>
        <time>2021-03-28T18:19:03Z</time>
      </trkpt>
      <trkpt lat="45.65623" lon="-1.13107">
        <ele>3.1</ele>
        <time>2021-03-28T18:19:11Z</time>
      </trkpt>
      <trkpt lat="45.65606" lon="-1.13087">
        <ele>3.1</ele>
        <time>2021-03-28T18:19:29Z</time>
      </trkpt>
      <trkpt lat="45.65602" lon="-1.13079">
        <ele>3.1</ele>
        <time>2021-03-28T18:19:34Z</time>
      </trkpt>
      <trkpt lat="45.65594" lon="-1.1307">
        <ele>3.2</ele>
        <time>2021-03-28T18:19:44Z</time>
      </trkpt>
      <trkpt lat="45.65588" lon="-1.13061">
        <ele>3.2</ele>
        <time>2021-03-28T18:19:51Z</time>
      </trkpt>
      <trkpt lat="45.65579" lon="-1.13047">
        <ele>3.2</ele>
        <time>2021-03-28T18:20:02Z</time>
      </trkpt>
      <trkpt lat="45.65569" lon="-1.13037">
        <ele>3.1</ele>
        <time>2021-03-28T18:20:12Z</time>
      </trkpt>
      <trkpt lat="45.65563" lon="-1.13026">
        <ele>3.2</ele>
        <time>2021-03-28T18:20:21Z</time>
      </trkpt>
      <trkpt lat="45.65557" lon="-1.13019">
        <ele>3.2</ele>
        <time>2021-03-28T18:20:27Z</time>
      </trkpt>
      <trkpt lat="45.65555" lon="-1.13014">
        <ele>3.1</ele>
        <time>2021-03-28T18:20:31Z</time>
      </trkpt>
      <trkpt lat="45.65548" lon="-1.13007">
        <ele>3.1</ele>
        <time>2021-03-28T18:20:38Z</time>
      </trkpt>
      <trkpt lat="45.65529" lon="-1.12979">
        <ele>3.1</ele>
        <time>2021-03-28T18:21:00Z</time>
      </trkpt>
      <trkpt lat="45.65513" lon="-1.12952">
        <ele>3.1</ele>
        <time>2021-03-28T18:21:23Z</time>
      </trkpt>
      <trkpt lat="45.65509" lon="-1.12947">
        <ele>3.1</ele>
        <time>2021-03-28T18:21:28Z</time>
      </trkpt>
      <trkpt lat="45.65503" lon="-1.12936">
        <ele>3.2</ele>
        <time>2021-03-28T18:21:36Z</time>
      </trkpt>
      <trkpt lat="45.65493" lon="-1.12924">
        <ele>3.1</ele>
        <time>2021-03-28T18:21:46Z</time>
      </trkpt>
      <trkpt lat="45.6548" lon="-1.12905">
        <ele>3.1</ele>
        <time>2021-03-28T18:22:01Z</time>
      </trkpt>
      <trkpt lat="45.65472" lon="-1.1289">
        <ele>3.1</ele>
        <time>2021-03-28T18:22:13Z</time>
      </trkpt>
      <trkpt lat="45.65462" lon="-1.12877">
        <ele>3.1</ele>
        <time>2021-03-28T18:22:25Z</time>
      </trkpt>
      <trkpt lat="45.65461" lon="-1.12875">
        <ele>3.1</ele>
        <time>2021-03-28T18:22:27Z</time>
      </trkpt>
      <trkpt lat="45.65458" lon="-1.12872">
        <ele>3.1</ele>
        <time>2021-03-28T18:22:31Z</time>
      </trkpt>
      <trkpt lat="45.65445" lon="-1.12856">
        <ele>3.1</ele>
        <time>2021-03-28T18:22:43Z</time>
      </trkpt>
      <trkpt lat="45.65437" lon="-1.12839">
        <ele>3.1</ele>
        <time>2021-03-28T18:22:57Z</time>
      </trkpt>
      <trkpt lat="45.65432" lon="-1.12834">
        <ele>3.1</ele>
        <time>2021-03-28T18:23:01Z</time>
      </trkpt>
      <trkpt lat="45.6542" lon="-1.12811">
        <ele>3.1</ele>
        <time>2021-03-28T18:23:20Z</time>
      </trkpt>
      <trkpt lat="45.6541" lon="-1.12795">
        <ele>3.1</ele>
        <time>2021-03-28T18:23:36Z</time>
      </trkpt>
      <trkpt lat="45.65408" lon="-1.12787">
        <ele>3.1</ele>
        <time>2021-03-28T18:23:55Z</time>
      </trkpt>
      <trkpt lat="45.65402" lon="-1.1278">
        <ele>3.1</ele>
        <time>2021-03-28T18:24:01Z</time>
      </trkpt>
      <trkpt lat="45.65395" lon="-1.12778">
        <ele>3.1</ele>
        <time>2021-03-28T18:24:07Z</time>
      </trkpt>
      <trkpt lat="45.65355" lon="-1.12712">
        <ele>3.1</ele>
        <time>2021-03-28T18:24:59Z</time>
      </trkpt>
      <trkpt lat="45.65346" lon="-1.12702">
        <ele>3.1</ele>
        <time>2021-03-28T18:25:09Z</time>
      </trkpt>
      <trkpt lat="45.65334" lon="-1.12687">
        <ele>3.1</ele>
        <time>2021-03-28T18:25:23Z</time>
      </trkpt>
      <trkpt lat="45.65328" lon="-1.12682">
        <ele>3.1</ele>
        <time>2021-03-28T18:25:29Z</time>
      </trkpt>
      <trkpt lat="45.65327" lon="-1.12676">
        <ele>3.1</ele>
        <time>2021-03-28T18:25:33Z</time>
      </trkpt>
      <trkpt lat="45.65321" lon="-1.12664">
        <ele>3.1</ele>
        <time>2021-03-28T18:25:44Z</time>
      </trkpt>
      <trkpt lat="45.65317" lon="-1.1266">
        <ele>3.1</ele>
        <time>2021-03-28T18:25:49Z</time>
      </trkpt>
      <trkpt lat="45.65314" lon="-1.12655">
        <ele>3.1</ele>
        <time>2021-03-28T18:25:54Z</time>
      </trkpt>
      <trkpt lat="45.65306" lon="-1.12644">
        <ele>3.1</ele>
        <time>2021-03-28T18:26:05Z</time>
      </trkpt>
      <trkpt lat="45.653" lon="-1.12629">
        <ele>3.1</ele>
        <time>2021-03-28T18:26:16Z</time>
      </trkpt>
      <trkpt lat="45.65289" lon="-1.12617">
        <ele>3.1</ele>
        <time>2021-03-28T18:26:30Z</time>
      </trkpt>
      <trkpt lat="45.65285" lon="-1.12608">
        <ele>3.1</ele>
        <time>2021-03-28T18:26:37Z</time>
      </trkpt>
      <trkpt lat="45.6528" lon="-1.126">
        <ele>3.1</ele>
        <time>2021-03-28T18:26:44Z</time>
      </trkpt>
      <trkpt lat="45.65275" lon="-1.12589">
        <ele>3.1</ele>
        <time>2021-03-28T18:26:53Z</time>
      </trkpt>
      <trkpt lat="45.65263" lon="-1.12572">
        <ele>3.1</ele>
        <time>2021-03-28T18:27:07Z</time>
      </trkpt>
      <trkpt lat="45.65254" lon="-1.12567">
        <ele>3.1</ele>
        <time>2021-03-28T18:27:17Z</time>
      </trkpt>
      <trkpt lat="45.65252" lon="-1.12564">
        <ele>3.1</ele>
        <time>2021-03-28T18:27:19Z</time>
      </trkpt>
      <trkpt lat="45.65242" lon="-1.12555">
        <ele>3.1</ele>
        <time>2021-03-28T18:27:30Z</time>
      </trkpt>
      <trkpt lat="45.65237" lon="-1.12552">
        <ele>3.1</ele>
        <time>2021-03-28T18:27:35Z</time>
      </trkpt>
      <trkpt lat="45.65233" lon="-1.12546">
        <ele>3.1</ele>
        <time>2021-03-28T18:27:41Z</time>
      </trkpt>
      <trkpt lat="45.65229" lon="-1.12538">
        <ele>3.2</ele>
        <time>2021-03-28T18:27:47Z</time>
      </trkpt>
      <trkpt lat="45.65209" lon="-1.12511">
        <ele>3.2</ele>
        <time>2021-03-28T18:28:10Z</time>
      </trkpt>
      <trkpt lat="45.65204" lon="-1.12506">
        <ele>3.3</ele>
        <time>2021-03-28T18:28:15Z</time>
      </trkpt>
      <trkpt lat="45.65201" lon="-1.12499">
        <ele>3.3</ele>
        <time>2021-03-28T18:28:21Z</time>
      </trkpt>
      <trkpt lat="45.65194" lon="-1.12488">
        <ele>3.2</ele>
        <time>2021-03-28T18:28:34Z</time>
      </trkpt>
      <trkpt lat="45.65194" lon="-1.12483">
        <ele>3.1</ele>
        <time>2021-03-28T18:28:41Z</time>
      </trkpt>
      <trkpt lat="45.65195" lon="-1.12481">
        <ele>2.9</ele>
        <time>2021-03-28T18:28:43Z</time>
      </trkpt>
      <trkpt lat="45.65204" lon="-1.12478">
        <ele>2.9</ele>
        <time>2021-03-28T18:28:53Z</time>
      </trkpt>
      <trkpt lat="45.65208" lon="-1.12474">
        <ele>2.7</ele>
        <time>2021-03-28T18:28:57Z</time>
      </trkpt>
      <trkpt lat="45.65216" lon="-1.1247">
        <ele>3</ele>
        <time>2021-03-28T18:29:05Z</time>
      </trkpt>
      <trkpt lat="45.6522" lon="-1.12467">
        <ele>3.5</ele>
        <time>2021-03-28T18:29:10Z</time>
      </trkpt>
      <trkpt lat="45.65227" lon="-1.12465">
        <ele>4.2</ele>
        <time>2021-03-28T18:29:16Z</time>
      </trkpt>
      <trkpt lat="45.65236" lon="-1.12457">
        <ele>6.7</ele>
        <time>2021-03-28T18:29:26Z</time>
      </trkpt>
      <trkpt lat="45.65239" lon="-1.12456">
        <ele>6.9</ele>
        <time>2021-03-28T18:29:30Z</time>
      </trkpt>
      <trkpt lat="45.65245" lon="-1.12458">
        <ele>7.2</ele>
        <time>2021-03-28T18:29:35Z</time>
      </trkpt>
      <trkpt lat="45.65258" lon="-1.12458">
        <ele>7.1</ele>
        <time>2021-03-28T18:29:46Z</time>
      </trkpt>
      <trkpt lat="45.65264" lon="-1.12462">
        <ele>6.8</ele>
        <time>2021-03-28T18:29:53Z</time>
      </trkpt>
      <trkpt lat="45.65275" lon="-1.12465">
        <ele>6.6</ele>
        <time>2021-03-28T18:30:02Z</time>
      </trkpt>
      <trkpt lat="45.65297" lon="-1.12474">
        <ele>6.4</ele>
        <time>2021-03-28T18:30:25Z</time>
      </trkpt>
      <trkpt lat="45.65303" lon="-1.12476">
        <ele>6.7</ele>
        <time>2021-03-28T18:30:32Z</time>
      </trkpt>
      <trkpt lat="45.65309" lon="-1.12483">
        <ele>6.4</ele>
        <time>2021-03-28T18:30:40Z</time>
      </trkpt>
      <trkpt lat="45.65323" lon="-1.12495">
        <ele>6.3</ele>
        <time>2021-03-28T18:30:54Z</time>
      </trkpt>
      <trkpt lat="45.65329" lon="-1.12498">
        <ele>7.2</ele>
        <time>2021-03-28T18:31:00Z</time>
      </trkpt>
      <trkpt lat="45.65336" lon="-1.12498">
        <ele>7.8</ele>
        <time>2021-03-28T18:31:07Z</time>
      </trkpt>
      <trkpt lat="45.65342" lon="-1.12493">
        <ele>8.7</ele>
        <time>2021-03-28T18:31:13Z</time>
      </trkpt>
      <trkpt lat="45.65344" lon="-1.12487">
        <ele>9.1</ele>
        <time>2021-03-28T18:31:17Z</time>
      </trkpt>
      <trkpt lat="45.6535" lon="-1.12483">
        <ele>9.7</ele>
        <time>2021-03-28T18:31:27Z</time>
      </trkpt>
      <trkpt lat="45.65354" lon="-1.12477">
        <ele>10</ele>
        <time>2021-03-28T18:31:34Z</time>
      </trkpt>
      <trkpt lat="45.65354" lon="-1.12471">
        <ele>10.1</ele>
        <time>2021-03-28T18:31:40Z</time>
      </trkpt>
      <trkpt lat="45.65351" lon="-1.12461">
        <ele>10</ele>
        <time>2021-03-28T18:31:49Z</time>
      </trkpt>
      <trkpt lat="45.6535" lon="-1.12455">
        <ele>10.1</ele>
        <time>2021-03-28T18:31:54Z</time>
      </trkpt>
      <trkpt lat="45.65352" lon="-1.12452">
        <ele>10.1</ele>
        <time>2021-03-28T18:31:59Z</time>
      </trkpt>
      <trkpt lat="45.65347" lon="-1.12449">
        <ele>10.2</ele>
        <time>2021-03-28T18:32:05Z</time>
      </trkpt>
      <trkpt lat="45.65343" lon="-1.12451">
        <ele>10.2</ele>
        <time>2021-03-28T18:32:08Z</time>
      </trkpt>
      <trkpt lat="45.6534" lon="-1.1245">
        <ele>10.2</ele>
        <time>2021-03-28T18:32:11Z</time>
      </trkpt>
      <trkpt lat="45.65337" lon="-1.12445">
        <ele>10.2</ele>
        <time>2021-03-28T18:32:14Z</time>
      </trkpt>
      <trkpt lat="45.65337" lon="-1.12439">
        <ele>10.2</ele>
        <time>2021-03-28T18:32:17Z</time>
      </trkpt>
      <trkpt lat="45.65337" lon="-1.12434">
        <ele>10.2</ele>
        <time>2021-03-28T18:32:21Z</time>
      </trkpt>
      <trkpt lat="45.65336" lon="-1.12433">
        <ele>10.2</ele>
        <time>2021-03-28T18:32:22Z</time>
      </trkpt>
      <trkpt lat="45.65337" lon="-1.12436">
        <ele>10.2</ele>
        <time>2021-03-28T18:32:27Z</time>
      </trkpt>
      <trkpt lat="45.65333" lon="-1.12429">
        <ele>10.2</ele>
        <time>2021-03-28T18:32:37Z</time>
      </trkpt>
      <trkpt lat="45.65327" lon="-1.12424">
        <ele>10.1</ele>
        <time>2021-03-28T18:32:43Z</time>
      </trkpt>
      <trkpt lat="45.65327" lon="-1.12426">
        <ele>10.1</ele>
        <time>2021-03-28T18:32:46Z</time>
      </trkpt>
      <trkpt lat="45.65325" lon="-1.12413">
        <ele>10.4</ele>
        <time>2021-03-28T18:32:53Z</time>
      </trkpt>
      <trkpt lat="45.65324" lon="-1.1241">
        <ele>10.5</ele>
        <time>2021-03-28T18:32:55Z</time>
      </trkpt>
      <trkpt lat="45.65312" lon="-1.12396">
        <ele>10.9</ele>
        <time>2021-03-28T18:33:07Z</time>
      </trkpt>
      <trkpt lat="45.65307" lon="-1.12394">
        <ele>11</ele>
        <time>2021-03-28T18:33:12Z</time>
      </trkpt>
      <trkpt lat="45.65304" lon="-1.12392">
        <ele>11.1</ele>
        <time>2021-03-28T18:33:16Z</time>
      </trkpt>
      <trkpt lat="45.65301" lon="-1.12391">
        <ele>11.2</ele>
        <time>2021-03-28T18:33:20Z</time>
      </trkpt>
      <trkpt lat="45.65298" lon="-1.1238">
        <ele>11.7</ele>
        <time>2021-03-28T18:33:27Z</time>
      </trkpt>
      <trkpt lat="45.65289" lon="-1.12372">
        <ele>12.3</ele>
        <time>2021-03-28T18:33:35Z</time>
      </trkpt>
      <trkpt lat="45.6528" lon="-1.12367">
        <ele>12.8</ele>
        <time>2021-03-28T18:33:45Z</time>
      </trkpt>
      <trkpt lat="45.65281" lon="-1.12368">
        <ele>12.9</ele>
        <time>2021-03-28T18:33:49Z</time>
      </trkpt>
      <trkpt lat="45.65277" lon="-1.12365">
        <ele>13.1</ele>
        <time>2021-03-28T18:33:52Z</time>
      </trkpt>
      <trkpt lat="45.65271" lon="-1.12358">
        <ele>13.4</ele>
        <time>2021-03-28T18:33:58Z</time>
      </trkpt>
      <trkpt lat="45.65266" lon="-1.12354">
        <ele>13.7</ele>
        <time>2021-03-28T18:34:03Z</time>
      </trkpt>
      <trkpt lat="45.65257" lon="-1.12352">
        <ele>14.1</ele>
        <time>2021-03-28T18:34:11Z</time>
      </trkpt>
      <trkpt lat="45.65248" lon="-1.12343">
        <ele>14.6</ele>
        <time>2021-03-28T18:34:21Z</time>
      </trkpt>
      <trkpt lat="45.65239" lon="-1.12341">
        <ele>14.9</ele>
        <time>2021-03-28T18:34:29Z</time>
      </trkpt>
      <trkpt lat="45.65238" lon="-1.12339">
        <ele>15</ele>
        <time>2021-03-28T18:34:31Z</time>
      </trkpt>
      <trkpt lat="45.65239" lon="-1.12338">
        <ele>15</ele>
        <time>2021-03-28T18:34:33Z</time>
      </trkpt>
      <trkpt lat="45.65239" lon="-1.12339">
        <ele>15</ele>
        <time>2021-03-28T18:34:35Z</time>
      </trkpt>
      <trkpt lat="45.65235" lon="-1.12335">
        <ele>15.1</ele>
        <time>2021-03-28T18:34:40Z</time>
      </trkpt>
      <trkpt lat="45.65229" lon="-1.12335">
        <ele>15</ele>
        <time>2021-03-28T18:34:45Z</time>
      </trkpt>
      <trkpt lat="45.6522" lon="-1.12344">
        <ele>14.8</ele>
        <time>2021-03-28T18:34:53Z</time>
      </trkpt>
      <trkpt lat="45.65214" lon="-1.12349">
        <ele>14.6</ele>
        <time>2021-03-28T18:34:58Z</time>
      </trkpt>
      <trkpt lat="45.65209" lon="-1.12348">
        <ele>14.6</ele>
        <time>2021-03-28T18:35:04Z</time>
      </trkpt>
      <trkpt lat="45.65203" lon="-1.1236">
        <ele>14.4</ele>
        <time>2021-03-28T18:35:12Z</time>
      </trkpt>
      <trkpt lat="45.65201" lon="-1.12362">
        <ele>14.4</ele>
        <time>2021-03-28T18:35:15Z</time>
      </trkpt>
      <trkpt lat="45.65196" lon="-1.12369">
        <ele>14.4</ele>
        <time>2021-03-28T18:35:22Z</time>
      </trkpt>
      <trkpt lat="45.65192" lon="-1.12378">
        <ele>14.4</ele>
        <time>2021-03-28T18:35:29Z</time>
      </trkpt>
      <trkpt lat="45.6519" lon="-1.12381">
        <ele>14.4</ele>
        <time>2021-03-28T18:35:31Z</time>
      </trkpt>
      <trkpt lat="45.65182" lon="-1.1238">
        <ele>14.3</ele>
        <time>2021-03-28T18:35:37Z</time>
      </trkpt>
      <trkpt lat="45.65172" lon="-1.12369">
        <ele>14.1</ele>
        <time>2021-03-28T18:35:47Z</time>
      </trkpt>
      <trkpt lat="45.65171" lon="-1.12365">
        <ele>14.1</ele>
        <time>2021-03-28T18:35:49Z</time>
      </trkpt>
      <trkpt lat="45.65168" lon="-1.12362">
        <ele>14.1</ele>
        <time>2021-03-28T18:35:52Z</time>
      </trkpt>
      <trkpt lat="45.65169" lon="-1.12362">
        <ele>14.1</ele>
        <time>2021-03-28T18:35:54Z</time>
      </trkpt>
      <trkpt lat="45.6517" lon="-1.12367">
        <ele>14.1</ele>
        <time>2021-03-28T18:36:01Z</time>
      </trkpt>
      <trkpt lat="45.65168" lon="-1.1236">
        <ele>14.1</ele>
        <time>2021-03-28T18:37:05Z</time>
      </trkpt>
      <trkpt lat="45.65169" lon="-1.12355">
        <ele>14.1</ele>
        <time>2021-03-28T18:37:08Z</time>
      </trkpt>
      <trkpt lat="45.65163" lon="-1.12345">
        <ele>14.1</ele>
        <time>2021-03-28T18:37:14Z</time>
      </trkpt>
      <trkpt lat="45.65161" lon="-1.12334">
        <ele>14.1</ele>
        <time>2021-03-28T18:37:22Z</time>
      </trkpt>
      <trkpt lat="45.65158" lon="-1.12329">
        <ele>14.1</ele>
        <time>2021-03-28T18:37:25Z</time>
      </trkpt>
      <trkpt lat="45.65158" lon="-1.12326">
        <ele>14.1</ele>
        <time>2021-03-28T18:37:28Z</time>
      </trkpt>
      <trkpt lat="45.65158" lon="-1.12323">
        <ele>14.1</ele>
        <time>2021-03-28T18:37:32Z</time>
      </trkpt>
      <trkpt lat="45.65159" lon="-1.12326">
        <ele>14.1</ele>
        <time>2021-03-28T18:37:41Z</time>
      </trkpt>
      <trkpt lat="45.65159" lon="-1.12322">
        <ele>14</ele>
        <time>2021-03-28T18:37:49Z</time>
      </trkpt>
      <trkpt lat="45.65155" lon="-1.12312">
        <ele>14</ele>
        <time>2021-03-28T18:37:58Z</time>
      </trkpt>
      <trkpt lat="45.65148" lon="-1.12297">
        <ele>14</ele>
        <time>2021-03-28T18:38:06Z</time>
      </trkpt>
      <trkpt lat="45.65147" lon="-1.12296">
        <ele>14</ele>
        <time>2021-03-28T18:38:09Z</time>
      </trkpt>
      <trkpt lat="45.65146" lon="-1.12293">
        <ele>14</ele>
        <time>2021-03-28T18:38:25Z</time>
      </trkpt>
      <trkpt lat="45.65148" lon="-1.12296">
        <ele>14</ele>
        <time>2021-03-28T18:38:36Z</time>
      </trkpt>
      <trkpt lat="45.65144" lon="-1.12262">
        <ele>14.1</ele>
        <time>2021-03-28T18:38:46Z</time>
      </trkpt>
      <trkpt lat="45.65146" lon="-1.12284">
        <ele>14.1</ele>
        <time>2021-03-28T18:38:47Z</time>
      </trkpt>
      <trkpt lat="45.65144" lon="-1.12277">
        <ele>14.1</ele>
        <time>2021-03-28T18:38:51Z</time>
      </trkpt>
      <trkpt lat="45.65142" lon="-1.1227">
        <ele>14.1</ele>
        <time>2021-03-28T18:38:55Z</time>
      </trkpt>
      <trkpt lat="45.65141" lon="-1.12266">
        <ele>14.1</ele>
        <time>2021-03-28T18:38:57Z</time>
      </trkpt>
      <trkpt lat="45.65139" lon="-1.12262">
        <ele>14.1</ele>
        <time>2021-03-28T18:39:00Z</time>
      </trkpt>
      <trkpt lat="45.65134" lon="-1.12243">
        <ele>14.1</ele>
        <time>2021-03-28T18:39:11Z</time>
      </trkpt>
      <trkpt lat="45.65131" lon="-1.12235">
        <ele>14.1</ele>
        <time>2021-03-28T18:39:16Z</time>
      </trkpt>
      <trkpt lat="45.65129" lon="-1.12228">
        <ele>14.1</ele>
        <time>2021-03-28T18:39:21Z</time>
      </trkpt>
      <trkpt lat="45.6513" lon="-1.12224">
        <ele>14.1</ele>
        <time>2021-03-28T18:39:24Z</time>
      </trkpt>
      <trkpt lat="45.65133" lon="-1.12228">
        <ele>14.1</ele>
        <time>2021-03-28T18:39:30Z</time>
      </trkpt>
      <trkpt lat="45.65134" lon="-1.12232">
        <ele>14.1</ele>
        <time>2021-03-28T18:39:41Z</time>
      </trkpt>
      <trkpt lat="45.65132" lon="-1.12233">
        <ele>14.1</ele>
        <time>2021-03-28T18:39:49Z</time>
      </trkpt>
      <trkpt lat="45.65133" lon="-1.12234">
        <ele>14.1</ele>
        <time>2021-03-28T18:39:54Z</time>
      </trkpt>
      <trkpt lat="45.65132" lon="-1.12233">
        <ele>14.1</ele>
        <time>2021-03-28T18:40:40Z</time>
      </trkpt>
      <trkpt lat="45.65133" lon="-1.12233">
        <ele>14.2</ele>
        <time>2021-03-28T18:42:52Z</time>
      </trkpt>
      <trkpt lat="45.65131" lon="-1.12233">
        <ele>14.2</ele>
        <time>2021-03-28T18:43:36Z</time>
      </trkpt>
      <trkpt lat="45.65132" lon="-1.12233">
        <ele>14.2</ele>
        <time>2021-03-28T18:43:40Z</time>
      </trkpt>
      <trkpt lat="45.65131" lon="-1.12233">
        <ele>14.2</ele>
        <time>2021-03-28T18:43:50Z</time>
      </trkpt>
      <trkpt lat="45.65132" lon="-1.12233">
        <ele>14.2</ele>
        <time>2021-03-28T18:44:02Z</time>
      </trkpt>
      <trkpt lat="45.65131" lon="-1.12233">
        <ele>14.2</ele>
        <time>2021-03-28T18:44:15Z</time>
      </trkpt>
      <trkpt lat="45.65132" lon="-1.12232">
        <ele>14.2</ele>
        <time>2021-03-28T18:44:20Z</time>
      </trkpt>
      <trkpt lat="45.6513" lon="-1.12233">
        <ele>14.2</ele>
        <time>2021-03-28T18:50:02Z</time>
      </trkpt>
      <trkpt lat="45.65131" lon="-1.12232">
        <ele>14.2</ele>
        <time>2021-03-28T18:52:38Z</time>
      </trkpt>
      <trkpt lat="45.6513" lon="-1.12233">
        <ele>14.2</ele>
        <time>2021-03-28T18:52:47Z</time>
      </trkpt>
      <trkpt lat="45.65132" lon="-1.12232">
        <ele>14.2</ele>
        <time>2021-03-28T18:52:56Z</time>
      </trkpt>
      <trkpt lat="45.65131" lon="-1.12233">
        <ele>14.2</ele>
        <time>2021-03-28T19:08:44Z</time>
      </trkpt>
      <trkpt lat="45.65132" lon="-1.12234">
        <ele>14.2</ele>
        <time>2021-03-28T19:09:17Z</time>
      </trkpt>
      <trkpt lat="45.65133" lon="-1.12232">
        <ele>14.2</ele>
        <time>2021-03-28T19:09:32Z</time>
      </trkpt>
      <trkpt lat="45.65132" lon="-1.12233">
        <ele>14.2</ele>
        <time>2021-03-28T19:09:36Z</time>
      </trkpt>
      <trkpt lat="45.65131" lon="-1.12233">
        <ele>14.2</ele>
        <time>2021-03-28T19:09:56Z</time>
      </trkpt>
      <trkpt lat="45.65132" lon="-1.12231">
        <ele>14.2</ele>
        <time>2021-03-28T19:10:49Z</time>
      </trkpt>
      <trkpt lat="45.65133" lon="-1.12233">
        <ele>14.2</ele>
        <time>2021-03-28T19:11:00Z</time>
      </trkpt>
      <trkpt lat="45.65125" lon="-1.12224">
        <ele>14.2</ele>
        <time>2021-03-28T19:11:34Z</time>
      </trkpt>
      <trkpt lat="45.65118" lon="-1.12203">
        <ele>14.3</ele>
        <time>2021-03-28T19:11:49Z</time>
      </trkpt>
      <trkpt lat="45.65114" lon="-1.12189">
        <ele>14.4</ele>
        <time>2021-03-28T19:12:00Z</time>
      </trkpt>
      <trkpt lat="45.65101" lon="-1.12163">
        <ele>14.6</ele>
        <time>2021-03-28T19:12:20Z</time>
      </trkpt>
      <trkpt lat="45.65099" lon="-1.12156">
        <ele>14.6</ele>
        <time>2021-03-28T19:12:25Z</time>
      </trkpt>
      <trkpt lat="45.65095" lon="-1.12146">
        <ele>14.7</ele>
        <time>2021-03-28T19:12:33Z</time>
      </trkpt>
      <trkpt lat="45.65092" lon="-1.12136">
        <ele>14.8</ele>
        <time>2021-03-28T19:12:41Z</time>
      </trkpt>
      <trkpt lat="45.65081" lon="-1.12115">
        <ele>15</ele>
        <time>2021-03-28T19:12:56Z</time>
      </trkpt>
      <trkpt lat="45.65077" lon="-1.12107">
        <ele>15</ele>
        <time>2021-03-28T19:13:02Z</time>
      </trkpt>
      <trkpt lat="45.65074" lon="-1.121">
        <ele>15.1</ele>
        <time>2021-03-28T19:13:07Z</time>
      </trkpt>
      <trkpt lat="45.6507" lon="-1.1209">
        <ele>15.2</ele>
        <time>2021-03-28T19:13:15Z</time>
      </trkpt>
      <trkpt lat="45.65056" lon="-1.12064">
        <ele>15.4</ele>
        <time>2021-03-28T19:14:04Z</time>
      </trkpt>
      <trkpt lat="45.65046" lon="-1.12041">
        <ele>15.5</ele>
        <time>2021-03-28T19:14:20Z</time>
      </trkpt>
      <trkpt lat="45.65037" lon="-1.12015">
        <ele>15.6</ele>
        <time>2021-03-28T19:14:38Z</time>
      </trkpt>
      <trkpt lat="45.6503" lon="-1.12002">
        <ele>15.6</ele>
        <time>2021-03-28T19:14:49Z</time>
      </trkpt>
      <trkpt lat="45.65021" lon="-1.11988">
        <ele>15.6</ele>
        <time>2021-03-28T19:15:00Z</time>
      </trkpt>
      <trkpt lat="45.65015" lon="-1.11975">
        <ele>15.7</ele>
        <time>2021-03-28T19:15:10Z</time>
      </trkpt>
      <trkpt lat="45.65011" lon="-1.11965">
        <ele>15.7</ele>
        <time>2021-03-28T19:15:16Z</time>
      </trkpt>
      <trkpt lat="45.65006" lon="-1.11957">
        <ele>15.7</ele>
        <time>2021-03-28T19:15:22Z</time>
      </trkpt>
      <trkpt lat="45.64988" lon="-1.11918">
        <ele>15.6</ele>
        <time>2021-03-28T19:15:52Z</time>
      </trkpt>
      <trkpt lat="45.64973" lon="-1.11883">
        <ele>15.4</ele>
        <time>2021-03-28T19:16:16Z</time>
      </trkpt>
      <trkpt lat="45.64969" lon="-1.11875">
        <ele>15.3</ele>
        <time>2021-03-28T19:16:23Z</time>
      </trkpt>
      <trkpt lat="45.64961" lon="-1.11856">
        <ele>15.1</ele>
        <time>2021-03-28T19:16:37Z</time>
      </trkpt>
      <trkpt lat="45.64954" lon="-1.1184">
        <ele>14.9</ele>
        <time>2021-03-28T19:16:49Z</time>
      </trkpt>
      <trkpt lat="45.64952" lon="-1.11839">
        <ele>14.9</ele>
        <time>2021-03-28T19:16:57Z</time>
      </trkpt>
      <trkpt lat="45.64949" lon="-1.11824">
        <ele>14.7</ele>
        <time>2021-03-28T19:17:07Z</time>
      </trkpt>
      <trkpt lat="45.64947" lon="-1.1182">
        <ele>14.7</ele>
        <time>2021-03-28T19:17:11Z</time>
      </trkpt>
      <trkpt lat="45.64942" lon="-1.11803">
        <ele>14.5</ele>
        <time>2021-03-28T19:17:24Z</time>
      </trkpt>
      <trkpt lat="45.64938" lon="-1.11797">
        <ele>14.4</ele>
        <time>2021-03-28T19:17:29Z</time>
      </trkpt>
      <trkpt lat="45.64935" lon="-1.11786">
        <ele>14.3</ele>
        <time>2021-03-28T19:17:38Z</time>
      </trkpt>
      <trkpt lat="45.64926" lon="-1.11767">
        <ele>14.1</ele>
        <time>2021-03-28T19:17:52Z</time>
      </trkpt>
      <trkpt lat="45.64917" lon="-1.11739">
        <ele>13.9</ele>
        <time>2021-03-28T19:18:12Z</time>
      </trkpt>
      <trkpt lat="45.64913" lon="-1.11731">
        <ele>13.8</ele>
        <time>2021-03-28T19:18:18Z</time>
      </trkpt>
      <trkpt lat="45.64902" lon="-1.11705">
        <ele>13.7</ele>
        <time>2021-03-28T19:18:36Z</time>
      </trkpt>
      <trkpt lat="45.64896" lon="-1.11695">
        <ele>13.7</ele>
        <time>2021-03-28T19:18:45Z</time>
      </trkpt>
      <trkpt lat="45.64893" lon="-1.11688">
        <ele>13.7</ele>
        <time>2021-03-28T19:18:50Z</time>
      </trkpt>
      <trkpt lat="45.64883" lon="-1.11671">
        <ele>13.7</ele>
        <time>2021-03-28T19:19:04Z</time>
      </trkpt>
      <trkpt lat="45.64862" lon="-1.11624">
        <ele>14.1</ele>
        <time>2021-03-28T19:19:40Z</time>
      </trkpt>
      <trkpt lat="45.64859" lon="-1.11621">
        <ele>14.1</ele>
        <time>2021-03-28T19:19:43Z</time>
      </trkpt>
      <trkpt lat="45.64849" lon="-1.11595">
        <ele>14.2</ele>
        <time>2021-03-28T19:20:03Z</time>
      </trkpt>
      <trkpt lat="45.64843" lon="-1.11576">
        <ele>14.2</ele>
        <time>2021-03-28T19:20:19Z</time>
      </trkpt>
      <trkpt lat="45.64841" lon="-1.11573">
        <ele>14.1</ele>
        <time>2021-03-28T19:20:25Z</time>
      </trkpt>
      <trkpt lat="45.64838" lon="-1.11573">
        <ele>13.9</ele>
        <time>2021-03-28T19:20:27Z</time>
      </trkpt>
      <trkpt lat="45.64832" lon="-1.11574">
        <ele>13.5</ele>
        <time>2021-03-28T19:20:34Z</time>
      </trkpt>
      <trkpt lat="45.64823" lon="-1.11567">
        <ele>13</ele>
        <time>2021-03-28T19:20:42Z</time>
      </trkpt>
      <trkpt lat="45.64816" lon="-1.11564">
        <ele>12.7</ele>
        <time>2021-03-28T19:20:49Z</time>
      </trkpt>
      <trkpt lat="45.64811" lon="-1.11561">
        <ele>12.4</ele>
        <time>2021-03-28T19:20:55Z</time>
      </trkpt>
      <trkpt lat="45.64809" lon="-1.11557">
        <ele>12.3</ele>
        <time>2021-03-28T19:20:58Z</time>
      </trkpt>
      <trkpt lat="45.64801" lon="-1.11553">
        <ele>11.9</ele>
        <time>2021-03-28T19:21:09Z</time>
      </trkpt>
      <trkpt lat="45.64797" lon="-1.11548">
        <ele>11.7</ele>
        <time>2021-03-28T19:21:15Z</time>
      </trkpt>
      <trkpt lat="45.6479" lon="-1.11547">
        <ele>11.3</ele>
        <time>2021-03-28T19:21:22Z</time>
      </trkpt>
      <trkpt lat="45.64784" lon="-1.11543">
        <ele>10.9</ele>
        <time>2021-03-28T19:21:29Z</time>
      </trkpt>
      <trkpt lat="45.64781" lon="-1.1154">
        <ele>10.6</ele>
        <time>2021-03-28T19:21:33Z</time>
      </trkpt>
      <trkpt lat="45.64768" lon="-1.11535">
        <ele>9.8</ele>
        <time>2021-03-28T19:21:45Z</time>
      </trkpt>
      <trkpt lat="45.64759" lon="-1.1153">
        <ele>9.3</ele>
        <time>2021-03-28T19:21:54Z</time>
      </trkpt>
      <trkpt lat="45.64755" lon="-1.11524">
        <ele>9.2</ele>
        <time>2021-03-28T19:22:00Z</time>
      </trkpt>
      <trkpt lat="45.64748" lon="-1.11519">
        <ele>9.1</ele>
        <time>2021-03-28T19:22:08Z</time>
      </trkpt>
      <trkpt lat="45.64738" lon="-1.11517">
        <ele>9</ele>
        <time>2021-03-28T19:22:17Z</time>
      </trkpt>
      <trkpt lat="45.6473" lon="-1.11517">
        <ele>8.9</ele>
        <time>2021-03-28T19:22:24Z</time>
      </trkpt>
      <trkpt lat="45.64721" lon="-1.11521">
        <ele>8.9</ele>
        <time>2021-03-28T19:22:31Z</time>
      </trkpt>
      <trkpt lat="45.64716" lon="-1.11521">
        <ele>8.8</ele>
        <time>2021-03-28T19:22:36Z</time>
      </trkpt>
      <trkpt lat="45.64713" lon="-1.11519">
        <ele>8.7</ele>
        <time>2021-03-28T19:22:39Z</time>
      </trkpt>
      <trkpt lat="45.64714" lon="-1.11518">
        <ele>8.7</ele>
        <time>2021-03-28T19:22:43Z</time>
      </trkpt>
      <trkpt lat="45.64712" lon="-1.11515">
        <ele>8.7</ele>
        <time>2021-03-28T19:22:47Z</time>
      </trkpt>
      <trkpt lat="45.64707" lon="-1.11512">
        <ele>8.6</ele>
        <time>2021-03-28T19:23:01Z</time>
      </trkpt>
      <trkpt lat="45.64705" lon="-1.11515">
        <ele>8.5</ele>
        <time>2021-03-28T19:23:16Z</time>
      </trkpt>
      <trkpt lat="45.64707" lon="-1.1152">
        <ele>8.4</ele>
        <time>2021-03-28T19:23:25Z</time>
      </trkpt>
      <trkpt lat="45.64704" lon="-1.11523">
        <ele>8.3</ele>
        <time>2021-03-28T19:23:34Z</time>
      </trkpt>
      <trkpt lat="45.64705" lon="-1.1153">
        <ele>8.2</ele>
        <time>2021-03-28T19:23:41Z</time>
      </trkpt>
      <trkpt lat="45.64701" lon="-1.11537">
        <ele>8.2</ele>
        <time>2021-03-28T19:23:59Z</time>
      </trkpt>
      <trkpt lat="45.64702" lon="-1.11538">
        <ele>8.1</ele>
        <time>2021-03-28T19:24:30Z</time>
      </trkpt>
      <trkpt lat="45.64703" lon="-1.11534">
        <ele>8.1</ele>
        <time>2021-03-28T19:24:37Z</time>
      </trkpt>
      <trkpt lat="45.64702" lon="-1.11529">
        <ele>8.1</ele>
        <time>2021-03-28T19:24:43Z</time>
      </trkpt>
      <trkpt lat="45.647" lon="-1.11523">
        <ele>8.1</ele>
        <time>2021-03-28T19:24:48Z</time>
      </trkpt>
      <trkpt lat="45.64695" lon="-1.11519">
        <ele>8</ele>
        <time>2021-03-28T19:24:55Z</time>
      </trkpt>
      <trkpt lat="45.64694" lon="-1.11516">
        <ele>8</ele>
        <time>2021-03-28T19:24:58Z</time>
      </trkpt>
      <trkpt lat="45.64689" lon="-1.11509">
        <ele>8</ele>
        <time>2021-03-28T19:25:05Z</time>
      </trkpt>
      <trkpt lat="45.64689" lon="-1.11506">
        <ele>7.9</ele>
        <time>2021-03-28T19:25:08Z</time>
      </trkpt>
      <trkpt lat="45.64687" lon="-1.11503">
        <ele>7.9</ele>
        <time>2021-03-28T19:25:11Z</time>
      </trkpt>
      <trkpt lat="45.64684" lon="-1.11502">
        <ele>7.9</ele>
        <time>2021-03-28T19:25:15Z</time>
      </trkpt>
      <trkpt lat="45.64682" lon="-1.11496">
        <ele>7.8</ele>
        <time>2021-03-28T19:25:20Z</time>
      </trkpt>
      <trkpt lat="45.64681" lon="-1.11487">
        <ele>7.7</ele>
        <time>2021-03-28T19:25:27Z</time>
      </trkpt>
      <trkpt lat="45.64672" lon="-1.11476">
        <ele>7.5</ele>
        <time>2021-03-28T19:25:38Z</time>
      </trkpt>
      <trkpt lat="45.64671" lon="-1.11471">
        <ele>7.5</ele>
        <time>2021-03-28T19:25:43Z</time>
      </trkpt>
      <trkpt lat="45.64672" lon="-1.11457">
        <ele>7.3</ele>
        <time>2021-03-28T19:25:51Z</time>
      </trkpt>
      <trkpt lat="45.64671" lon="-1.11452">
        <ele>7.2</ele>
        <time>2021-03-28T19:25:55Z</time>
      </trkpt>
      <trkpt lat="45.64672" lon="-1.11447">
        <ele>7.2</ele>
        <time>2021-03-28T19:25:59Z</time>
      </trkpt>
      <trkpt lat="45.64681" lon="-1.11434">
        <ele>7</ele>
        <time>2021-03-28T19:26:13Z</time>
      </trkpt>
      <trkpt lat="45.64687" lon="-1.11416">
        <ele>7</ele>
        <time>2021-03-28T19:26:29Z</time>
      </trkpt>
      <trkpt lat="45.64687" lon="-1.11411">
        <ele>7</ele>
        <time>2021-03-28T19:26:33Z</time>
      </trkpt>
      <trkpt lat="45.6469" lon="-1.114">
        <ele>7</ele>
        <time>2021-03-28T19:26:42Z</time>
      </trkpt>
      <trkpt lat="45.64693" lon="-1.11382">
        <ele>7.1</ele>
        <time>2021-03-28T19:26:55Z</time>
      </trkpt>
      <trkpt lat="45.64696" lon="-1.11351">
        <ele>7.2</ele>
        <time>2021-03-28T19:27:18Z</time>
      </trkpt>
      <trkpt lat="45.64696" lon="-1.1134">
        <ele>7.3</ele>
        <time>2021-03-28T19:27:26Z</time>
      </trkpt>
      <trkpt lat="45.64697" lon="-1.11333">
        <ele>7.3</ele>
        <time>2021-03-28T19:27:31Z</time>
      </trkpt>
      <trkpt lat="45.64697" lon="-1.11327">
        <ele>7.4</ele>
        <time>2021-03-28T19:27:36Z</time>
      </trkpt>
      <trkpt lat="45.64694" lon="-1.11315">
        <ele>7.5</ele>
        <time>2021-03-28T19:27:44Z</time>
      </trkpt>
      <trkpt lat="45.64695" lon="-1.11311">
        <ele>7.6</ele>
        <time>2021-03-28T19:27:47Z</time>
      </trkpt>
      <trkpt lat="45.64698" lon="-1.11301">
        <ele>7.7</ele>
        <time>2021-03-28T19:27:55Z</time>
      </trkpt>
      <trkpt lat="45.64696" lon="-1.11292">
        <ele>7.9</ele>
        <time>2021-03-28T19:28:02Z</time>
      </trkpt>
      <trkpt lat="45.64695" lon="-1.11293">
        <ele>7.9</ele>
        <time>2021-03-28T19:28:05Z</time>
      </trkpt>
      <trkpt lat="45.64697" lon="-1.11285">
        <ele>8.1</ele>
        <time>2021-03-28T19:28:10Z</time>
      </trkpt>
      <trkpt lat="45.64698" lon="-1.11277">
        <ele>8.2</ele>
        <time>2021-03-28T19:28:15Z</time>
      </trkpt>
      <trkpt lat="45.647" lon="-1.11268">
        <ele>8.4</ele>
        <time>2021-03-28T19:28:22Z</time>
      </trkpt>
      <trkpt lat="45.647" lon="-1.11256">
        <ele>8.5</ele>
        <time>2021-03-28T19:28:31Z</time>
      </trkpt>
      <trkpt lat="45.64702" lon="-1.11249">
        <ele>8.6</ele>
        <time>2021-03-28T19:28:37Z</time>
      </trkpt>
      <trkpt lat="45.64706" lon="-1.11216">
        <ele>8.6</ele>
        <time>2021-03-28T19:29:00Z</time>
      </trkpt>
      <trkpt lat="45.64704" lon="-1.11209">
        <ele>8.6</ele>
        <time>2021-03-28T19:29:05Z</time>
      </trkpt>
      <trkpt lat="45.64704" lon="-1.11202">
        <ele>8.7</ele>
        <time>2021-03-28T19:29:10Z</time>
      </trkpt>
      <trkpt lat="45.64705" lon="-1.11202">
        <ele>8.7</ele>
        <time>2021-03-28T19:29:11Z</time>
      </trkpt>
      <trkpt lat="45.64706" lon="-1.11204">
        <ele>8.7</ele>
        <time>2021-03-28T19:29:17Z</time>
      </trkpt>
      <trkpt lat="45.64706" lon="-1.11202">
        <ele>8.7</ele>
        <time>2021-03-28T19:29:20Z</time>
      </trkpt>
      <trkpt lat="45.64706" lon="-1.11198">
        <ele>8.7</ele>
        <time>2021-03-28T19:29:25Z</time>
      </trkpt>
      <trkpt lat="45.64704" lon="-1.11195">
        <ele>8.7</ele>
        <time>2021-03-28T19:29:26Z</time>
      </trkpt>
      <trkpt lat="45.64702" lon="-1.11188">
        <ele>8.7</ele>
        <time>2021-03-28T19:29:31Z</time>
      </trkpt>
      <trkpt lat="45.64702" lon="-1.11181">
        <ele>8.8</ele>
        <time>2021-03-28T19:29:36Z</time>
      </trkpt>
      <trkpt lat="45.64708" lon="-1.1117">
        <ele>8.8</ele>
        <time>2021-03-28T19:29:46Z</time>
      </trkpt>
      <trkpt lat="45.64714" lon="-1.11154">
        <ele>8.9</ele>
        <time>2021-03-28T19:29:58Z</time>
      </trkpt>
      <trkpt lat="45.64716" lon="-1.11144">
        <ele>9</ele>
        <time>2021-03-28T19:30:05Z</time>
      </trkpt>
      <trkpt lat="45.64718" lon="-1.1114">
        <ele>9</ele>
        <time>2021-03-28T19:30:07Z</time>
      </trkpt>
      <trkpt lat="45.64718" lon="-1.11128">
        <ele>9.1</ele>
        <time>2021-03-28T19:30:17Z</time>
      </trkpt>
      <trkpt lat="45.64724" lon="-1.11102">
        <ele>9.6</ele>
        <time>2021-03-28T19:30:35Z</time>
      </trkpt>
      <trkpt lat="45.64724" lon="-1.11099">
        <ele>9.6</ele>
        <time>2021-03-28T19:30:38Z</time>
      </trkpt>
      <trkpt lat="45.64722" lon="-1.11093">
        <ele>9.7</ele>
        <time>2021-03-28T19:30:52Z</time>
      </trkpt>
      <trkpt lat="45.64722" lon="-1.11088">
        <ele>9.8</ele>
        <time>2021-03-28T19:30:58Z</time>
      </trkpt>
      <trkpt lat="45.64726" lon="-1.11072">
        <ele>10.2</ele>
        <time>2021-03-28T19:31:09Z</time>
      </trkpt>
      <trkpt lat="45.64727" lon="-1.11072">
        <ele>10.2</ele>
        <time>2021-03-28T19:31:12Z</time>
      </trkpt>
      <trkpt lat="45.64727" lon="-1.11074">
        <ele>10.2</ele>
        <time>2021-03-28T19:31:17Z</time>
      </trkpt>
      <trkpt lat="45.64728" lon="-1.11072">
        <ele>10.3</ele>
        <time>2021-03-28T19:31:25Z</time>
      </trkpt>
      <trkpt lat="45.64729" lon="-1.11073">
        <ele>10.3</ele>
        <time>2021-03-28T19:31:27Z</time>
      </trkpt>
      <trkpt lat="45.64729" lon="-1.11071">
        <ele>10.4</ele>
        <time>2021-03-28T19:31:32Z</time>
      </trkpt>
      <trkpt lat="45.64732" lon="-1.11066">
        <ele>10.5</ele>
        <time>2021-03-28T19:31:37Z</time>
      </trkpt>
      <trkpt lat="45.64739" lon="-1.11052">
        <ele>10.9</ele>
        <time>2021-03-28T19:31:47Z</time>
      </trkpt>
      <trkpt lat="45.64738" lon="-1.11049">
        <ele>11</ele>
        <time>2021-03-28T19:31:50Z</time>
      </trkpt>
      <trkpt lat="45.64736" lon="-1.11045">
        <ele>11.2</ele>
        <time>2021-03-28T19:31:54Z</time>
      </trkpt>
      <trkpt lat="45.64738" lon="-1.11039">
        <ele>11.3</ele>
        <time>2021-03-28T19:32:00Z</time>
      </trkpt>
      <trkpt lat="45.64741" lon="-1.11033">
        <ele>11.5</ele>
        <time>2021-03-28T19:32:06Z</time>
      </trkpt>
      <trkpt lat="45.64742" lon="-1.11032">
        <ele>11.6</ele>
        <time>2021-03-28T19:32:09Z</time>
      </trkpt>
      <trkpt lat="45.64741" lon="-1.11021">
        <ele>11.7</ele>
        <time>2021-03-28T19:32:19Z</time>
      </trkpt>
      <trkpt lat="45.64739" lon="-1.11016">
        <ele>11.7</ele>
        <time>2021-03-28T19:32:22Z</time>
      </trkpt>
      <trkpt lat="45.64737" lon="-1.11013">
        <ele>11.8</ele>
        <time>2021-03-28T19:32:26Z</time>
      </trkpt>
      <trkpt lat="45.64736" lon="-1.11003">
        <ele>11.8</ele>
        <time>2021-03-28T19:32:36Z</time>
      </trkpt>
      <trkpt lat="45.64734" lon="-1.10999">
        <ele>11.7</ele>
        <time>2021-03-28T19:32:40Z</time>
      </trkpt>
      <trkpt lat="45.64728" lon="-1.10999">
        <ele>11.5</ele>
        <time>2021-03-28T19:32:49Z</time>
      </trkpt>
      <trkpt lat="45.64721" lon="-1.10995">
        <ele>11.2</ele>
        <time>2021-03-28T19:33:13Z</time>
      </trkpt>
      <trkpt lat="45.64721" lon="-1.10994">
        <ele>11.1</ele>
        <time>2021-03-28T19:33:22Z</time>
      </trkpt>
      <trkpt lat="45.64717" lon="-1.10991">
        <ele>11</ele>
        <time>2021-03-28T19:33:34Z</time>
      </trkpt>
      <trkpt lat="45.64708" lon="-1.1098">
        <ele>10.5</ele>
        <time>2021-03-28T19:33:45Z</time>
      </trkpt>
      <trkpt lat="45.64704" lon="-1.10977">
        <ele>10.3</ele>
        <time>2021-03-28T19:33:50Z</time>
      </trkpt>
      <trkpt lat="45.64701" lon="-1.10978">
        <ele>10.2</ele>
        <time>2021-03-28T19:33:52Z</time>
      </trkpt>
      <trkpt lat="45.64694" lon="-1.10974">
        <ele>10</ele>
        <time>2021-03-28T19:33:58Z</time>
      </trkpt>
      <trkpt lat="45.64686" lon="-1.10974">
        <ele>9.7</ele>
        <time>2021-03-28T19:34:06Z</time>
      </trkpt>
      <trkpt lat="45.64682" lon="-1.10973">
        <ele>9.5</ele>
        <time>2021-03-28T19:34:10Z</time>
      </trkpt>
      <trkpt lat="45.64672" lon="-1.10967">
        <ele>9.2</ele>
        <time>2021-03-28T19:34:18Z</time>
      </trkpt>
      <trkpt lat="45.64669" lon="-1.10971">
        <ele>9.1</ele>
        <time>2021-03-28T19:34:23Z</time>
      </trkpt>
      <trkpt lat="45.64666" lon="-1.10973">
        <ele>9.1</ele>
        <time>2021-03-28T19:34:26Z</time>
      </trkpt>
      <trkpt lat="45.64661" lon="-1.10981">
        <ele>9</ele>
        <time>2021-03-28T19:34:34Z</time>
      </trkpt>
      <trkpt lat="45.64659" lon="-1.10982">
        <ele>9</ele>
        <time>2021-03-28T19:34:37Z</time>
      </trkpt>
      <trkpt lat="45.64659" lon="-1.10981">
        <ele>9.1</ele>
        <time>2021-03-28T19:34:41Z</time>
      </trkpt>
      <trkpt lat="45.64655" lon="-1.10985">
        <ele>9.1</ele>
        <time>2021-03-28T19:34:47Z</time>
      </trkpt>
      <trkpt lat="45.64651" lon="-1.10984">
        <ele>9.2</ele>
        <time>2021-03-28T19:34:51Z</time>
      </trkpt>
      <trkpt lat="45.64644" lon="-1.10972">
        <ele>9.5</ele>
        <time>2021-03-28T19:35:09Z</time>
      </trkpt>
      <trkpt lat="45.6464" lon="-1.10968">
        <ele>9.6</ele>
        <time>2021-03-28T19:35:13Z</time>
      </trkpt>
      <trkpt lat="45.64637" lon="-1.10966">
        <ele>9.8</ele>
        <time>2021-03-28T19:35:19Z</time>
      </trkpt>
      <trkpt lat="45.64627" lon="-1.10956">
        <ele>10.3</ele>
        <time>2021-03-28T19:35:32Z</time>
      </trkpt>
      <trkpt lat="45.64623" lon="-1.10947">
        <ele>10.6</ele>
        <time>2021-03-28T19:35:39Z</time>
      </trkpt>
      <trkpt lat="45.64621" lon="-1.10943">
        <ele>10.8</ele>
        <time>2021-03-28T19:35:43Z</time>
      </trkpt>
      <trkpt lat="45.64624" lon="-1.10947">
        <ele>10.9</ele>
        <time>2021-03-28T19:35:53Z</time>
      </trkpt>
      <trkpt lat="45.64623" lon="-1.10945">
        <ele>11</ele>
        <time>2021-03-28T19:36:07Z</time>
      </trkpt>
      <trkpt lat="45.64623" lon="-1.10946">
        <ele>11.1</ele>
        <time>2021-03-28T19:36:14Z</time>
      </trkpt>
      <trkpt lat="45.64613" lon="-1.1093">
        <ele>11.6</ele>
        <time>2021-03-28T19:36:35Z</time>
      </trkpt>
      <trkpt lat="45.64605" lon="-1.10925">
        <ele>11.9</ele>
        <time>2021-03-28T19:36:46Z</time>
      </trkpt>
      <trkpt lat="45.64595" lon="-1.10913">
        <ele>12.4</ele>
        <time>2021-03-28T19:37:00Z</time>
      </trkpt>
      <trkpt lat="45.64593" lon="-1.10907">
        <ele>12.6</ele>
        <time>2021-03-28T19:37:06Z</time>
      </trkpt>
      <trkpt lat="45.64597" lon="-1.10899">
        <ele>12.9</ele>
        <time>2021-03-28T19:37:13Z</time>
      </trkpt>
      <trkpt lat="45.64596" lon="-1.10897">
        <ele>13</ele>
        <time>2021-03-28T19:37:16Z</time>
      </trkpt>
      <trkpt lat="45.64595" lon="-1.10899">
        <ele>13</ele>
        <time>2021-03-28T19:37:20Z</time>
      </trkpt>
      <trkpt lat="45.64593" lon="-1.10893">
        <ele>13.1</ele>
        <time>2021-03-28T19:37:32Z</time>
      </trkpt>
      <trkpt lat="45.64591" lon="-1.10883">
        <ele>13.2</ele>
        <time>2021-03-28T19:37:40Z</time>
      </trkpt>
      <trkpt lat="45.64589" lon="-1.1088">
        <ele>13.3</ele>
        <time>2021-03-28T19:37:43Z</time>
      </trkpt>
      <trkpt lat="45.64586" lon="-1.1088">
        <ele>13.3</ele>
        <time>2021-03-28T19:37:49Z</time>
      </trkpt>
      <trkpt lat="45.64583" lon="-1.10878">
        <ele>13.3</ele>
        <time>2021-03-28T19:37:54Z</time>
      </trkpt>
      <trkpt lat="45.64585" lon="-1.10878">
        <ele>13.3</ele>
        <time>2021-03-28T19:38:13Z</time>
      </trkpt>
      <trkpt lat="45.64581" lon="-1.10871">
        <ele>13.2</ele>
        <time>2021-03-28T19:38:24Z</time>
      </trkpt>
      <trkpt lat="45.64575" lon="-1.10857">
        <ele>12.9</ele>
        <time>2021-03-28T19:38:37Z</time>
      </trkpt>
      <trkpt lat="45.64567" lon="-1.10843">
        <ele>12.5</ele>
        <time>2021-03-28T19:38:48Z</time>
      </trkpt>
      <trkpt lat="45.64562" lon="-1.10831">
        <ele>12</ele>
        <time>2021-03-28T19:38:59Z</time>
      </trkpt>
      <trkpt lat="45.64557" lon="-1.10826">
        <ele>11.8</ele>
        <time>2021-03-28T19:39:02Z</time>
      </trkpt>
      <trkpt lat="45.64557" lon="-1.10822">
        <ele>11.7</ele>
        <time>2021-03-28T19:39:06Z</time>
      </trkpt>
      <trkpt lat="45.64552" lon="-1.10815">
        <ele>11.5</ele>
        <time>2021-03-28T19:39:17Z</time>
      </trkpt>
      <trkpt lat="45.64549" lon="-1.10799">
        <ele>11.2</ele>
        <time>2021-03-28T19:39:29Z</time>
      </trkpt>
      <trkpt lat="45.64544" lon="-1.10769">
        <ele>10.8</ele>
        <time>2021-03-28T19:39:50Z</time>
      </trkpt>
      <trkpt lat="45.64539" lon="-1.1075">
        <ele>10.7</ele>
        <time>2021-03-28T19:40:04Z</time>
      </trkpt>
      <trkpt lat="45.64535" lon="-1.10732">
        <ele>10.5</ele>
        <time>2021-03-28T19:40:15Z</time>
      </trkpt>
      <trkpt lat="45.64529" lon="-1.10717">
        <ele>10.4</ele>
        <time>2021-03-28T19:40:38Z</time>
      </trkpt>
      <trkpt lat="45.64529" lon="-1.10717">
        <ele>10.4</ele>
        <time>2021-03-28T19:40:41Z</time>
      </trkpt>
      <trkpt lat="45.64526" lon="-1.10711">
        <ele>10.3</ele>
        <time>2021-03-28T19:40:47Z</time>
      </trkpt>
      <trkpt lat="45.64524" lon="-1.10705">
        <ele>10.2</ele>
        <time>2021-03-28T19:40:54Z</time>
      </trkpt>
      <trkpt lat="45.64525" lon="-1.10706">
        <ele>10.2</ele>
        <time>2021-03-28T19:41:03Z</time>
      </trkpt>
      <trkpt lat="45.64524" lon="-1.10705">
        <ele>10.1</ele>
        <time>2021-03-28T19:41:11Z</time>
      </trkpt>
      <trkpt lat="45.64523" lon="-1.10707">
        <ele>10.1</ele>
        <time>2021-03-28T19:41:15Z</time>
      </trkpt>
      <trkpt lat="45.64523" lon="-1.1071">
        <ele>10</ele>
        <time>2021-03-28T19:41:19Z</time>
      </trkpt>
      <trkpt lat="45.64522" lon="-1.10711">
        <ele>10</ele>
        <time>2021-03-28T19:41:32Z</time>
      </trkpt>
      <trkpt lat="45.64523" lon="-1.10712">
        <ele>9.9</ele>
        <time>2021-03-28T19:41:42Z</time>
      </trkpt>
      <trkpt lat="45.64522" lon="-1.1071">
        <ele>9.9</ele>
        <time>2021-03-28T19:41:47Z</time>
      </trkpt>
      <trkpt lat="45.64522" lon="-1.10711">
        <ele>9.9</ele>
        <time>2021-03-28T19:41:55Z</time>
      </trkpt>
      <trkpt lat="45.64521" lon="-1.10707">
        <ele>9.8</ele>
        <time>2021-03-28T19:42:03Z</time>
      </trkpt>
      <trkpt lat="45.64525" lon="-1.10706">
        <ele>9.6</ele>
        <time>2021-03-28T19:42:20Z</time>
      </trkpt>
      <trkpt lat="45.64524" lon="-1.10706">
        <ele>9.6</ele>
        <time>2021-03-28T19:43:00Z</time>
      </trkpt>
      <trkpt lat="45.64524" lon="-1.10705">
        <ele>9.5</ele>
        <time>2021-03-28T19:43:07Z</time>
      </trkpt>
      <trkpt lat="45.64523" lon="-1.10706">
        <ele>9.5</ele>
        <time>2021-03-28T19:44:00Z</time>
      </trkpt>
      <trkpt lat="45.6452" lon="-1.10704">
        <ele>9.4</ele>
        <time>2021-03-28T19:44:05Z</time>
      </trkpt>
      <trkpt lat="45.64515" lon="-1.10691">
        <ele>9.1</ele>
        <time>2021-03-28T19:44:13Z</time>
      </trkpt>
      <trkpt lat="45.64511" lon="-1.10686">
        <ele>8.9</ele>
        <time>2021-03-28T19:44:20Z</time>
      </trkpt>
      <trkpt lat="45.64503" lon="-1.10662">
        <ele>8.4</ele>
        <time>2021-03-28T19:44:38Z</time>
      </trkpt>
      <trkpt lat="45.64497" lon="-1.10653">
        <ele>8.3</ele>
        <time>2021-03-28T19:44:46Z</time>
      </trkpt>
      <trkpt lat="45.64486" lon="-1.10625">
        <ele>7.9</ele>
        <time>2021-03-28T19:45:07Z</time>
      </trkpt>
      <trkpt lat="45.64481" lon="-1.10604">
        <ele>7.7</ele>
        <time>2021-03-28T19:45:21Z</time>
      </trkpt>
      <trkpt lat="45.64481" lon="-1.10599">
        <ele>7.6</ele>
        <time>2021-03-28T19:45:26Z</time>
      </trkpt>
      <trkpt lat="45.64479" lon="-1.10598">
        <ele>7.6</ele>
        <time>2021-03-28T19:45:29Z</time>
      </trkpt>
      <trkpt lat="45.64479" lon="-1.10591">
        <ele>7.6</ele>
        <time>2021-03-28T19:45:35Z</time>
      </trkpt>
      <trkpt lat="45.64481" lon="-1.10583">
        <ele>7.5</ele>
        <time>2021-03-28T19:45:40Z</time>
      </trkpt>
      <trkpt lat="45.6448" lon="-1.10576">
        <ele>7.5</ele>
        <time>2021-03-28T19:45:45Z</time>
      </trkpt>
      <trkpt lat="45.64477" lon="-1.10569">
        <ele>7.4</ele>
        <time>2021-03-28T19:45:51Z</time>
      </trkpt>
      <trkpt lat="45.64476" lon="-1.10559">
        <ele>7.3</ele>
        <time>2021-03-28T19:45:58Z</time>
      </trkpt>
      <trkpt lat="45.64476" lon="-1.10546">
        <ele>7.2</ele>
        <time>2021-03-28T19:46:07Z</time>
      </trkpt>
      <trkpt lat="45.64476" lon="-1.10537">
        <ele>7.2</ele>
        <time>2021-03-28T19:46:14Z</time>
      </trkpt>
      <trkpt lat="45.64472" lon="-1.10516">
        <ele>7</ele>
        <time>2021-03-28T19:46:29Z</time>
      </trkpt>
      <trkpt lat="45.64472" lon="-1.10507">
        <ele>6.9</ele>
        <time>2021-03-28T19:46:34Z</time>
      </trkpt>
      <trkpt lat="45.6447" lon="-1.10499">
        <ele>6.9</ele>
        <time>2021-03-28T19:46:41Z</time>
      </trkpt>
      <trkpt lat="45.64468" lon="-1.10484">
        <ele>6.8</ele>
        <time>2021-03-28T19:46:49Z</time>
      </trkpt>
      <trkpt lat="45.64467" lon="-1.10466">
        <ele>6.8</ele>
        <time>2021-03-28T19:47:00Z</time>
      </trkpt>
      <trkpt lat="45.64468" lon="-1.10465">
        <ele>6.8</ele>
        <time>2021-03-28T19:47:03Z</time>
      </trkpt>
      <trkpt lat="45.64467" lon="-1.10464">
        <ele>6.8</ele>
        <time>2021-03-28T19:47:09Z</time>
      </trkpt>
      <trkpt lat="45.64472" lon="-1.10455">
        <ele>6.8</ele>
        <time>2021-03-28T19:47:26Z</time>
      </trkpt>
      <trkpt lat="45.64473" lon="-1.1045">
        <ele>6.8</ele>
        <time>2021-03-28T19:47:29Z</time>
      </trkpt>
      <trkpt lat="45.64475" lon="-1.10447">
        <ele>6.9</ele>
        <time>2021-03-28T19:47:33Z</time>
      </trkpt>
      <trkpt lat="45.64476" lon="-1.10447">
        <ele>6.9</ele>
        <time>2021-03-28T19:47:34Z</time>
      </trkpt>
      <trkpt lat="45.64483" lon="-1.10438">
        <ele>7.1</ele>
        <time>2021-03-28T19:47:47Z</time>
      </trkpt>
      <trkpt lat="45.64483" lon="-1.10436">
        <ele>7.2</ele>
        <time>2021-03-28T19:47:53Z</time>
      </trkpt>
      <trkpt lat="45.64496" lon="-1.10428">
        <ele>7.5</ele>
        <time>2021-03-28T19:48:09Z</time>
      </trkpt>
      <trkpt lat="45.64495" lon="-1.10427">
        <ele>7.5</ele>
        <time>2021-03-28T19:48:12Z</time>
      </trkpt>
      <trkpt lat="45.64501" lon="-1.10423">
        <ele>7.6</ele>
        <time>2021-03-28T19:48:29Z</time>
      </trkpt>
      <trkpt lat="45.645" lon="-1.10421">
        <ele>7.6</ele>
        <time>2021-03-28T19:48:33Z</time>
      </trkpt>
      <trkpt lat="45.64499" lon="-1.10422">
        <ele>7.6</ele>
        <time>2021-03-28T19:48:36Z</time>
      </trkpt>
      <trkpt lat="45.64501" lon="-1.10423">
        <ele>7.7</ele>
        <time>2021-03-28T19:48:56Z</time>
      </trkpt>
      <trkpt lat="45.64506" lon="-1.1042">
        <ele>7.7</ele>
        <time>2021-03-28T19:49:16Z</time>
      </trkpt>
      <trkpt lat="45.64506" lon="-1.10421">
        <ele>7.8</ele>
        <time>2021-03-28T19:49:17Z</time>
      </trkpt>
      <trkpt lat="45.64508" lon="-1.10418">
        <ele>7.8</ele>
        <time>2021-03-28T19:49:22Z</time>
      </trkpt>
      <trkpt lat="45.64512" lon="-1.10418">
        <ele>7.8</ele>
        <time>2021-03-28T19:49:29Z</time>
      </trkpt>
      <trkpt lat="45.64522" lon="-1.10413">
        <ele>7.9</ele>
        <time>2021-03-28T19:49:44Z</time>
      </trkpt>
      <trkpt lat="45.64532" lon="-1.10401">
        <ele>7.9</ele>
        <time>2021-03-28T19:49:56Z</time>
      </trkpt>
      <trkpt lat="45.64535" lon="-1.10397">
        <ele>7.9</ele>
        <time>2021-03-28T19:50:00Z</time>
      </trkpt>
      <trkpt lat="45.64551" lon="-1.10374">
        <ele>7.7</ele>
        <time>2021-03-28T19:50:22Z</time>
      </trkpt>
      <trkpt lat="45.64553" lon="-1.10359">
        <ele>7.5</ele>
        <time>2021-03-28T19:50:32Z</time>
      </trkpt>
      <trkpt lat="45.64552" lon="-1.10342">
        <ele>7</ele>
        <time>2021-03-28T19:50:45Z</time>
      </trkpt>
      <trkpt lat="45.64554" lon="-1.10336">
        <ele>6.7</ele>
        <time>2021-03-28T19:50:52Z</time>
      </trkpt>
      <trkpt lat="45.64556" lon="-1.10333">
        <ele>6.6</ele>
        <time>2021-03-28T19:50:56Z</time>
      </trkpt>
      <trkpt lat="45.64558" lon="-1.10326">
        <ele>6.4</ele>
        <time>2021-03-28T19:51:01Z</time>
      </trkpt>
      <trkpt lat="45.64558" lon="-1.10318">
        <ele>6.4</ele>
        <time>2021-03-28T19:51:06Z</time>
      </trkpt>
      <trkpt lat="45.64551" lon="-1.10291">
        <ele>6.4</ele>
        <time>2021-03-28T19:51:28Z</time>
      </trkpt>
      <trkpt lat="45.6455" lon="-1.10282">
        <ele>6.5</ele>
        <time>2021-03-28T19:51:34Z</time>
      </trkpt>
      <trkpt lat="45.64552" lon="-1.10277">
        <ele>6.5</ele>
        <time>2021-03-28T19:51:39Z</time>
      </trkpt>
      <trkpt lat="45.64549" lon="-1.10266">
        <ele>6.6</ele>
        <time>2021-03-28T19:51:48Z</time>
      </trkpt>
      <trkpt lat="45.64549" lon="-1.10262">
        <ele>6.7</ele>
        <time>2021-03-28T19:51:50Z</time>
      </trkpt>
      <trkpt lat="45.64552" lon="-1.10248">
        <ele>6.7</ele>
        <time>2021-03-28T19:52:00Z</time>
      </trkpt>
      <trkpt lat="45.64548" lon="-1.10227">
        <ele>6.9</ele>
        <time>2021-03-28T19:52:14Z</time>
      </trkpt>
      <trkpt lat="45.64548" lon="-1.10212">
        <ele>7</ele>
        <time>2021-03-28T19:52:24Z</time>
      </trkpt>
      <trkpt lat="45.64545" lon="-1.10197">
        <ele>7.3</ele>
        <time>2021-03-28T19:52:40Z</time>
      </trkpt>
      <trkpt lat="45.64543" lon="-1.10194">
        <ele>7.4</ele>
        <time>2021-03-28T19:52:49Z</time>
      </trkpt>
      <trkpt lat="45.64543" lon="-1.10191">
        <ele>7.5</ele>
        <time>2021-03-28T19:52:51Z</time>
      </trkpt>
      <trkpt lat="45.64544" lon="-1.10186">
        <ele>7.7</ele>
        <time>2021-03-28T19:52:54Z</time>
      </trkpt>
      <trkpt lat="45.64546" lon="-1.10184">
        <ele>7.8</ele>
        <time>2021-03-28T19:52:59Z</time>
      </trkpt>
      <trkpt lat="45.64546" lon="-1.10183">
        <ele>7.8</ele>
        <time>2021-03-28T19:53:01Z</time>
      </trkpt>
      <trkpt lat="45.64545" lon="-1.10184">
        <ele>7.9</ele>
        <time>2021-03-28T19:53:03Z</time>
      </trkpt>
      <trkpt lat="45.64541" lon="-1.10164">
        <ele>8.5</ele>
        <time>2021-03-28T19:53:17Z</time>
      </trkpt>
      <trkpt lat="45.6454" lon="-1.10158">
        <ele>8.6</ele>
        <time>2021-03-28T19:53:21Z</time>
      </trkpt>
      <trkpt lat="45.64537" lon="-1.10143">
        <ele>8.8</ele>
        <time>2021-03-28T19:53:38Z</time>
      </trkpt>
      <trkpt lat="45.64535" lon="-1.10135">
        <ele>8.8</ele>
        <time>2021-03-28T19:53:44Z</time>
      </trkpt>
      <trkpt lat="45.64524" lon="-1.10116">
        <ele>8.3</ele>
        <time>2021-03-28T19:54:03Z</time>
      </trkpt>
      <trkpt lat="45.64522" lon="-1.10115">
        <ele>8.3</ele>
        <time>2021-03-28T19:54:07Z</time>
      </trkpt>
      <trkpt lat="45.64519" lon="-1.10112">
        <ele>8.2</ele>
        <time>2021-03-28T19:54:10Z</time>
      </trkpt>
      <trkpt lat="45.64519" lon="-1.10104">
        <ele>8.2</ele>
        <time>2021-03-28T19:54:16Z</time>
      </trkpt>
      <trkpt lat="45.64517" lon="-1.10098">
        <ele>8.3</ele>
        <time>2021-03-28T19:54:20Z</time>
      </trkpt>
      <trkpt lat="45.64516" lon="-1.10094">
        <ele>8.4</ele>
        <time>2021-03-28T19:54:24Z</time>
      </trkpt>
      <trkpt lat="45.6451" lon="-1.10075">
        <ele>8.9</ele>
        <time>2021-03-28T19:54:38Z</time>
      </trkpt>
      <trkpt lat="45.64496" lon="-1.10047">
        <ele>9.1</ele>
        <time>2021-03-28T19:55:00Z</time>
      </trkpt>
      <trkpt lat="45.64478" lon="-1.10023">
        <ele>9.1</ele>
        <time>2021-03-28T19:55:24Z</time>
      </trkpt>
      <trkpt lat="45.64476" lon="-1.10018">
        <ele>9.1</ele>
        <time>2021-03-28T19:55:28Z</time>
      </trkpt>
      <trkpt lat="45.64479" lon="-1.10016">
        <ele>9.1</ele>
        <time>2021-03-28T19:55:34Z</time>
      </trkpt>
      <trkpt lat="45.64478" lon="-1.10015">
        <ele>9.1</ele>
        <time>2021-03-28T19:55:41Z</time>
      </trkpt>
      <trkpt lat="45.64477" lon="-1.10016">
        <ele>9.1</ele>
        <time>2021-03-28T19:55:43Z</time>
      </trkpt>
      <trkpt lat="45.64478" lon="-1.10017">
        <ele>9.1</ele>
        <time>2021-03-28T19:55:47Z</time>
      </trkpt>
      <trkpt lat="45.64475" lon="-1.10012">
        <ele>9.1</ele>
        <time>2021-03-28T19:55:58Z</time>
      </trkpt>
      <trkpt lat="45.64476" lon="-1.10012">
        <ele>9.1</ele>
        <time>2021-03-28T19:56:13Z</time>
      </trkpt>
      <trkpt lat="45.64473" lon="-1.1001">
        <ele>9.1</ele>
        <time>2021-03-28T19:56:20Z</time>
      </trkpt>
      <trkpt lat="45.6447" lon="-1.10002">
        <ele>9.1</ele>
        <time>2021-03-28T19:56:26Z</time>
      </trkpt>
      <trkpt lat="45.64468" lon="-1.09997">
        <ele>9.1</ele>
        <time>2021-03-28T19:56:31Z</time>
      </trkpt>
      <trkpt lat="45.6446" lon="-1.09982">
        <ele>9.1</ele>
        <time>2021-03-28T19:56:42Z</time>
      </trkpt>
      <trkpt lat="45.64451" lon="-1.09971">
        <ele>9.1</ele>
        <time>2021-03-28T19:56:51Z</time>
      </trkpt>
      <trkpt lat="45.64448" lon="-1.09964">
        <ele>9.1</ele>
        <time>2021-03-28T19:56:55Z</time>
      </trkpt>
      <trkpt lat="45.6444" lon="-1.09954">
        <ele>9.1</ele>
        <time>2021-03-28T19:57:07Z</time>
      </trkpt>
      <trkpt lat="45.64431" lon="-1.09945">
        <ele>9.1</ele>
        <time>2021-03-28T19:57:15Z</time>
      </trkpt>
      <trkpt lat="45.64426" lon="-1.09941">
        <ele>9.1</ele>
        <time>2021-03-28T19:57:21Z</time>
      </trkpt>
      <trkpt lat="45.6442" lon="-1.09933">
        <ele>9.2</ele>
        <time>2021-03-28T19:57:30Z</time>
      </trkpt>
      <trkpt lat="45.64409" lon="-1.09925">
        <ele>9.3</ele>
        <time>2021-03-28T19:57:39Z</time>
      </trkpt>
      <trkpt lat="45.64404" lon="-1.09919">
        <ele>9.4</ele>
        <time>2021-03-28T19:57:46Z</time>
      </trkpt>
      <trkpt lat="45.64392" lon="-1.0991">
        <ele>9.6</ele>
        <time>2021-03-28T19:57:59Z</time>
      </trkpt>
      <trkpt lat="45.64381" lon="-1.09893">
        <ele>9.7</ele>
        <time>2021-03-28T19:58:17Z</time>
      </trkpt>
      <trkpt lat="45.64384" lon="-1.09895">
        <ele>9.7</ele>
        <time>2021-03-28T19:58:33Z</time>
      </trkpt>
      <trkpt lat="45.64384" lon="-1.09896">
        <ele>9.7</ele>
        <time>2021-03-28T19:58:47Z</time>
      </trkpt>
      <trkpt lat="45.64383" lon="-1.09893">
        <ele>9.8</ele>
        <time>2021-03-28T19:58:55Z</time>
      </trkpt>
      <trkpt lat="45.64383" lon="-1.09891">
        <ele>9.8</ele>
        <time>2021-03-28T19:59:14Z</time>
      </trkpt>
      <trkpt lat="45.6438" lon="-1.09891">
        <ele>9.8</ele>
        <time>2021-03-28T20:00:50Z</time>
      </trkpt>
      <trkpt lat="45.64379" lon="-1.09889">
        <ele>9.8</ele>
        <time>2021-03-28T20:00:53Z</time>
      </trkpt>
      <trkpt lat="45.64378" lon="-1.09889">
        <ele>9.8</ele>
        <time>2021-03-28T20:00:54Z</time>
      </trkpt>
      <trkpt lat="45.64374" lon="-1.09887">
        <ele>9.9</ele>
        <time>2021-03-28T20:00:57Z</time>
      </trkpt>
      <trkpt lat="45.64352" lon="-1.09868">
        <ele>10.4</ele>
        <time>2021-03-28T20:01:17Z</time>
      </trkpt>
      <trkpt lat="45.64345" lon="-1.09859">
        <ele>10.8</ele>
        <time>2021-03-28T20:01:23Z</time>
      </trkpt>
      <trkpt lat="45.64334" lon="-1.09847">
        <ele>11.5</ele>
        <time>2021-03-28T20:01:37Z</time>
      </trkpt>
      <trkpt lat="45.64328" lon="-1.09848">
        <ele>11.8</ele>
        <time>2021-03-28T20:01:42Z</time>
      </trkpt>
      <trkpt lat="45.64325" lon="-1.09845">
        <ele>12</ele>
        <time>2021-03-28T20:01:47Z</time>
      </trkpt>
      <trkpt lat="45.64325" lon="-1.09846">
        <ele>12</ele>
        <time>2021-03-28T20:01:49Z</time>
      </trkpt>
      <trkpt lat="45.64308" lon="-1.09824">
        <ele>12.9</ele>
        <time>2021-03-28T20:02:08Z</time>
      </trkpt>
      <trkpt lat="45.64294" lon="-1.09811">
        <ele>13.2</ele>
        <time>2021-03-28T20:02:23Z</time>
      </trkpt>
      <trkpt lat="45.64282" lon="-1.09804">
        <ele>13.3</ele>
        <time>2021-03-28T20:02:35Z</time>
      </trkpt>
      <trkpt lat="45.64279" lon="-1.098">
        <ele>13.3</ele>
        <time>2021-03-28T20:02:39Z</time>
      </trkpt>
      <trkpt lat="45.64277" lon="-1.09796">
        <ele>13.2</ele>
        <time>2021-03-28T20:02:41Z</time>
      </trkpt>
      <trkpt lat="45.64269" lon="-1.09785">
        <ele>13.1</ele>
        <time>2021-03-28T20:02:51Z</time>
      </trkpt>
      <trkpt lat="45.6425" lon="-1.09775">
        <ele>12.7</ele>
        <time>2021-03-28T20:03:08Z</time>
      </trkpt>
      <trkpt lat="45.64237" lon="-1.09764">
        <ele>12.3</ele>
        <time>2021-03-28T20:03:22Z</time>
      </trkpt>
      <trkpt lat="45.64232" lon="-1.09764">
        <ele>12.2</ele>
        <time>2021-03-28T20:03:28Z</time>
      </trkpt>
      <trkpt lat="45.64225" lon="-1.09759">
        <ele>12</ele>
        <time>2021-03-28T20:03:36Z</time>
      </trkpt>
      <trkpt lat="45.64218" lon="-1.09753">
        <ele>11.8</ele>
        <time>2021-03-28T20:03:44Z</time>
      </trkpt>
      <trkpt lat="45.64214" lon="-1.09752">
        <ele>11.8</ele>
        <time>2021-03-28T20:03:48Z</time>
      </trkpt>
      <trkpt lat="45.6421" lon="-1.09748">
        <ele>11.8</ele>
        <time>2021-03-28T20:03:53Z</time>
      </trkpt>
      <trkpt lat="45.64202" lon="-1.09744">
        <ele>11.9</ele>
        <time>2021-03-28T20:04:03Z</time>
      </trkpt>
      <trkpt lat="45.64189" lon="-1.09732">
        <ele>12</ele>
        <time>2021-03-28T20:04:18Z</time>
      </trkpt>
      <trkpt lat="45.64181" lon="-1.09727">
        <ele>12.1</ele>
        <time>2021-03-28T20:04:26Z</time>
      </trkpt>
      <trkpt lat="45.64174" lon="-1.09722">
        <ele>12.2</ele>
        <time>2021-03-28T20:04:33Z</time>
      </trkpt>
      <trkpt lat="45.64155" lon="-1.09714">
        <ele>12.5</ele>
        <time>2021-03-28T20:04:50Z</time>
      </trkpt>
      <trkpt lat="45.64152" lon="-1.09711">
        <ele>12.5</ele>
        <time>2021-03-28T20:04:55Z</time>
      </trkpt>
      <trkpt lat="45.6415" lon="-1.0971">
        <ele>12.5</ele>
        <time>2021-03-28T20:04:57Z</time>
      </trkpt>
      <trkpt lat="45.64147" lon="-1.09714">
        <ele>12.4</ele>
        <time>2021-03-28T20:05:01Z</time>
      </trkpt>
      <trkpt lat="45.64147" lon="-1.09715">
        <ele>12.3</ele>
        <time>2021-03-28T20:05:05Z</time>
      </trkpt>
      <trkpt lat="45.64136" lon="-1.09727">
        <ele>11.8</ele>
        <time>2021-03-28T20:05:19Z</time>
      </trkpt>
      <trkpt lat="45.64129" lon="-1.09731">
        <ele>11.7</ele>
        <time>2021-03-28T20:05:25Z</time>
      </trkpt>
      <trkpt lat="45.64125" lon="-1.09731">
        <ele>11.7</ele>
        <time>2021-03-28T20:05:29Z</time>
      </trkpt>
      <trkpt lat="45.64122" lon="-1.09729">
        <ele>11.7</ele>
        <time>2021-03-28T20:05:33Z</time>
      </trkpt>
      <trkpt lat="45.64122" lon="-1.0973">
        <ele>11.7</ele>
        <time>2021-03-28T20:05:35Z</time>
      </trkpt>
      <trkpt lat="45.64113" lon="-1.09727">
        <ele>12.4</ele>
        <time>2021-03-28T20:05:44Z</time>
      </trkpt>
      <trkpt lat="45.64105" lon="-1.09721">
        <ele>13.8</ele>
        <time>2021-03-28T20:05:55Z</time>
      </trkpt>
      <trkpt lat="45.64102" lon="-1.09712">
        <ele>14.6</ele>
        <time>2021-03-28T20:06:06Z</time>
      </trkpt>
      <trkpt lat="45.64096" lon="-1.09708">
        <ele>15.1</ele>
        <time>2021-03-28T20:06:14Z</time>
      </trkpt>
      <trkpt lat="45.64095" lon="-1.09706">
        <ele>15.3</ele>
        <time>2021-03-28T20:06:16Z</time>
      </trkpt>
      <trkpt lat="45.64096" lon="-1.09693">
        <ele>15.8</ele>
        <time>2021-03-28T20:06:26Z</time>
      </trkpt>
      <trkpt lat="45.64095" lon="-1.0969">
        <ele>15.9</ele>
        <time>2021-03-28T20:06:29Z</time>
      </trkpt>
      <trkpt lat="45.64094" lon="-1.09692">
        <ele>16</ele>
        <time>2021-03-28T20:06:44Z</time>
      </trkpt>
      <trkpt lat="45.64095" lon="-1.09693">
        <ele>16.1</ele>
        <time>2021-03-28T20:06:47Z</time>
      </trkpt>
      <trkpt lat="45.64095" lon="-1.09687">
        <ele>16.3</ele>
        <time>2021-03-28T20:06:55Z</time>
      </trkpt>
      <trkpt lat="45.64096" lon="-1.09684">
        <ele>16.4</ele>
        <time>2021-03-28T20:06:59Z</time>
      </trkpt>
      <trkpt lat="45.64097" lon="-1.09677">
        <ele>16.6</ele>
        <time>2021-03-28T20:07:03Z</time>
      </trkpt>
      <trkpt lat="45.64094" lon="-1.09666">
        <ele>16.5</ele>
        <time>2021-03-28T20:07:15Z</time>
      </trkpt>
      <trkpt lat="45.64085" lon="-1.09657">
        <ele>16.5</ele>
        <time>2021-03-28T20:07:23Z</time>
      </trkpt>
      <trkpt lat="45.64077" lon="-1.09654">
        <ele>16.5</ele>
        <time>2021-03-28T20:07:29Z</time>
      </trkpt>
      <trkpt lat="45.64072" lon="-1.09647">
        <ele>16.5</ele>
        <time>2021-03-28T20:07:37Z</time>
      </trkpt>
      <trkpt lat="45.64071" lon="-1.09643">
        <ele>16.5</ele>
        <time>2021-03-28T20:07:39Z</time>
      </trkpt>
      <trkpt lat="45.64061" lon="-1.09628">
        <ele>16.4</ele>
        <time>2021-03-28T20:07:51Z</time>
      </trkpt>
      <trkpt lat="45.64058" lon="-1.09624">
        <ele>16.4</ele>
        <time>2021-03-28T20:07:54Z</time>
      </trkpt>
      <trkpt lat="45.64053" lon="-1.09614">
        <ele>16.3</ele>
        <time>2021-03-28T20:08:03Z</time>
      </trkpt>
      <trkpt lat="45.64052" lon="-1.09608">
        <ele>16.3</ele>
        <time>2021-03-28T20:08:08Z</time>
      </trkpt>
      <trkpt lat="45.64051" lon="-1.09608">
        <ele>16.2</ele>
        <time>2021-03-28T20:08:10Z</time>
      </trkpt>
      <trkpt lat="45.64039" lon="-1.0958">
        <ele>15.9</ele>
        <time>2021-03-28T20:08:32Z</time>
      </trkpt>
      <trkpt lat="45.64038" lon="-1.09581">
        <ele>15.9</ele>
        <time>2021-03-28T20:08:33Z</time>
      </trkpt>
      <trkpt lat="45.6404" lon="-1.09596">
        <ele>15.4</ele>
        <time>2021-03-28T20:08:48Z</time>
      </trkpt>
      <trkpt lat="45.64039" lon="-1.09589">
        <ele>15.1</ele>
        <time>2021-03-28T20:08:57Z</time>
      </trkpt>
      <trkpt lat="45.64037" lon="-1.09586">
        <ele>14.8</ele>
        <time>2021-03-28T20:09:00Z</time>
      </trkpt>
      <trkpt lat="45.64034" lon="-1.09585">
        <ele>14.6</ele>
        <time>2021-03-28T20:09:04Z</time>
      </trkpt>
      <trkpt lat="45.64027" lon="-1.09574">
        <ele>13.5</ele>
        <time>2021-03-28T20:09:21Z</time>
      </trkpt>
      <trkpt lat="45.64023" lon="-1.09563">
        <ele>12.7</ele>
        <time>2021-03-28T20:09:28Z</time>
      </trkpt>
      <trkpt lat="45.64023" lon="-1.09561">
        <ele>12.5</ele>
        <time>2021-03-28T20:09:30Z</time>
      </trkpt>
      <trkpt lat="45.64025" lon="-1.09562">
        <ele>12.4</ele>
        <time>2021-03-28T20:09:33Z</time>
      </trkpt>
      <trkpt lat="45.64027" lon="-1.09549">
        <ele>11.5</ele>
        <time>2021-03-28T20:09:44Z</time>
      </trkpt>
      <trkpt lat="45.64024" lon="-1.09544">
        <ele>11.4</ele>
        <time>2021-03-28T20:09:48Z</time>
      </trkpt>
      <trkpt lat="45.64017" lon="-1.09537">
        <ele>11.3</ele>
        <time>2021-03-28T20:09:53Z</time>
      </trkpt>
      <trkpt lat="45.64015" lon="-1.0953">
        <ele>11.3</ele>
        <time>2021-03-28T20:09:57Z</time>
      </trkpt>
      <trkpt lat="45.64015" lon="-1.09528">
        <ele>11.3</ele>
        <time>2021-03-28T20:09:59Z</time>
      </trkpt>
      <trkpt lat="45.64017" lon="-1.09528">
        <ele>11.3</ele>
        <time>2021-03-28T20:10:04Z</time>
      </trkpt>
      <trkpt lat="45.64015" lon="-1.09528">
        <ele>11.3</ele>
        <time>2021-03-28T20:10:11Z</time>
      </trkpt>
      <trkpt lat="45.64008" lon="-1.09511">
        <ele>11.2</ele>
        <time>2021-03-28T20:10:25Z</time>
      </trkpt>
      <trkpt lat="45.64009" lon="-1.0951">
        <ele>11.1</ele>
        <time>2021-03-28T20:10:30Z</time>
      </trkpt>
      <trkpt lat="45.64006" lon="-1.09496">
        <ele>10.8</ele>
        <time>2021-03-28T20:10:42Z</time>
      </trkpt>
      <trkpt lat="45.64006" lon="-1.09491">
        <ele>10.7</ele>
        <time>2021-03-28T20:10:46Z</time>
      </trkpt>
      <trkpt lat="45.64003" lon="-1.09485">
        <ele>10.6</ele>
        <time>2021-03-28T20:10:49Z</time>
      </trkpt>
      <trkpt lat="45.63997" lon="-1.09478">
        <ele>10.5</ele>
        <time>2021-03-28T20:10:55Z</time>
      </trkpt>
      <trkpt lat="45.63996" lon="-1.0947">
        <ele>10.5</ele>
        <time>2021-03-28T20:11:02Z</time>
      </trkpt>
      <trkpt lat="45.63997" lon="-1.09455">
        <ele>10.3</ele>
        <time>2021-03-28T20:11:11Z</time>
      </trkpt>
      <trkpt lat="45.63994" lon="-1.09451">
        <ele>10.2</ele>
        <time>2021-03-28T20:11:13Z</time>
      </trkpt>
      <trkpt lat="45.63989" lon="-1.09445">
        <ele>10</ele>
        <time>2021-03-28T20:11:20Z</time>
      </trkpt>
      <trkpt lat="45.63989" lon="-1.09441">
        <ele>9.9</ele>
        <time>2021-03-28T20:11:28Z</time>
      </trkpt>
      <trkpt lat="45.6399" lon="-1.0944">
        <ele>9.8</ele>
        <time>2021-03-28T20:11:30Z</time>
      </trkpt>
      <trkpt lat="45.63987" lon="-1.09437">
        <ele>9.7</ele>
        <time>2021-03-28T20:11:35Z</time>
      </trkpt>
      <trkpt lat="45.63989" lon="-1.09438">
        <ele>9.6</ele>
        <time>2021-03-28T20:11:42Z</time>
      </trkpt>
      <trkpt lat="45.63989" lon="-1.09435">
        <ele>9.4</ele>
        <time>2021-03-28T20:11:57Z</time>
      </trkpt>
      <trkpt lat="45.6399" lon="-1.09437">
        <ele>9.3</ele>
        <time>2021-03-28T20:12:23Z</time>
      </trkpt>
      <trkpt lat="45.63993" lon="-1.09434">
        <ele>8.9</ele>
        <time>2021-03-28T20:12:27Z</time>
      </trkpt>
      <trkpt lat="45.63993" lon="-1.09434">
        <ele>8.9</ele>
        <time>2021-03-28T20:12:29Z</time>
      </trkpt>
      <trkpt lat="45.63995" lon="-1.09434">
        <ele>8.9</ele>
        <time>2021-03-28T20:12:33Z</time>
      </trkpt>
      <trkpt lat="45.63994" lon="-1.09435">
        <ele>8.9</ele>
        <time>2021-03-28T20:12:37Z</time>
      </trkpt>
      <trkpt lat="45.63995" lon="-1.09437">
        <ele>8.9</ele>
        <time>2021-03-28T20:12:43Z</time>
      </trkpt>
      <trkpt lat="45.63997" lon="-1.09438">
        <ele>8.9</ele>
        <time>2021-03-28T20:12:51Z</time>
      </trkpt>
      <trkpt lat="45.63999" lon="-1.09435">
        <ele>8.9</ele>
        <time>2021-03-28T20:12:57Z</time>
      </trkpt>
      <trkpt lat="45.64001" lon="-1.09426">
        <ele>8.9</ele>
        <time>2021-03-28T20:13:06Z</time>
      </trkpt>
      <trkpt lat="45.64008" lon="-1.09418">
        <ele>9.3</ele>
        <time>2021-03-28T20:13:25Z</time>
      </trkpt>
      <trkpt lat="45.6401" lon="-1.09418">
        <ele>9.7</ele>
        <time>2021-03-28T20:13:31Z</time>
      </trkpt>
      <trkpt lat="45.64012" lon="-1.09422">
        <ele>10.3</ele>
        <time>2021-03-28T20:13:40Z</time>
      </trkpt>
      <trkpt lat="45.64015" lon="-1.0942">
        <ele>10.8</ele>
        <time>2021-03-28T20:13:47Z</time>
      </trkpt>
      <trkpt lat="45.64021" lon="-1.09401">
        <ele>13.3</ele>
        <time>2021-03-28T20:14:00Z</time>
      </trkpt>
      <trkpt lat="45.64022" lon="-1.09386">
        <ele>13.6</ele>
        <time>2021-03-28T20:14:08Z</time>
      </trkpt>
      <trkpt lat="45.64026" lon="-1.09372">
        <ele>13.3</ele>
        <time>2021-03-28T20:14:17Z</time>
      </trkpt>
      <trkpt lat="45.64026" lon="-1.09372">
        <ele>13.3</ele>
        <time>2021-03-28T20:14:19Z</time>
      </trkpt>
      <trkpt lat="45.6403" lon="-1.09365">
        <ele>13.2</ele>
        <time>2021-03-28T20:14:31Z</time>
      </trkpt>
      <trkpt lat="45.6403" lon="-1.0936">
        <ele>13.2</ele>
        <time>2021-03-28T20:14:35Z</time>
      </trkpt>
      <trkpt lat="45.64029" lon="-1.09357">
        <ele>13.2</ele>
        <time>2021-03-28T20:14:37Z</time>
      </trkpt>
      <trkpt lat="45.64027" lon="-1.09357">
        <ele>13.2</ele>
        <time>2021-03-28T20:14:40Z</time>
      </trkpt>
      <trkpt lat="45.64027" lon="-1.09351">
        <ele>13.2</ele>
        <time>2021-03-28T20:14:45Z</time>
      </trkpt>
      <trkpt lat="45.6402" lon="-1.09338">
        <ele>13.1</ele>
        <time>2021-03-28T20:14:54Z</time>
      </trkpt>
      <trkpt lat="45.64018" lon="-1.09338">
        <ele>13.1</ele>
        <time>2021-03-28T20:14:57Z</time>
      </trkpt>
      <trkpt lat="45.64019" lon="-1.09335">
        <ele>13.1</ele>
        <time>2021-03-28T20:15:13Z</time>
      </trkpt>
      <trkpt lat="45.64017" lon="-1.09315">
        <ele>12.9</ele>
        <time>2021-03-28T20:15:27Z</time>
      </trkpt>
      <trkpt lat="45.64014" lon="-1.09303">
        <ele>12.8</ele>
        <time>2021-03-28T20:15:34Z</time>
      </trkpt>
      <trkpt lat="45.64013" lon="-1.0928">
        <ele>12.5</ele>
        <time>2021-03-28T20:15:50Z</time>
      </trkpt>
      <trkpt lat="45.64013" lon="-1.09277">
        <ele>12.5</ele>
        <time>2021-03-28T20:15:53Z</time>
      </trkpt>
      <trkpt lat="45.64011" lon="-1.09271">
        <ele>12.3</ele>
        <time>2021-03-28T20:15:57Z</time>
      </trkpt>
      <trkpt lat="45.64009" lon="-1.09259">
        <ele>12.1</ele>
        <time>2021-03-28T20:16:05Z</time>
      </trkpt>
      <trkpt lat="45.6401" lon="-1.09252">
        <ele>11.9</ele>
        <time>2021-03-28T20:16:10Z</time>
      </trkpt>
      <trkpt lat="45.64007" lon="-1.09238">
        <ele>11.6</ele>
        <time>2021-03-28T20:16:18Z</time>
      </trkpt>
      <trkpt lat="45.64006" lon="-1.09222">
        <ele>11.1</ele>
        <time>2021-03-28T20:16:29Z</time>
      </trkpt>
      <trkpt lat="45.64004" lon="-1.0921">
        <ele>10.9</ele>
        <time>2021-03-28T20:16:37Z</time>
      </trkpt>
      <trkpt lat="45.64001" lon="-1.09205">
        <ele>10.8</ele>
        <time>2021-03-28T20:16:41Z</time>
      </trkpt>
      <trkpt lat="45.64003" lon="-1.09194">
        <ele>10.7</ele>
        <time>2021-03-28T20:16:49Z</time>
      </trkpt>
      <trkpt lat="45.64001" lon="-1.09189">
        <ele>10.7</ele>
        <time>2021-03-28T20:16:53Z</time>
      </trkpt>
      <trkpt lat="45.64001" lon="-1.09191">
        <ele>10.6</ele>
        <time>2021-03-28T20:17:01Z</time>
      </trkpt>
      <trkpt lat="45.64006" lon="-1.09181">
        <ele>10.5</ele>
        <time>2021-03-28T20:17:11Z</time>
      </trkpt>
      <trkpt lat="45.64007" lon="-1.09168">
        <ele>10.4</ele>
        <time>2021-03-28T20:17:19Z</time>
      </trkpt>
      <trkpt lat="45.64006" lon="-1.09166">
        <ele>10.4</ele>
        <time>2021-03-28T20:17:21Z</time>
      </trkpt>
      <trkpt lat="45.64004" lon="-1.09166">
        <ele>10.4</ele>
        <time>2021-03-28T20:17:23Z</time>
      </trkpt>
      <trkpt lat="45.64003" lon="-1.09167">
        <ele>10.3</ele>
        <time>2021-03-28T20:17:25Z</time>
      </trkpt>
      <trkpt lat="45.64005" lon="-1.0917">
        <ele>10.3</ele>
        <time>2021-03-28T20:17:30Z</time>
      </trkpt>
      <trkpt lat="45.64006" lon="-1.09169">
        <ele>10.3</ele>
        <time>2021-03-28T20:17:35Z</time>
      </trkpt>
      <trkpt lat="45.64004" lon="-1.09167">
        <ele>10.2</ele>
        <time>2021-03-28T20:17:41Z</time>
      </trkpt>
      <trkpt lat="45.64002" lon="-1.09158">
        <ele>10.1</ele>
        <time>2021-03-28T20:17:47Z</time>
      </trkpt>
      <trkpt lat="45.64001" lon="-1.09144">
        <ele>9.9</ele>
        <time>2021-03-28T20:17:55Z</time>
      </trkpt>
      <trkpt lat="45.64003" lon="-1.09135">
        <ele>9.8</ele>
        <time>2021-03-28T20:18:01Z</time>
      </trkpt>
      <trkpt lat="45.64004" lon="-1.09133">
        <ele>9.8</ele>
        <time>2021-03-28T20:18:04Z</time>
      </trkpt>
      <trkpt lat="45.64004" lon="-1.0913">
        <ele>9.7</ele>
        <time>2021-03-28T20:18:07Z</time>
      </trkpt>
      <trkpt lat="45.64003" lon="-1.09125">
        <ele>9.7</ele>
        <time>2021-03-28T20:18:10Z</time>
      </trkpt>
      <trkpt lat="45.63997" lon="-1.09114">
        <ele>9.4</ele>
        <time>2021-03-28T20:18:19Z</time>
      </trkpt>
      <trkpt lat="45.63995" lon="-1.09108">
        <ele>9.3</ele>
        <time>2021-03-28T20:18:23Z</time>
      </trkpt>
      <trkpt lat="45.63995" lon="-1.09097">
        <ele>9</ele>
        <time>2021-03-28T20:18:31Z</time>
      </trkpt>
      <trkpt lat="45.63991" lon="-1.0909">
        <ele>8.9</ele>
        <time>2021-03-28T20:18:44Z</time>
      </trkpt>
      <trkpt lat="45.63993" lon="-1.09089">
        <ele>8.9</ele>
        <time>2021-03-28T20:18:55Z</time>
      </trkpt>
      <trkpt lat="45.63995" lon="-1.09095">
        <ele>8.8</ele>
        <time>2021-03-28T20:19:08Z</time>
      </trkpt>
      <trkpt lat="45.63997" lon="-1.09096">
        <ele>8.8</ele>
        <time>2021-03-28T20:19:20Z</time>
      </trkpt>
      <trkpt lat="45.64001" lon="-1.09093">
        <ele>8.8</ele>
        <time>2021-03-28T20:19:24Z</time>
      </trkpt>
      <trkpt lat="45.64006" lon="-1.09084">
        <ele>8.8</ele>
        <time>2021-03-28T20:19:32Z</time>
      </trkpt>
      <trkpt lat="45.64008" lon="-1.09077">
        <ele>8.9</ele>
        <time>2021-03-28T20:19:37Z</time>
      </trkpt>
      <trkpt lat="45.64011" lon="-1.09075">
        <ele>9</ele>
        <time>2021-03-28T20:19:42Z</time>
      </trkpt>
      <trkpt lat="45.64016" lon="-1.09076">
        <ele>9.1</ele>
        <time>2021-03-28T20:19:47Z</time>
      </trkpt>
      <trkpt lat="45.64019" lon="-1.0908">
        <ele>8.9</ele>
        <time>2021-03-28T20:19:52Z</time>
      </trkpt>
      <trkpt lat="45.64018" lon="-1.0908">
        <ele>8.8</ele>
        <time>2021-03-28T20:19:54Z</time>
      </trkpt>
      <trkpt lat="45.64011" lon="-1.0906">
        <ele>7.3</ele>
        <time>2021-03-28T20:20:09Z</time>
      </trkpt>
      <trkpt lat="45.64011" lon="-1.09059">
        <ele>7.3</ele>
        <time>2021-03-28T20:20:17Z</time>
      </trkpt>
      <trkpt lat="45.6401" lon="-1.09059">
        <ele>7.1</ele>
        <time>2021-03-28T20:20:27Z</time>
      </trkpt>
      <trkpt lat="45.6401" lon="-1.09058">
        <ele>7</ele>
        <time>2021-03-28T20:20:36Z</time>
      </trkpt>
      <trkpt lat="45.64009" lon="-1.09054">
        <ele>6.7</ele>
        <time>2021-03-28T20:20:44Z</time>
      </trkpt>
      <trkpt lat="45.64008" lon="-1.09049">
        <ele>6.7</ele>
        <time>2021-03-28T20:20:48Z</time>
      </trkpt>
      <trkpt lat="45.64009" lon="-1.09048">
        <ele>6.7</ele>
        <time>2021-03-28T20:20:50Z</time>
      </trkpt>
      <trkpt lat="45.64009" lon="-1.09047">
        <ele>6.7</ele>
        <time>2021-03-28T20:21:06Z</time>
      </trkpt>
      <trkpt lat="45.64007" lon="-1.09048">
        <ele>6.7</ele>
        <time>2021-03-28T20:21:10Z</time>
      </trkpt>
      <trkpt lat="45.64008" lon="-1.09048">
        <ele>6.7</ele>
        <time>2021-03-28T20:21:14Z</time>
      </trkpt>
      <trkpt lat="45.64008" lon="-1.09047">
        <ele>6.7</ele>
        <time>2021-03-28T20:21:16Z</time>
      </trkpt>
      <trkpt lat="45.64006" lon="-1.09048">
        <ele>6.7</ele>
        <time>2021-03-28T20:21:18Z</time>
      </trkpt>
      <trkpt lat="45.64008" lon="-1.0905">
        <ele>6.7</ele>
        <time>2021-03-28T20:21:23Z</time>
      </trkpt>
      <trkpt lat="45.64007" lon="-1.09051">
        <ele>6.7</ele>
        <time>2021-03-28T20:21:27Z</time>
      </trkpt>
      <trkpt lat="45.64009" lon="-1.09052">
        <ele>6.8</ele>
        <time>2021-03-28T20:21:37Z</time>
      </trkpt>
      <trkpt lat="45.64014" lon="-1.09068">
        <ele>9.3</ele>
        <time>2021-03-28T20:21:52Z</time>
      </trkpt>
      <trkpt lat="45.64015" lon="-1.09076">
        <ele>9.6</ele>
        <time>2021-03-28T20:22:01Z</time>
      </trkpt>
      <trkpt lat="45.64019" lon="-1.09086">
        <ele>9.9</ele>
        <time>2021-03-28T20:22:10Z</time>
      </trkpt>
      <trkpt lat="45.64026" lon="-1.09092">
        <ele>10.4</ele>
        <time>2021-03-28T20:22:16Z</time>
      </trkpt>
      <trkpt lat="45.64041" lon="-1.09113">
        <ele>11.6</ele>
        <time>2021-03-28T20:22:34Z</time>
      </trkpt>
      <trkpt lat="45.64049" lon="-1.0913">
        <ele>12.5</ele>
        <time>2021-03-28T20:22:48Z</time>
      </trkpt>
      <trkpt lat="45.64051" lon="-1.09131">
        <ele>12.5</ele>
        <time>2021-03-28T20:22:50Z</time>
      </trkpt>
      <trkpt lat="45.64055" lon="-1.0913">
        <ele>12.4</ele>
        <time>2021-03-28T20:22:54Z</time>
      </trkpt>
      <trkpt lat="45.64058" lon="-1.09121">
        <ele>12.4</ele>
        <time>2021-03-28T20:22:59Z</time>
      </trkpt>
      <trkpt lat="45.64059" lon="-1.0912">
        <ele>12.4</ele>
        <time>2021-03-28T20:23:00Z</time>
      </trkpt>
      <trkpt lat="45.64063" lon="-1.09121">
        <ele>12.4</ele>
        <time>2021-03-28T20:23:12Z</time>
      </trkpt>
      <trkpt lat="45.64061" lon="-1.09125">
        <ele>12.3</ele>
        <time>2021-03-28T20:23:19Z</time>
      </trkpt>
      <trkpt lat="45.64064" lon="-1.09117">
        <ele>12.3</ele>
        <time>2021-03-28T20:23:28Z</time>
      </trkpt>
      <trkpt lat="45.64074" lon="-1.09104">
        <ele>11.9</ele>
        <time>2021-03-28T20:23:41Z</time>
      </trkpt>
      <trkpt lat="45.64084" lon="-1.09074">
        <ele>11.1</ele>
        <time>2021-03-28T20:23:59Z</time>
      </trkpt>
      <trkpt lat="45.64092" lon="-1.09068">
        <ele>10.8</ele>
        <time>2021-03-28T20:24:05Z</time>
      </trkpt>
      <trkpt lat="45.641" lon="-1.09055">
        <ele>10.5</ele>
        <time>2021-03-28T20:24:15Z</time>
      </trkpt>
      <trkpt lat="45.64106" lon="-1.09037">
        <ele>10.2</ele>
        <time>2021-03-28T20:24:26Z</time>
      </trkpt>
      <trkpt lat="45.64109" lon="-1.09032">
        <ele>10</ele>
        <time>2021-03-28T20:24:31Z</time>
      </trkpt>
      <trkpt lat="45.64112" lon="-1.09031">
        <ele>10</ele>
        <time>2021-03-28T20:24:34Z</time>
      </trkpt>
      <trkpt lat="45.64117" lon="-1.09019">
        <ele>9.8</ele>
        <time>2021-03-28T20:24:42Z</time>
      </trkpt>
      <trkpt lat="45.64127" lon="-1.09007">
        <ele>9.5</ele>
        <time>2021-03-28T20:24:51Z</time>
      </trkpt>
      <trkpt lat="45.6413" lon="-1.09006">
        <ele>9.5</ele>
        <time>2021-03-28T20:24:54Z</time>
      </trkpt>
      <trkpt lat="45.64134" lon="-1.09002">
        <ele>9.4</ele>
        <time>2021-03-28T20:24:58Z</time>
      </trkpt>
      <trkpt lat="45.64138" lon="-1.0899">
        <ele>9.3</ele>
        <time>2021-03-28T20:25:05Z</time>
      </trkpt>
      <trkpt lat="45.64142" lon="-1.08985">
        <ele>9.3</ele>
        <time>2021-03-28T20:25:09Z</time>
      </trkpt>
      <trkpt lat="45.64142" lon="-1.08982">
        <ele>9.3</ele>
        <time>2021-03-28T20:25:11Z</time>
      </trkpt>
      <trkpt lat="45.64144" lon="-1.08977">
        <ele>9.2</ele>
        <time>2021-03-28T20:25:14Z</time>
      </trkpt>
      <trkpt lat="45.64144" lon="-1.08975">
        <ele>9.2</ele>
        <time>2021-03-28T20:25:15Z</time>
      </trkpt>
      <trkpt lat="45.64148" lon="-1.08965">
        <ele>9.1</ele>
        <time>2021-03-28T20:25:22Z</time>
      </trkpt>
      <trkpt lat="45.6415" lon="-1.08959">
        <ele>9.1</ele>
        <time>2021-03-28T20:25:27Z</time>
      </trkpt>
      <trkpt lat="45.64154" lon="-1.08954">
        <ele>9.1</ele>
        <time>2021-03-28T20:25:30Z</time>
      </trkpt>
      <trkpt lat="45.64163" lon="-1.08945">
        <ele>9.1</ele>
        <time>2021-03-28T20:25:40Z</time>
      </trkpt>
      <trkpt lat="45.64165" lon="-1.08941">
        <ele>9.1</ele>
        <time>2021-03-28T20:25:43Z</time>
      </trkpt>
      <trkpt lat="45.64172" lon="-1.08939">
        <ele>9.1</ele>
        <time>2021-03-28T20:25:49Z</time>
      </trkpt>
      <trkpt lat="45.64174" lon="-1.08936">
        <ele>9.1</ele>
        <time>2021-03-28T20:25:51Z</time>
      </trkpt>
      <trkpt lat="45.64177" lon="-1.08927">
        <ele>9.1</ele>
        <time>2021-03-28T20:25:56Z</time>
      </trkpt>
      <trkpt lat="45.64186" lon="-1.08911">
        <ele>9</ele>
        <time>2021-03-28T20:26:07Z</time>
      </trkpt>
      <trkpt lat="45.64195" lon="-1.08899">
        <ele>9</ele>
        <time>2021-03-28T20:26:19Z</time>
      </trkpt>
      <trkpt lat="45.64198" lon="-1.08897">
        <ele>9</ele>
        <time>2021-03-28T20:26:22Z</time>
      </trkpt>
      <trkpt lat="45.64206" lon="-1.08887">
        <ele>8.9</ele>
        <time>2021-03-28T20:26:31Z</time>
      </trkpt>
      <trkpt lat="45.64213" lon="-1.08876">
        <ele>8.8</ele>
        <time>2021-03-28T20:26:40Z</time>
      </trkpt>
      <trkpt lat="45.64222" lon="-1.08862">
        <ele>8.7</ele>
        <time>2021-03-28T20:26:52Z</time>
      </trkpt>
      <trkpt lat="45.64229" lon="-1.08858">
        <ele>8.7</ele>
        <time>2021-03-28T20:26:57Z</time>
      </trkpt>
      <trkpt lat="45.64238" lon="-1.08848">
        <ele>8.6</ele>
        <time>2021-03-28T20:27:06Z</time>
      </trkpt>
      <trkpt lat="45.6425" lon="-1.08839">
        <ele>8.4</ele>
        <time>2021-03-28T20:27:16Z</time>
      </trkpt>
      <trkpt lat="45.64256" lon="-1.08827">
        <ele>8.4</ele>
        <time>2021-03-28T20:27:26Z</time>
      </trkpt>
      <trkpt lat="45.64258" lon="-1.08817">
        <ele>8.4</ele>
        <time>2021-03-28T20:27:32Z</time>
      </trkpt>
      <trkpt lat="45.64267" lon="-1.08806">
        <ele>8.5</ele>
        <time>2021-03-28T20:27:44Z</time>
      </trkpt>
      <trkpt lat="45.64269" lon="-1.08806">
        <ele>8.5</ele>
        <time>2021-03-28T20:27:45Z</time>
      </trkpt>
      <trkpt lat="45.64271" lon="-1.08809">
        <ele>8.5</ele>
        <time>2021-03-28T20:27:48Z</time>
      </trkpt>
      <trkpt lat="45.64272" lon="-1.08813">
        <ele>8.5</ele>
        <time>2021-03-28T20:27:51Z</time>
      </trkpt>
      <trkpt lat="45.64277" lon="-1.0882">
        <ele>8.6</ele>
        <time>2021-03-28T20:27:57Z</time>
      </trkpt>
      <trkpt lat="45.64279" lon="-1.08826">
        <ele>8.6</ele>
        <time>2021-03-28T20:28:00Z</time>
      </trkpt>
      <trkpt lat="45.64281" lon="-1.08829">
        <ele>8.6</ele>
        <time>2021-03-28T20:28:02Z</time>
      </trkpt>
      <trkpt lat="45.64285" lon="-1.08829">
        <ele>8.6</ele>
        <time>2021-03-28T20:28:05Z</time>
      </trkpt>
      <trkpt lat="45.64288" lon="-1.08827">
        <ele>8.6</ele>
        <time>2021-03-28T20:28:07Z</time>
      </trkpt>
      <trkpt lat="45.6429" lon="-1.08829">
        <ele>8.6</ele>
        <time>2021-03-28T20:28:09Z</time>
      </trkpt>
      <trkpt lat="45.64291" lon="-1.08834">
        <ele>8.7</ele>
        <time>2021-03-28T20:28:12Z</time>
      </trkpt>
      <trkpt lat="45.64293" lon="-1.08833">
        <ele>8.7</ele>
        <time>2021-03-28T20:28:16Z</time>
      </trkpt>
      <trkpt lat="45.64291" lon="-1.08832">
        <ele>8.7</ele>
        <time>2021-03-28T20:28:26Z</time>
      </trkpt>
      <trkpt lat="45.6429" lon="-1.08831">
        <ele>8.7</ele>
        <time>2021-03-28T20:28:47Z</time>
      </trkpt>
    </trkseg>
  </trk>
</gpx>